Wetterdaten: Freitag, 03.11.2017
Datum Zeit Temp. A. Pool Temp. Feuchte A. Luftdruck Regen Wind Richtung Richtung Sonnenschein ET UV Solar Taupunkt Windchill Windben Empfang
03.11.2017 00:00 11,8 C 7,8 C 77 % 1015,2 hPa 0,0 l/m 13,2 km/h (3 Bft) W 259 0 min 0,000 mm 0,0 UV-I 0 W/m 7,9 C 8,1 C 20,9 km/h (4 Bft) 92,86 %
03.11.2017 00:02 11,7 C 7,8 C 77 % 1015,2 hPa 0,0 l/m 11,7 km/h (2 Bft) W 262 0 min 0,000 mm 0,0 UV-I 0 W/m 7,8 C 8,6 C 16,1 km/h (3 Bft) 93,62 %
03.11.2017 00:04 11,6 C 7,8 C 77 % 1015,3 hPa 0,0 l/m 12,1 km/h (2 Bft) W-SW 254 0 min 0,000 mm 0,0 UV-I 0 W/m 7,7 C 8,3 C 16,1 km/h (3 Bft) 94,74 %
03.11.2017 00:06 11,6 C 7,8 C 78 % 1015,3 hPa 0,0 l/m 11,5 km/h (2 Bft) SW 233 0 min 0,000 mm 0,0 UV-I 0 W/m 7,9 C 8,6 C 17,7 km/h (3 Bft) 96,43 %
03.11.2017 00:08 11,5 C 7,8 C 78 % 1015,2 hPa 0,0 l/m 15,6 km/h (3 Bft) W 267 0 min 0,000 mm 0,0 UV-I 0 W/m 7,8 C 6,7 C 20,9 km/h (4 Bft) 94,74 %
03.11.2017 00:10 11,6 C 7,8 C 78 % 1015,3 hPa 0,0 l/m 14,0 km/h (3 Bft) W-SW 255 0 min 0,000 mm 0,0 UV-I 0 W/m 7,9 C 7,5 C 22,5 km/h (4 Bft) 100,00 %
03.11.2017 00:12 11,6 C 7,8 C 78 % 1015,3 hPa 0,0 l/m 12,1 km/h (2 Bft) W 279 0 min 0,000 mm 0,0 UV-I 0 W/m 7,9 C 8,3 C 16,1 km/h (3 Bft) 100,00 %
03.11.2017 00:14 11,5 C 7,8 C 78 % 1015,3 hPa 0,0 l/m 12,0 km/h (2 Bft) W-SW 239 0 min 0,000 mm 0,0 UV-I 0 W/m 7,8 C 8,2 C 19,3 km/h (3 Bft) 100,00 %
03.11.2017 00:16 11,5 C 7,8 C 78 % 1015,3 hPa 0,0 l/m 12,1 km/h (2 Bft) W-NW 282 0 min 0,000 mm 0,0 UV-I 0 W/m 7,8 C 8,2 C 20,9 km/h (4 Bft) 98,00 %
03.11.2017 00:18 11,5 C 7,8 C 78 % 1015,3 hPa 0,0 l/m 14,1 km/h (3 Bft) W-SW 247 0 min 0,000 mm 0,0 UV-I 0 W/m 7,8 C 7,3 C 20,9 km/h (4 Bft) 100,00 %
03.11.2017 00:20 11,5 C 7,8 C 78 % 1015,3 hPa 0,0 l/m 12,4 km/h (3 Bft) W-SW 254 0 min 0,000 mm 0,0 UV-I 0 W/m 7,8 C 8,1 C 17,7 km/h (3 Bft) 100,00 %
03.11.2017 00:22 11,4 C 7,8 C 78 % 1015,2 hPa 0,0 l/m 14,2 km/h (3 Bft) W-SW 250 0 min 0,000 mm 0,0 UV-I 0 W/m 7,7 C 7,2 C 19,3 km/h (3 Bft) 100,00 %
03.11.2017 00:24 11,4 C 7,8 C 78 % 1015,2 hPa 0,0 l/m 14,2 km/h (3 Bft) SW 229 0 min 0,000 mm 0,0 UV-I 0 W/m 7,7 C 7,2 C 20,9 km/h (4 Bft) 100,00 %
03.11.2017 00:26 11,4 C 7,8 C 78 % 1015,2 hPa 0,0 l/m 15,7 km/h (3 Bft) W-SW 248 0 min 0,000 mm 0,0 UV-I 0 W/m 7,7 C 6,6 C 22,5 km/h (4 Bft) 97,73 %
03.11.2017 00:28 11,3 C 7,8 C 78 % 1015,3 hPa 0,0 l/m 14,0 km/h (3 Bft) W-SW 258 0 min 0,000 mm 0,0 UV-I 0 W/m 7,6 C 7,1 C 19,3 km/h (3 Bft) 100,00 %
03.11.2017 00:30 11,3 C 7,8 C 79 % 1015,2 hPa 0,0 l/m 11,6 km/h (2 Bft) W-SW 252 0 min 0,000 mm 0,0 UV-I 0 W/m 7,8 C 8,2 C 17,7 km/h (3 Bft) 100,00 %
03.11.2017 00:32 11,2 C 7,8 C 79 % 1015,2 hPa 0,0 l/m 14,0 km/h (3 Bft) W-SW 251 0 min 0,000 mm 0,0 UV-I 0 W/m 7,7 C 7,0 C 19,3 km/h (3 Bft) 98,11 %
03.11.2017 00:34 11,2 C 7,8 C 79 % 1015,2 hPa 0,0 l/m 14,6 km/h (3 Bft) W-SW 254 0 min 0,000 mm 0,0 UV-I 0 W/m 7,7 C 6,7 C 20,9 km/h (4 Bft) 100,00 %
03.11.2017 00:36 11,2 C 7,8 C 79 % 1015,2 hPa 0,0 l/m 14,7 km/h (3 Bft) W 265 0 min 0,000 mm 0,0 UV-I 0 W/m 7,7 C 6,7 C 20,9 km/h (4 Bft) 100,00 %
03.11.2017 00:38 11,2 C 7,8 C 79 % 1015,2 hPa 0,0 l/m 16,8 km/h (3 Bft) SW 227 0 min 0,000 mm 0,0 UV-I 0 W/m 7,7 C 5,9 C 24,1 km/h (4 Bft) 97,44 %
03.11.2017 00:40 11,2 C 7,8 C 79 % 1015,1 hPa 0,0 l/m 12,8 km/h (3 Bft) W-SW 240 0 min 0,000 mm 0,0 UV-I 0 W/m 7,7 C 7,5 C 19,3 km/h (3 Bft) 100,00 %
03.11.2017 00:42 11,1 C 7,8 C 79 % 1015,2 hPa 0,0 l/m 13,6 km/h (3 Bft) W 274 0 min 0,000 mm 0,0 UV-I 0 W/m 7,6 C 7,1 C 24,1 km/h (4 Bft) 100,00 %
03.11.2017 00:44 11,1 C 7,8 C 79 % 1015,2 hPa 0,0 l/m 12,5 km/h (3 Bft) W-SW 254 0 min 0,000 mm 0,0 UV-I 0 W/m 7,6 C 7,5 C 17,7 km/h (3 Bft) 100,00 %
03.11.2017 00:46 11,1 C 7,8 C 79 % 1015,2 hPa 0,0 l/m 13,4 km/h (3 Bft) W-SW 257 0 min 0,000 mm 0,0 UV-I 0 W/m 7,6 C 7,1 C 19,3 km/h (3 Bft) 100,00 %
03.11.2017 00:48 11,1 C 7,8 C 79 % 1015,2 hPa 0,0 l/m 14,7 km/h (3 Bft) W-SW 256 0 min 0,000 mm 0,0 UV-I 0 W/m 7,6 C 6,6 C 20,9 km/h (4 Bft) 100,00 %
03.11.2017 00:50 11,1 C 7,8 C 80 % 1015,2 hPa 0,0 l/m 13,5 km/h (3 Bft) W-SW 253 0 min 0,000 mm 0,0 UV-I 0 W/m 7,8 C 7,1 C 19,3 km/h (3 Bft) 100,00 %
03.11.2017 00:52 11,1 C 7,8 C 79 % 1015,2 hPa 0,0 l/m 13,9 km/h (3 Bft) SW 236 0 min 0,000 mm 0,0 UV-I 0 W/m 7,6 C 6,9 C 19,3 km/h (3 Bft) 100,00 %
03.11.2017 00:54 11,1 C 7,8 C 79 % 1015,1 hPa 0,0 l/m 14,0 km/h (3 Bft) S-SW 208 0 min 0,000 mm 0,0 UV-I 0 W/m 7,6 C 6,9 C 22,5 km/h (4 Bft) 98,11 %
03.11.2017 00:56 11,1 C 7,8 C 79 % 1015,2 hPa 0,0 l/m 14,3 km/h (3 Bft) W-SW 248 0 min 0,000 mm 0,0 UV-I 0 W/m 7,6 C 6,8 C 17,7 km/h (3 Bft) 100,00 %
03.11.2017 00:58 11,2 C 7,8 C 79 % 1015,2 hPa 0,0 l/m 15,3 km/h (3 Bft) W-SW 252 0 min 0,000 mm 0,0 UV-I 0 W/m 7,7 C 6,5 C 20,9 km/h (4 Bft) 100,00 %
03.11.2017 01:00 11,2 C 7,8 C 79 % 1015,2 hPa 0,0 l/m 15,4 km/h (3 Bft) W-SW 250 0 min 0,000 mm 0,0 UV-I 0 W/m 7,7 C 6,4 C 20,9 km/h (4 Bft) 100,00 %
03.11.2017 01:02 11,2 C 7,8 C 79 % 1015,2 hPa 0,0 l/m 11,7 km/h (2 Bft) W 261 0 min 0,025 mm 0,0 UV-I 0 W/m 7,7 C 8,0 C 20,9 km/h (4 Bft) 100,00 %
03.11.2017 01:04 11,1 C 7,8 C 80 % 1015,3 hPa 0,0 l/m 10,5 km/h (2 Bft) W-SW 257 0 min 0,000 mm 0,0 UV-I 0 W/m 7,8 C 8,5 C 14,5 km/h (3 Bft) 98,21 %
03.11.2017 01:06 11,1 C 7,8 C 80 % 1015,2 hPa 0,0 l/m 11,1 km/h (2 Bft) W-SW 254 0 min 0,000 mm 0,0 UV-I 0 W/m 7,8 C 8,2 C 16,1 km/h (3 Bft) 100,00 %
03.11.2017 01:08 11,1 C 7,8 C 80 % 1015,2 hPa 0,0 l/m 13,6 km/h (3 Bft) W-SW 252 0 min 0,000 mm 0,0 UV-I 0 W/m 7,8 C 7,1 C 19,3 km/h (3 Bft) 100,00 %
03.11.2017 01:10 11,1 C 7,8 C 80 % 1015,2 hPa 0,0 l/m 13,4 km/h (3 Bft) W-SW 240 0 min 0,000 mm 0,0 UV-I 0 W/m 7,8 C 7,1 C 19,3 km/h (3 Bft) 100,00 %
03.11.2017 01:12 11,1 C 7,8 C 80 % 1015,2 hPa 0,0 l/m 10,3 km/h (2 Bft) W 266 0 min 0,000 mm 0,0 UV-I 0 W/m 7,8 C 8,6 C 19,3 km/h (3 Bft) 100,00 %
03.11.2017 01:14 11,0 C 7,8 C 80 % 1015,3 hPa 0,0 l/m 11,6 km/h (2 Bft) SW 223 0 min 0,000 mm 0,0 UV-I 0 W/m 7,7 C 7,9 C 20,9 km/h (4 Bft) 100,00 %
03.11.2017 01:16 11,0 C 7,8 C 80 % 1015,2 hPa 0,0 l/m 9,6 km/h (2 Bft) W-SW 257 0 min 0,000 mm 0,0 UV-I 0 W/m 7,7 C 8,9 C 12,9 km/h (3 Bft) 100,00 %
03.11.2017 01:18 10,9 C 7,8 C 80 % 1015,3 hPa 0,0 l/m 11,9 km/h (2 Bft) W-SW 246 0 min 0,000 mm 0,0 UV-I 0 W/m 7,6 C 7,6 C 16,1 km/h (3 Bft) 100,00 %
03.11.2017 01:20 10,9 C 7,8 C 81 % 1015,3 hPa 0,0 l/m 8,7 km/h (2 Bft) W-SW 250 0 min 0,000 mm 0,0 UV-I 0 W/m 7,8 C 9,4 C 12,9 km/h (3 Bft) 100,00 %
03.11.2017 01:22 10,9 C 7,8 C 81 % 1015,3 hPa 0,0 l/m 12,1 km/h (2 Bft) W-SW 250 0 min 0,000 mm 0,0 UV-I 0 W/m 7,8 C 7,5 C 17,7 km/h (3 Bft) 100,00 %
03.11.2017 01:24 10,9 C 7,8 C 81 % 1015,3 hPa 0,0 l/m 10,7 km/h (2 Bft) W-SW 248 0 min 0,000 mm 0,0 UV-I 0 W/m 7,8 C 8,2 C 16,1 km/h (3 Bft) 100,00 %
03.11.2017 01:26 10,9 C 7,8 C 81 % 1015,4 hPa 0,0 l/m 13,5 km/h (3 Bft) W 261 0 min 0,000 mm 0,0 UV-I 0 W/m 7,8 C 6,9 C 17,7 km/h (3 Bft) 100,00 %
03.11.2017 01:28 10,8 C 7,8 C 81 % 1015,4 hPa 0,0 l/m 10,4 km/h (2 Bft) W-SW 240 0 min 0,000 mm 0,0 UV-I 0 W/m 7,7 C 8,3 C 16,1 km/h (3 Bft) 98,21 %
03.11.2017 01:30 10,8 C 7,8 C 81 % 1015,4 hPa 0,0 l/m 13,4 km/h (3 Bft) W-SW 251 0 min 0,000 mm 0,0 UV-I 0 W/m 7,7 C 6,8 C 19,3 km/h (3 Bft) 97,37 %
03.11.2017 01:32 10,8 C 7,8 C 81 % 1015,4 hPa 0,0 l/m 13,1 km/h (3 Bft) W-SW 243 0 min 0,000 mm 0,0 UV-I 0 W/m 7,7 C 6,9 C 17,7 km/h (3 Bft) 97,56 %
03.11.2017 01:34 10,8 C 7,8 C 81 % 1015,4 hPa 0,0 l/m 11,1 km/h (2 Bft) W-SW 248 0 min 0,000 mm 0,0 UV-I 0 W/m 7,7 C 7,9 C 20,9 km/h (4 Bft) 100,00 %
03.11.2017 01:36 10,8 C 7,8 C 81 % 1015,4 hPa 0,0 l/m 14,1 km/h (3 Bft) W-SW 252 0 min 0,000 mm 0,0 UV-I 0 W/m 7,7 C 6,5 C 19,3 km/h (3 Bft) 100,00 %
03.11.2017 01:38 10,8 C 7,8 C 81 % 1015,4 hPa 0,0 l/m 10,4 km/h (2 Bft) W 259 0 min 0,000 mm 0,0 UV-I 0 W/m 7,7 C 8,3 C 16,1 km/h (3 Bft) 97,14 %
03.11.2017 01:40 10,8 C 7,8 C 82 % 1015,4 hPa 0,0 l/m 9,8 km/h (2 Bft) W 260 0 min 0,000 mm 0,0 UV-I 0 W/m 7,9 C 8,6 C 12,9 km/h (3 Bft) 96,61 %
03.11.2017 01:42 10,7 C 7,8 C 82 % 1015,4 hPa 0,0 l/m 8,0 km/h (2 Bft) W 281 0 min 0,000 mm 0,0 UV-I 0 W/m 7,8 C 9,6 C 11,3 km/h (2 Bft) 95,45 %
03.11.2017 01:44 10,7 C 7,8 C 82 % 1015,4 hPa 0,0 l/m 9,1 km/h (2 Bft) W-SW 247 0 min 0,000 mm 0,0 UV-I 0 W/m 7,8 C 8,9 C 14,5 km/h (3 Bft) 95,12 %
03.11.2017 01:46 10,7 C 7,8 C 82 % 1015,4 hPa 0,0 l/m 9,1 km/h (2 Bft) SW 229 0 min 0,000 mm 0,0 UV-I 0 W/m 7,8 C 8,9 C 12,9 km/h (3 Bft) 94,34 %
03.11.2017 01:48 10,7 C 7,8 C 82 % 1015,3 hPa 0,0 l/m 6,9 km/h (2 Bft) W-SW 244 0 min 0,000 mm 0,0 UV-I 0 W/m 7,8 C 10,4 C 11,3 km/h (2 Bft) 95,74 %
03.11.2017 01:50 10,7 C 7,8 C 82 % 1015,4 hPa 0,0 l/m 6,0 km/h (2 Bft) SW 231 0 min 0,000 mm 0,0 UV-I 0 W/m 7,8 C 10,7 C 9,7 km/h (2 Bft) 95,74 %
03.11.2017 01:52 10,7 C 7,8 C 82 % 1015,4 hPa 0,0 l/m 7,7 km/h (2 Bft) W-SW 248 0 min 0,000 mm 0,0 UV-I 0 W/m 7,8 C 9,8 C 12,9 km/h (3 Bft) 95,12 %
03.11.2017 01:54 10,7 C 7,8 C 83 % 1015,5 hPa 0,0 l/m 8,4 km/h (2 Bft) W-SW 248 0 min 0,000 mm 0,0 UV-I 0 W/m 7,9 C 9,3 C 12,9 km/h (3 Bft) 95,24 %
03.11.2017 01:56 10,6 C 7,8 C 83 % 1015,5 hPa 0,0 l/m 9,6 km/h (2 Bft) W 265 0 min 0,000 mm 0,0 UV-I 0 W/m 7,8 C 8,5 C 14,5 km/h (3 Bft) 92,45 %
03.11.2017 01:58 10,7 C 7,8 C 83 % 1015,4 hPa 0,0 l/m 10,1 km/h (2 Bft) SW 236 0 min 0,000 mm 0,0 UV-I 0 W/m 7,9 C 8,3 C 14,5 km/h (3 Bft) 94,00 %
03.11.2017 02:00 10,6 C 7,8 C 83 % 1015,5 hPa 0,0 l/m 10,4 km/h (2 Bft) W-SW 239 0 min 0,000 mm 0,0 UV-I 0 W/m 7,8 C 8,0 C 16,1 km/h (3 Bft) 95,74 %
03.11.2017 02:02 10,6 C 7,8 C 83 % 1015,4 hPa 0,0 l/m 9,5 km/h (2 Bft) SW 234 0 min 0,026 mm 0,0 UV-I 0 W/m 7,8 C 8,5 C 12,9 km/h (3 Bft) 95,12 %
03.11.2017 02:04 10,6 C 7,8 C 83 % 1015,4 hPa 0,0 l/m 10,4 km/h (2 Bft) W 264 0 min 0,000 mm 0,0 UV-I 0 W/m 7,8 C 8,0 C 14,5 km/h (3 Bft) 94,00 %
03.11.2017 02:06 10,6 C 7,8 C 83 % 1015,5 hPa 0,0 l/m 11,1 km/h (2 Bft) W-SW 241 0 min 0,000 mm 0,0 UV-I 0 W/m 7,8 C 7,7 C 17,7 km/h (3 Bft) 96,00 %
03.11.2017 02:08 10,6 C 7,8 C 83 % 1015,5 hPa 0,0 l/m 9,3 km/h (2 Bft) SW 231 0 min 0,000 mm 0,0 UV-I 0 W/m 7,8 C 8,7 C 12,9 km/h (3 Bft) 92,68 %
03.11.2017 02:10 10,6 C 7,8 C 83 % 1015,5 hPa 0,0 l/m 8,7 km/h (2 Bft) W-SW 254 0 min 0,000 mm 0,0 UV-I 0 W/m 7,8 C 9,0 C 12,9 km/h (3 Bft) 93,62 %
03.11.2017 02:12 10,6 C 7,8 C 83 % 1015,5 hPa 0,0 l/m 13,1 km/h (3 Bft) W-SW 255 0 min 0,000 mm 0,0 UV-I 0 W/m 7,8 C 6,7 C 17,7 km/h (3 Bft) 94,64 %
03.11.2017 02:14 10,5 C 7,8 C 83 % 1015,6 hPa 0,0 l/m 10,6 km/h (2 Bft) W-SW 257 0 min 0,000 mm 0,0 UV-I 0 W/m 7,7 C 7,8 C 17,7 km/h (3 Bft) 97,56 %
03.11.2017 02:16 10,5 C 7,8 C 84 % 1015,5 hPa 0,0 l/m 12,4 km/h (3 Bft) W-SW 252 0 min 0,000 mm 0,0 UV-I 0 W/m 7,9 C 6,9 C 19,3 km/h (3 Bft) 96,23 %
03.11.2017 02:18 10,5 C 7,8 C 84 % 1015,5 hPa 0,0 l/m 11,0 km/h (2 Bft) W-SW 239 0 min 0,000 mm 0,0 UV-I 0 W/m 7,9 C 7,6 C 16,1 km/h (3 Bft) 100,00 %
03.11.2017 02:20 10,5 C 7,8 C 84 % 1015,4 hPa 0,0 l/m 11,3 km/h (2 Bft) W-SW 250 0 min 0,000 mm 0,0 UV-I 0 W/m 7,9 C 7,4 C 16,1 km/h (3 Bft) 96,23 %
03.11.2017 02:22 10,5 C 7,8 C 84 % 1015,4 hPa 0,0 l/m 8,9 km/h (2 Bft) W-SW 254 0 min 0,000 mm 0,0 UV-I 0 W/m 7,9 C 8,8 C 16,1 km/h (3 Bft) 97,87 %
03.11.2017 02:24 10,4 C 7,8 C 84 % 1015,4 hPa 0,0 l/m 7,5 km/h (2 Bft) W-SW 246 0 min 0,000 mm 0,0 UV-I 0 W/m 7,8 C 9,6 C 11,3 km/h (2 Bft) 97,87 %
03.11.2017 02:26 10,4 C 7,8 C 84 % 1015,4 hPa 0,0 l/m 10,2 km/h (2 Bft) W-SW 250 0 min 0,000 mm 0,0 UV-I 0 W/m 7,8 C 7,9 C 14,5 km/h (3 Bft) 97,44 %
03.11.2017 02:28 10,4 C 7,8 C 84 % 1015,5 hPa 0,0 l/m 9,4 km/h (2 Bft) W 263 0 min 0,000 mm 0,0 UV-I 0 W/m 7,8 C 8,4 C 14,5 km/h (3 Bft) 98,11 %
03.11.2017 02:30 10,4 C 7,8 C 84 % 1015,5 hPa 0,0 l/m 6,9 km/h (2 Bft) W-SW 258 0 min 0,000 mm 0,0 UV-I 0 W/m 7,8 C 10,0 C 14,5 km/h (3 Bft) 97,44 %
03.11.2017 02:32 10,3 C 7,8 C 84 % 1015,4 hPa 0,0 l/m 9,4 km/h (2 Bft) W-SW 257 0 min 0,000 mm 0,0 UV-I 0 W/m 7,7 C 8,3 C 14,5 km/h (3 Bft) 94,74 %
03.11.2017 02:34 10,3 C 7,8 C 84 % 1015,5 hPa 0,0 l/m 8,7 km/h (2 Bft) W 260 0 min 0,000 mm 0,0 UV-I 0 W/m 7,7 C 8,7 C 12,9 km/h (3 Bft) 98,39 %
03.11.2017 02:36 10,3 C 7,8 C 84 % 1015,5 hPa 0,0 l/m 7,6 km/h (2 Bft) W 277 0 min 0,000 mm 0,0 UV-I 0 W/m 7,7 C 9,4 C 12,9 km/h (3 Bft) 97,87 %
03.11.2017 02:38 10,2 C 7,8 C 85 % 1015,5 hPa 0,0 l/m 9,0 km/h (2 Bft) W-SW 250 0 min 0,000 mm 0,0 UV-I 0 W/m 7,8 C 8,4 C 12,9 km/h (3 Bft) 97,56 %
03.11.2017 02:40 10,2 C 7,8 C 85 % 1015,5 hPa 0,0 l/m 6,8 km/h (2 Bft) W-SW 254 0 min 0,000 mm 0,0 UV-I 0 W/m 7,8 C 9,9 C 11,3 km/h (2 Bft) 97,37 %
03.11.2017 02:42 10,2 C 7,8 C 85 % 1015,6 hPa 0,0 l/m 7,4 km/h (2 Bft) W-SW 254 0 min 0,000 mm 0,0 UV-I 0 W/m 7,8 C 9,5 C 11,3 km/h (2 Bft) 98,11 %
03.11.2017 02:44 10,3 C 7,8 C 85 % 1015,6 hPa 0,0 l/m 9,3 km/h (2 Bft) W-SW 243 0 min 0,000 mm 0,0 UV-I 0 W/m 7,9 C 8,3 C 14,5 km/h (3 Bft) 94,64 %
03.11.2017 02:46 10,3 C 7,8 C 85 % 1015,6 hPa 0,0 l/m 8,0 km/h (2 Bft) W-SW 244 0 min 0,000 mm 0,0 UV-I 0 W/m 7,9 C 9,2 C 11,3 km/h (2 Bft) 95,45 %
03.11.2017 02:48 10,2 C 7,8 C 85 % 1015,7 hPa 0,0 l/m 5,7 km/h (1 Bft) W-SW 257 0 min 0,000 mm 0,0 UV-I 0 W/m 7,8 C 10,2 C 9,7 km/h (2 Bft) 100,00 %
03.11.2017 02:50 10,2 C 7,8 C 85 % 1015,6 hPa 0,0 l/m 8,1 km/h (2 Bft) W 261 0 min 0,000 mm 0,0 UV-I 0 W/m 7,8 C 9,0 C 12,9 km/h (3 Bft) 93,62 %
03.11.2017 02:52 10,2 C 7,8 C 85 % 1015,6 hPa 0,0 l/m 8,2 km/h (2 Bft) W-SW 247 0 min 0,000 mm 0,0 UV-I 0 W/m 7,8 C 8,9 C 12,9 km/h (3 Bft) 100,00 %
03.11.2017 02:54 10,2 C 7,8 C 85 % 1015,6 hPa 0,0 l/m 6,4 km/h (2 Bft) W-SW 248 0 min 0,000 mm 0,0 UV-I 0 W/m 7,8 C 10,2 C 9,7 km/h (2 Bft) 100,00 %
03.11.2017 02:56 10,1 C 7,8 C 85 % 1015,7 hPa 0,0 l/m 9,0 km/h (2 Bft) W-SW 250 0 min 0,000 mm 0,0 UV-I 0 W/m 7,7 C 8,3 C 14,5 km/h (3 Bft) 100,00 %
03.11.2017 02:58 10,1 C 7,8 C 85 % 1015,7 hPa 0,0 l/m 8,8 km/h (2 Bft) W 259 0 min 0,000 mm 0,0 UV-I 0 W/m 7,7 C 8,4 C 14,5 km/h (3 Bft) 100,00 %
03.11.2017 03:00 10,2 C 7,8 C 85 % 1015,7 hPa 0,0 l/m 9,4 km/h (2 Bft) W-SW 254 0 min 0,000 mm 0,0 UV-I 0 W/m 7,8 C 8,2 C 14,5 km/h (3 Bft) 100,00 %
03.11.2017 03:02 10,2 C 7,8 C 85 % 1015,6 hPa 0,0 l/m 6,4 km/h (2 Bft) SW 235 0 min 0,025 mm 0,0 UV-I 0 W/m 7,8 C 10,2 C 8,0 km/h (2 Bft) 100,00 %
03.11.2017 03:04 10,2 C 7,8 C 85 % 1015,6 hPa 0,0 l/m 6,4 km/h (2 Bft) W-SW 248 0 min 0,000 mm 0,0 UV-I 0 W/m 7,8 C 10,2 C 9,7 km/h (2 Bft) 100,00 %
03.11.2017 03:06 10,1 C 7,8 C 85 % 1015,7 hPa 0,0 l/m 7,5 km/h (2 Bft) W-SW 257 0 min 0,000 mm 0,0 UV-I 0 W/m 7,7 C 9,3 C 11,3 km/h (2 Bft) 100,00 %
03.11.2017 03:08 10,1 C 7,8 C 85 % 1015,6 hPa 0,0 l/m 7,6 km/h (2 Bft) W-SW 253 0 min 0,000 mm 0,0 UV-I 0 W/m 7,7 C 9,2 C 11,3 km/h (2 Bft) 95,74 %
03.11.2017 03:10 10,0 C 7,8 C 85 % 1015,6 hPa 0,0 l/m 4,2 km/h (1 Bft) W 265 0 min 0,000 mm 0,0 UV-I 0 W/m 7,6 C 10,0 C 6,4 km/h (2 Bft) 100,00 %
03.11.2017 03:12 10,0 C 7,8 C 86 % 1015,6 hPa 0,0 l/m 5,1 km/h (1 Bft) W-SW 246 0 min 0,000 mm 0,0 UV-I 0 W/m 7,8 C 10,0 C 8,0 km/h (2 Bft) 100,00 %
03.11.2017 03:14 10,1 C 7,8 C 86 % 1015,6 hPa 0,0 l/m 5,3 km/h (1 Bft) W-SW 255 0 min 0,000 mm 0,0 UV-I 0 W/m 7,9 C 10,1 C 6,4 km/h (2 Bft) 100,00 %
03.11.2017 03:16 10,1 C 7,8 C 85 % 1015,7 hPa 0,0 l/m 6,0 km/h (2 Bft) W-SW 241 0 min 0,000 mm 0,0 UV-I 0 W/m 7,7 C 10,1 C 8,0 km/h (2 Bft) 100,00 %
03.11.2017 03:19 10,1 C 7,8 C 85 % 1015,7 hPa 0,0 l/m 6,7 km/h (2 Bft) W-SW 240 0 min 0,000 mm 0,0 UV-I 0 W/m 7,7 C 9,9 C 12,9 km/h (3 Bft) 100,00 %
03.11.2017 03:20 10,1 C 7,8 C 85 % 1015,7 hPa 0,0 l/m 7,7 km/h (2 Bft) SW 224 0 min 0,000 mm 0,0 UV-I 0 W/m 7,7 C 9,2 C 11,3 km/h (2 Bft) 100,00 %
03.11.2017 03:22 10,1 C 7,8 C 85 % 1015,7 hPa 0,0 l/m 7,7 km/h (2 Bft) W-SW 247 0 min 0,000 mm 0,0 UV-I 0 W/m 7,7 C 9,2 C 11,3 km/h (2 Bft) 100,00 %
03.11.2017 03:24 10,0 C 7,8 C 86 % 1015,7 hPa 0,0 l/m 5,8 km/h (2 Bft) SW 230 0 min 0,000 mm 0,0 UV-I 0 W/m 7,8 C 10,0 C 9,7 km/h (2 Bft) 100,00 %
03.11.2017 03:26 10,0 C 7,8 C 86 % 1015,7 hPa 0,0 l/m 5,3 km/h (1 Bft) SW 228 0 min 0,000 mm 0,0 UV-I 0 W/m 7,8 C 10,0 C 8,0 km/h (2 Bft) 100,00 %
03.11.2017 03:29 10,0 C 7,8 C 86 % 1015,6 hPa 0,0 l/m 5,1 km/h (1 Bft) W-SW 257 0 min 0,000 mm 0,0 UV-I 0 W/m 7,8 C 10,0 C 8,0 km/h (2 Bft) 100,00 %
03.11.2017 03:30 10,0 C 7,8 C 86 % 1015,6 hPa 0,0 l/m 3,8 km/h (1 Bft) W-SW 257 0 min 0,000 mm 0,0 UV-I 0 W/m 7,8 C 10,0 C 4,8 km/h (1 Bft) 100,00 %
03.11.2017 03:32 10,0 C 7,8 C 86 % 1015,6 hPa 0,0 l/m 4,5 km/h (1 Bft) W-SW 249 0 min 0,000 mm 0,0 UV-I 0 W/m 7,8 C 10,0 C 6,4 km/h (2 Bft) 100,00 %
03.11.2017 03:34 10,0 C 7,8 C 86 % 1015,6 hPa 0,0 l/m 5,3 km/h (1 Bft) W-SW 252 0 min 0,000 mm 0,0 UV-I 0 W/m 7,8 C 10,0 C 6,4 km/h (2 Bft) 100,00 %
03.11.2017 03:36 9,9 C 7,8 C 86 % 1015,6 hPa 0,0 l/m 5,0 km/h (1 Bft) W-SW 251 0 min 0,000 mm 0,0 UV-I 0 W/m 7,7 C 9,9 C 6,4 km/h (2 Bft) 100,00 %
03.11.2017 03:38 9,9 C 7,8 C 86 % 1015,6 hPa 0,0 l/m 5,4 km/h (1 Bft) W-SW 257 0 min 0,000 mm 0,0 UV-I 0 W/m 7,7 C 9,9 C 8,0 km/h (2 Bft) 97,87 %
03.11.2017 03:40 9,9 C 7,8 C 86 % 1015,7 hPa 0,0 l/m 5,0 km/h (1 Bft) W-SW 252 0 min 0,000 mm 0,0 UV-I 0 W/m 7,7 C 9,9 C 8,0 km/h (2 Bft) 100,00 %
03.11.2017 03:42 9,9 C 7,8 C 86 % 1015,8 hPa 0,0 l/m 6,3 km/h (2 Bft) W-SW 248 0 min 0,000 mm 0,0 UV-I 0 W/m 7,7 C 9,9 C 9,7 km/h (2 Bft) 95,45 %
03.11.2017 03:44 9,9 C 7,8 C 86 % 1015,7 hPa 0,0 l/m 8,6 km/h (2 Bft) W-SW 250 0 min 0,000 mm 0,0 UV-I 0 W/m 7,7 C 8,3 C 12,9 km/h (3 Bft) 98,11 %
03.11.2017 03:46 9,9 C 7,8 C 86 % 1015,7 hPa 0,0 l/m 6,1 km/h (2 Bft) W-SW 246 0 min 0,000 mm 0,0 UV-I 0 W/m 7,7 C 9,9 C 11,3 km/h (2 Bft) 96,00 %
03.11.2017 03:48 9,9 C 7,8 C 86 % 1015,7 hPa 0,0 l/m 5,1 km/h (1 Bft) W-SW 248 0 min 0,000 mm 0,0 UV-I 0 W/m 7,7 C 9,9 C 8,0 km/h (2 Bft) 97,87 %
03.11.2017 03:50 9,9 C 7,8 C 87 % 1015,7 hPa 0,0 l/m 6,4 km/h (2 Bft) W-SW 254 0 min 0,000 mm 0,0 UV-I 0 W/m 7,8 C 9,9 C 12,9 km/h (3 Bft) 97,56 %
03.11.2017 03:52 9,8 C 7,8 C 87 % 1015,7 hPa 0,0 l/m 5,9 km/h (2 Bft) W-SW 255 0 min 0,000 mm 0,0 UV-I 0 W/m 7,7 C 9,8 C 8,0 km/h (2 Bft) 98,00 %
03.11.2017 03:54 9,8 C 7,8 C 87 % 1015,6 hPa 0,0 l/m 5,4 km/h (1 Bft) W 272 0 min 0,000 mm 0,0 UV-I 0 W/m 7,7 C 9,8 C 8,0 km/h (2 Bft) 98,00 %
03.11.2017 03:56 9,8 C 7,8 C 87 % 1015,7 hPa 0,0 l/m 6,3 km/h (2 Bft) W-SW 250 0 min 0,000 mm 0,0 UV-I 0 W/m 7,7 C 9,8 C 9,7 km/h (2 Bft) 97,44 %
03.11.2017 03:58 9,8 C 7,8 C 87 % 1015,7 hPa 0,0 l/m 6,5 km/h (2 Bft) W-SW 258 0 min 0,000 mm 0,0 UV-I 0 W/m 7,7 C 9,8 C 9,7 km/h (2 Bft) 98,11 %
03.11.2017 04:00 9,8 C 7,8 C 87 % 1015,7 hPa 0,0 l/m 8,4 km/h (2 Bft) W-SW 255 0 min 0,000 mm 0,0 UV-I 0 W/m 7,7 C 8,4 C 14,5 km/h (3 Bft) 97,56 %
03.11.2017 04:04 9,8 C 7,8 C 87 % 1015,7 hPa 0,0 l/m 7,3 km/h (2 Bft) W-SW 252 0 min 0,000 mm 0,0 UV-I 0 W/m 7,7 C 9,1 C 11,3 km/h (2 Bft) 97,73 %
03.11.2017 04:06 9,8 C 7,8 C 87 % 1015,7 hPa 0,0 l/m 9,6 km/h (2 Bft) W-SW 246 0 min 0,000 mm 0,0 UV-I 0 W/m 7,7 C 7,6 C 12,9 km/h (3 Bft) 97,56 %
03.11.2017 04:08 9,8 C 7,8 C 87 % 1015,8 hPa 0,0 l/m 9,9 km/h (2 Bft) W 259 0 min 0,000 mm 0,0 UV-I 0 W/m 7,7 C 7,4 C 12,9 km/h (3 Bft) 98,00 %
03.11.2017 04:10 9,8 C 7,8 C 87 % 1015,8 hPa 0,0 l/m 9,0 km/h (2 Bft) W-SW 250 0 min 0,000 mm 0,0 UV-I 0 W/m 7,7 C 8,0 C 14,5 km/h (3 Bft) 98,11 %
03.11.2017 04:12 9,8 C 7,8 C 87 % 1015,8 hPa 0,0 l/m 8,4 km/h (2 Bft) W-SW 247 0 min 0,000 mm 0,0 UV-I 0 W/m 7,7 C 8,4 C 16,1 km/h (3 Bft) 97,14 %
03.11.2017 04:14 9,8 C 7,8 C 87 % 1015,8 hPa 0,0 l/m 9,6 km/h (2 Bft) W 259 0 min 0,000 mm 0,0 UV-I 0 W/m 7,7 C 7,6 C 14,5 km/h (3 Bft) 96,43 %
03.11.2017 04:16 9,9 C 7,8 C 87 % 1015,8 hPa 0,0 l/m 7,7 km/h (2 Bft) W-SW 248 0 min 0,000 mm 0,0 UV-I 0 W/m 7,8 C 9,0 C 14,5 km/h (3 Bft) 95,74 %
03.11.2017 04:18 9,9 C 7,8 C 87 % 1015,8 hPa 0,0 l/m 7,4 km/h (2 Bft) W-SW 256 0 min 0,000 mm 0,0 UV-I 0 W/m 7,8 C 9,2 C 11,3 km/h (2 Bft) 98,00 %
03.11.2017 04:20 9,9 C 7,8 C 86 % 1015,8 hPa 0,0 l/m 8,6 km/h (2 Bft) W-SW 250 0 min 0,000 mm 0,0 UV-I 0 W/m 7,7 C 8,3 C 12,9 km/h (3 Bft) 100,00 %
03.11.2017 04:22 9,9 C 7,8 C 87 % 1015,7 hPa 0,0 l/m 10,6 km/h (2 Bft) SW 234 0 min 0,000 mm 0,0 UV-I 0 W/m 7,8 C 7,1 C 14,5 km/h (3 Bft) 96,00 %
03.11.2017 04:24 9,9 C 7,8 C 86 % 1015,7 hPa 0,0 l/m 6,1 km/h (2 Bft) W-SW 248 0 min 0,000 mm 0,0 UV-I 0 W/m 7,7 C 9,9 C 8,0 km/h (2 Bft) 100,00 %
03.11.2017 04:26 9,9 C 7,8 C 86 % 1015,7 hPa 0,0 l/m 7,8 km/h (2 Bft) W-SW 252 0 min 0,000 mm 0,0 UV-I 0 W/m 7,7 C 8,9 C 11,3 km/h (2 Bft) 98,11 %
03.11.2017 04:28 9,8 C 7,8 C 87 % 1015,7 hPa 0,0 l/m 8,7 km/h (2 Bft) W-SW 252 0 min 0,000 mm 0,0 UV-I 0 W/m 7,7 C 8,2 C 12,9 km/h (3 Bft) 100,00 %
03.11.2017 04:30 9,8 C 7,8 C 87 % 1015,8 hPa 0,0 l/m 7,7 km/h (2 Bft) W-SW 254 0 min 0,000 mm 0,0 UV-I 0 W/m 7,7 C 8,9 C 11,3 km/h (2 Bft) 100,00 %
03.11.2017 04:32 9,8 C 7,8 C 87 % 1015,8 hPa 0,0 l/m 8,8 km/h (2 Bft) W-SW 250 0 min 0,000 mm 0,0 UV-I 0 W/m 7,7 C 8,1 C 12,9 km/h (3 Bft) 100,00 %
03.11.2017 04:34 9,8 C 7,8 C 87 % 1015,8 hPa 0,0 l/m 7,2 km/h (2 Bft) W 269 0 min 0,000 mm 0,0 UV-I 0 W/m 7,7 C 9,2 C 12,9 km/h (3 Bft) 100,00 %
03.11.2017 04:36 9,8 C 7,8 C 87 % 1015,8 hPa 0,0 l/m 10,1 km/h (2 Bft) W 269 0 min 0,000 mm 0,0 UV-I 0 W/m 7,7 C 7,3 C 14,5 km/h (3 Bft) 100,00 %
03.11.2017 04:38 9,8 C 7,8 C 87 % 1015,8 hPa 0,0 l/m 9,1 km/h (2 Bft) W-SW 250 0 min 0,000 mm 0,0 UV-I 0 W/m 7,7 C 7,9 C 12,9 km/h (3 Bft) 100,00 %
03.11.2017 04:40 9,8 C 7,8 C 87 % 1015,8 hPa 0,0 l/m 9,6 km/h (2 Bft) SW 234 0 min 0,000 mm 0,0 UV-I 0 W/m 7,7 C 7,6 C 14,5 km/h (3 Bft) 100,00 %
03.11.2017 04:42 9,8 C 7,8 C 87 % 1015,8 hPa 0,0 l/m 9,0 km/h (2 Bft) W-SW 250 0 min 0,000 mm 0,0 UV-I 0 W/m 7,7 C 8,0 C 14,5 km/h (3 Bft) 98,21 %
03.11.2017 04:44 9,9 C 7,8 C 87 % 1015,8 hPa 0,0 l/m 9,3 km/h (2 Bft) W-SW 248 0 min 0,000 mm 0,0 UV-I 0 W/m 7,8 C 7,9 C 14,5 km/h (3 Bft) 100,00 %
03.11.2017 04:46 9,9 C 7,8 C 87 % 1015,8 hPa 0,0 l/m 5,7 km/h (1 Bft) W-SW 251 0 min 0,000 mm 0,0 UV-I 0 W/m 7,8 C 9,9 C 8,0 km/h (2 Bft) 100,00 %
03.11.2017 04:48 9,8 C 7,8 C 87 % 1015,8 hPa 0,0 l/m 6,8 km/h (2 Bft) W 263 0 min 0,000 mm 0,0 UV-I 0 W/m 7,7 C 9,5 C 11,3 km/h (2 Bft) 100,00 %
03.11.2017 04:50 9,9 C 7,8 C 87 % 1015,8 hPa 0,0 l/m 12,0 km/h (2 Bft) W-SW 248 0 min 0,000 mm 0,0 UV-I 0 W/m 7,8 C 6,4 C 17,7 km/h (3 Bft) 100,00 %
03.11.2017 04:52 9,9 C 7,8 C 86 % 1015,9 hPa 0,0 l/m 6,5 km/h (2 Bft) W-SW 254 0 min 0,000 mm 0,0 UV-I 0 W/m 7,7 C 9,9 C 11,3 km/h (2 Bft) 100,00 %
03.11.2017 04:54 9,9 C 7,8 C 86 % 1015,9 hPa 0,0 l/m 6,4 km/h (2 Bft) W 261 0 min 0,000 mm 0,0 UV-I 0 W/m 7,7 C 9,9 C 11,3 km/h (2 Bft) 100,00 %
03.11.2017 04:56 9,9 C 7,8 C 86 % 1016,0 hPa 0,0 l/m 7,0 km/h (2 Bft) W-SW 248 0 min 0,000 mm 0,0 UV-I 0 W/m 7,7 C 9,5 C 12,9 km/h (3 Bft) 100,00 %
03.11.2017 04:58 9,8 C 7,8 C 87 % 1016,1 hPa 0,0 l/m 6,4 km/h (2 Bft) W-SW 258 0 min 0,000 mm 0,0 UV-I 0 W/m 7,7 C 9,8 C 11,3 km/h (2 Bft) 100,00 %
03.11.2017 05:00 9,8 C 7,8 C 87 % 1016,1 hPa 0,0 l/m 7,1 km/h (2 Bft) W-SW 257 0 min 0,026 mm 0,0 UV-I 0 W/m 7,7 C 9,3 C 12,9 km/h (3 Bft) 100,00 %
03.11.2017 05:02 9,8 C 7,8 C 87 % 1016,1 hPa 0,0 l/m 6,4 km/h (2 Bft) W-SW 244 0 min 0,000 mm 0,0 UV-I 0 W/m 7,7 C 9,8 C 11,3 km/h (2 Bft) 97,87 %
03.11.2017 05:04 9,8 C 7,8 C 87 % 1016,1 hPa 0,0 l/m 11,5 km/h (2 Bft) W 263 0 min 0,000 mm 0,0 UV-I 0 W/m 7,7 C 6,5 C 17,7 km/h (3 Bft) 96,00 %
03.11.2017 05:06 9,8 C 7,8 C 87 % 1016,1 hPa 0,0 l/m 9,1 km/h (2 Bft) W 263 0 min 0,000 mm 0,0 UV-I 0 W/m 7,7 C 7,9 C 14,5 km/h (3 Bft) 100,00 %
03.11.2017 05:08 9,9 C 7,8 C 87 % 1016,1 hPa 0,0 l/m 7,8 km/h (2 Bft) W-SW 258 0 min 0,000 mm 0,0 UV-I 0 W/m 7,8 C 8,9 C 14,5 km/h (3 Bft) 100,00 %
03.11.2017 05:10 9,9 C 7,8 C 87 % 1016,1 hPa 0,0 l/m 9,4 km/h (2 Bft) W-SW 250 0 min 0,000 mm 0,0 UV-I 0 W/m 7,8 C 7,8 C 12,9 km/h (3 Bft) 98,08 %
03.11.2017 05:12 9,9 C 7,8 C 87 % 1016,1 hPa 0,0 l/m 7,9 km/h (2 Bft) W-SW 238 0 min 0,000 mm 0,0 UV-I 0 W/m 7,8 C 8,8 C 12,9 km/h (3 Bft) 100,00 %
03.11.2017 05:14 9,9 C 7,8 C 87 % 1016,1 hPa 0,0 l/m 8,4 km/h (2 Bft) SW 231 0 min 0,000 mm 0,0 UV-I 0 W/m 7,8 C 8,5 C 12,9 km/h (3 Bft) 100,00 %
03.11.2017 05:16 9,9 C 7,8 C 87 % 1016,1 hPa 0,0 l/m 8,5 km/h (2 Bft) W-SW 250 0 min 0,000 mm 0,0 UV-I 0 W/m 7,8 C 8,4 C 12,9 km/h (3 Bft) 100,00 %
03.11.2017 05:18 9,8 C 7,8 C 87 % 1016,1 hPa 0,0 l/m 7,8 km/h (2 Bft) W-SW 253 0 min 0,000 mm 0,0 UV-I 0 W/m 7,7 C 8,8 C 11,3 km/h (2 Bft) 98,00 %
03.11.2017 05:20 9,8 C 7,8 C 87 % 1016,1 hPa 0,0 l/m 8,3 km/h (2 Bft) W 263 0 min 0,000 mm 0,0 UV-I 0 W/m 7,7 C 8,4 C 14,5 km/h (3 Bft) 100,00 %
03.11.2017 05:22 9,8 C 7,8 C 87 % 1016,1 hPa 0,0 l/m 7,8 km/h (2 Bft) W-SW 254 0 min 0,000 mm 0,0 UV-I 0 W/m 7,7 C 8,8 C 12,9 km/h (3 Bft) 100,00 %
03.11.2017 05:24 9,8 C 7,8 C 87 % 1016,1 hPa 0,0 l/m 10,3 km/h (2 Bft) W-SW 243 0 min 0,000 mm 0,0 UV-I 0 W/m 7,7 C 7,2 C 16,1 km/h (3 Bft) 100,00 %
03.11.2017 05:26 9,8 C 7,8 C 87 % 1016,1 hPa 0,0 l/m 7,8 km/h (2 Bft) W 265 0 min 0,000 mm 0,0 UV-I 0 W/m 7,7 C 8,8 C 11,3 km/h (2 Bft) 100,00 %
03.11.2017 05:28 9,8 C 7,8 C 87 % 1016,2 hPa 0,0 l/m 9,1 km/h (2 Bft) W-NW 284 0 min 0,000 mm 0,0 UV-I 0 W/m 7,7 C 7,9 C 12,9 km/h (3 Bft) 100,00 %
03.11.2017 05:30 9,8 C 7,8 C 87 % 1016,2 hPa 0,0 l/m 7,2 km/h (2 Bft) W-SW 255 0 min 0,000 mm 0,0 UV-I 0 W/m 7,7 C 9,2 C 11,3 km/h (2 Bft) 100,00 %
03.11.2017 05:32 9,8 C 7,8 C 87 % 1016,2 hPa 0,0 l/m 7,2 km/h (2 Bft) W-SW 242 0 min 0,000 mm 0,0 UV-I 0 W/m 7,7 C 9,2 C 11,3 km/h (2 Bft) 100,00 %
03.11.2017 05:34 9,8 C 7,8 C 87 % 1016,2 hPa 0,0 l/m 5,7 km/h (1 Bft) W-SW 242 0 min 0,000 mm 0,0 UV-I 0 W/m 7,7 C 9,8 C 8,0 km/h (2 Bft) 98,00 %
03.11.2017 05:36 9,7 C 7,8 C 88 % 1016,2 hPa 0,0 l/m 6,8 km/h (2 Bft) W-SW 238 0 min 0,000 mm 0,0 UV-I 0 W/m 7,8 C 9,4 C 9,7 km/h (2 Bft) 100,00 %
03.11.2017 05:38 9,8 C 7,8 C 87 % 1016,2 hPa 0,0 l/m 8,7 km/h (2 Bft) W-SW 253 0 min 0,000 mm 0,0 UV-I 0 W/m 7,7 C 8,2 C 12,9 km/h (3 Bft) 100,00 %
03.11.2017 05:40 9,8 C 7,8 C 87 % 1016,2 hPa 0,0 l/m 6,5 km/h (2 Bft) SW 229 0 min 0,000 mm 0,0 UV-I 0 W/m 7,7 C 9,8 C 9,7 km/h (2 Bft) 100,00 %
03.11.2017 05:42 9,7 C 7,8 C 87 % 1016,2 hPa 0,0 l/m 7,3 km/h (2 Bft) W-SW 242 0 min 0,000 mm 0,0 UV-I 0 W/m 7,6 C 9,0 C 11,3 km/h (2 Bft) 100,00 %
03.11.2017 05:44 9,7 C 7,8 C 88 % 1016,1 hPa 0,0 l/m 9,0 km/h (2 Bft) SW 219 0 min 0,000 mm 0,0 UV-I 0 W/m 7,8 C 7,9 C 14,5 km/h (3 Bft) 96,30 %
03.11.2017 05:46 9,7 C 7,8 C 88 % 1016,1 hPa 0,0 l/m 6,8 km/h (2 Bft) SW 228 0 min 0,000 mm 0,0 UV-I 0 W/m 7,8 C 9,4 C 9,7 km/h (2 Bft) 98,44 %
03.11.2017 05:48 9,7 C 7,8 C 88 % 1016,0 hPa 0,0 l/m 6,9 km/h (2 Bft) SW 226 0 min 0,000 mm 0,0 UV-I 0 W/m 7,8 C 9,3 C 9,7 km/h (2 Bft) 97,78 %
03.11.2017 05:50 9,7 C 7,8 C 88 % 1015,9 hPa 0,0 l/m 7,4 km/h (2 Bft) SW 227 0 min 0,000 mm 0,0 UV-I 0 W/m 7,8 C 9,0 C 9,7 km/h (2 Bft) 92,73 %
03.11.2017 05:52 9,7 C 7,8 C 88 % 1016,0 hPa 0,0 l/m 9,1 km/h (2 Bft) SW 236 0 min 0,000 mm 0,0 UV-I 0 W/m 7,8 C 7,8 C 12,9 km/h (3 Bft) 92,86 %
03.11.2017 05:54 9,7 C 7,8 C 88 % 1016,0 hPa 0,0 l/m 7,1 km/h (2 Bft) W-SW 251 0 min 0,000 mm 0,0 UV-I 0 W/m 7,8 C 9,2 C 11,3 km/h (2 Bft) 96,15 %
03.11.2017 05:56 9,6 C 7,8 C 88 % 1016,1 hPa 0,0 l/m 6,7 km/h (2 Bft) SW 235 0 min 0,000 mm 0,0 UV-I 0 W/m 7,7 C 9,4 C 11,3 km/h (2 Bft) 93,33 %
03.11.2017 05:58 9,5 C 7,8 C 88 % 1016,1 hPa 0,0 l/m 7,7 km/h (2 Bft) W 263 0 min 0,000 mm 0,0 UV-I 0 W/m 7,6 C 8,5 C 14,5 km/h (3 Bft) 95,12 %
03.11.2017 06:00 9,4 C 7,8 C 88 % 1016,2 hPa 0,0 l/m 6,9 km/h (2 Bft) W-SW 250 0 min 0,025 mm 0,0 UV-I 0 W/m 7,5 C 9,0 C 11,3 km/h (2 Bft) 96,23 %
03.11.2017 06:02 9,4 C 7,8 C 89 % 1016,2 hPa 0,0 l/m 8,1 km/h (2 Bft) SW 224 0 min 0,000 mm 0,0 UV-I 0 W/m 7,7 C 8,2 C 14,5 km/h (3 Bft) 95,12 %
03.11.2017 06:04 9,4 C 7,8 C 89 % 1016,2 hPa 0,0 l/m 7,6 km/h (2 Bft) SW 232 0 min 0,000 mm 0,0 UV-I 0 W/m 7,7 C 8,5 C 9,7 km/h (2 Bft) 94,64 %
03.11.2017 06:06 9,4 C 7,8 C 89 % 1016,2 hPa 0,0 l/m 7,8 km/h (2 Bft) W-SW 254 0 min 0,000 mm 0,0 UV-I 0 W/m 7,7 C 8,4 C 11,3 km/h (2 Bft) 95,12 %
03.11.2017 06:08 9,4 C 7,8 C 89 % 1016,3 hPa 0,0 l/m 7,8 km/h (2 Bft) W 273 0 min 0,000 mm 0,0 UV-I 0 W/m 7,7 C 8,4 C 11,3 km/h (2 Bft) 94,00 %
03.11.2017 06:10 9,4 C 7,8 C 89 % 1016,3 hPa 0,0 l/m 7,7 km/h (2 Bft) W-SW 243 0 min 0,000 mm 0,0 UV-I 0 W/m 7,7 C 8,4 C 11,3 km/h (2 Bft) 92,68 %
03.11.2017 06:12 9,3 C 7,8 C 89 % 1016,3 hPa 0,0 l/m 7,6 km/h (2 Bft) W-SW 238 0 min 0,000 mm 0,0 UV-I 0 W/m 7,6 C 8,4 C 11,3 km/h (2 Bft) 96,00 %
03.11.2017 06:14 9,3 C 7,8 C 89 % 1016,3 hPa 0,0 l/m 6,0 km/h (2 Bft) W-SW 247 0 min 0,000 mm 0,0 UV-I 0 W/m 7,6 C 9,3 C 9,7 km/h (2 Bft) 92,68 %
03.11.2017 06:16 9,3 C 7,8 C 89 % 1016,3 hPa 0,0 l/m 5,8 km/h (2 Bft) SW 230 0 min 0,000 mm 0,0 UV-I 0 W/m 7,6 C 9,3 C 8,0 km/h (2 Bft) 95,74 %
03.11.2017 06:18 9,4 C 7,8 C 89 % 1016,3 hPa 0,0 l/m 8,7 km/h (2 Bft) SW 235 0 min 0,000 mm 0,0 UV-I 0 W/m 7,7 C 7,7 C 17,7 km/h (3 Bft) 93,62 %
03.11.2017 06:20 9,4 C 7,8 C 89 % 1016,2 hPa 0,0 l/m 8,0 km/h (2 Bft) SW 222 0 min 0,000 mm 0,0 UV-I 0 W/m 7,7 C 8,2 C 11,3 km/h (2 Bft) 96,23 %
03.11.2017 06:22 9,4 C 7,8 C 89 % 1016,3 hPa 0,0 l/m 6,9 km/h (2 Bft) W-SW 246 0 min 0,000 mm 0,0 UV-I 0 W/m 7,7 C 9,0 C 9,7 km/h (2 Bft) 94,00 %
03.11.2017 06:24 9,4 C 7,8 C 89 % 1016,3 hPa 0,0 l/m 7,2 km/h (2 Bft) SW 227 0 min 0,000 mm 0,0 UV-I 0 W/m 7,7 C 8,8 C 12,9 km/h (3 Bft) 97,56 %
03.11.2017 06:26 9,4 C 7,8 C 89 % 1016,3 hPa 0,0 l/m 7,7 km/h (2 Bft) SW 224 0 min 0,000 mm 0,0 UV-I 0 W/m 7,7 C 8,4 C 12,9 km/h (3 Bft) 96,23 %
03.11.2017 06:28 9,4 C 7,8 C 89 % 1016,3 hPa 0,0 l/m 6,8 km/h (2 Bft) SW 232 0 min 0,000 mm 0,0 UV-I 0 W/m 7,7 C 9,1 C 9,7 km/h (2 Bft) 97,44 %
03.11.2017 06:30 9,4 C 7,8 C 89 % 1016,3 hPa 0,0 l/m 7,8 km/h (2 Bft) W-SW 244 0 min 0,000 mm 0,0 UV-I 0 W/m 7,7 C 8,4 C 12,9 km/h (3 Bft) 97,73 %
03.11.2017 06:32 9,4 C 7,8 C 89 % 1016,3 hPa 0,0 l/m 7,7 km/h (2 Bft) SW 214 0 min 0,000 mm 0,0 UV-I 0 W/m 7,7 C 8,4 C 9,7 km/h (2 Bft) 98,11 %
03.11.2017 06:34 9,4 C 7,8 C 89 % 1016,3 hPa 0,0 l/m 7,1 km/h (2 Bft) S-SW 207 0 min 0,000 mm 0,0 UV-I 0 W/m 7,7 C 8,9 C 11,3 km/h (2 Bft) 94,00 %
03.11.2017 06:36 9,5 C 7,8 C 89 % 1016,3 hPa 0,0 l/m 7,9 km/h (2 Bft) SW 235 0 min 0,000 mm 0,0 UV-I 0 W/m 7,8 C 8,4 C 12,9 km/h (3 Bft) 97,56 %
03.11.2017 06:38 9,4 C 7,8 C 88 % 1016,3 hPa 0,0 l/m 8,3 km/h (2 Bft) SW 223 0 min 0,000 mm 0,0 UV-I 0 W/m 7,5 C 8,0 C 11,3 km/h (2 Bft) 96,23 %
03.11.2017 06:40 9,4 C 7,8 C 89 % 1016,4 hPa 0,0 l/m 7,4 km/h (2 Bft) SW 234 0 min 0,000 mm 0,0 UV-I 0 W/m 7,7 C 8,7 C 12,9 km/h (3 Bft) 95,12 %
03.11.2017 06:42 9,4 C 7,8 C 89 % 1016,4 hPa 0,0 l/m 7,1 km/h (2 Bft) W-SW 244 0 min 0,000 mm 0,0 UV-I 3 W/m 7,7 C 8,9 C 11,3 km/h (2 Bft) 97,87 %
03.11.2017 06:44 9,3 C 7,8 C 89 % 1016,5 hPa 0,0 l/m 6,9 km/h (2 Bft) W-SW 250 0 min 0,000 mm 0,0 UV-I 5 W/m 7,6 C 8,9 C 11,3 km/h (2 Bft) 98,00 %
03.11.2017 06:46 9,3 C 7,8 C 89 % 1016,5 hPa 0,0 l/m 6,0 km/h (2 Bft) SW 227 0 min 0,000 mm 0,0 UV-I 5 W/m 7,6 C 9,3 C 8,0 km/h (2 Bft) 98,00 %
03.11.2017 06:48 9,3 C 7,8 C 89 % 1016,5 hPa 0,0 l/m 8,4 km/h (2 Bft) SW 225 0 min 0,000 mm 0,0 UV-I 5 W/m 7,6 C 7,8 C 12,9 km/h (3 Bft) 97,14 %
03.11.2017 06:50 9,3 C 7,8 C 89 % 1016,4 hPa 0,0 l/m 8,7 km/h (2 Bft) SW 221 0 min 0,000 mm 0,0 UV-I 5 W/m 7,6 C 7,6 C 12,9 km/h (3 Bft) 98,00 %
03.11.2017 06:52 9,3 C 7,8 C 89 % 1016,5 hPa 0,0 l/m 8,0 km/h (2 Bft) SW 227 0 min 0,000 mm 0,0 UV-I 5 W/m 7,6 C 8,1 C 14,5 km/h (3 Bft) 98,21 %
03.11.2017 06:54 9,3 C 7,8 C 89 % 1016,5 hPa 0,0 l/m 7,0 km/h (2 Bft) SW 234 0 min 0,000 mm 0,0 UV-I 5 W/m 7,6 C 8,9 C 9,7 km/h (2 Bft) 100,00 %
03.11.2017 06:56 9,3 C 7,8 C 89 % 1016,5 hPa 0,0 l/m 7,4 km/h (2 Bft) SW 234 0 min 0,000 mm 0,0 UV-I 7 W/m 7,6 C 8,6 C 11,3 km/h (2 Bft) 98,39 %
03.11.2017 06:58 9,3 C 7,8 C 89 % 1016,6 hPa 0,0 l/m 8,3 km/h (2 Bft) SW 223 0 min 0,000 mm 0,0 UV-I 7 W/m 7,6 C 7,9 C 11,3 km/h (2 Bft) 100,00 %
03.11.2017 07:00 9,3 C 7,8 C 89 % 1016,6 hPa 0,0 l/m 9,2 km/h (2 Bft) SW 232 0 min 0,000 mm 0,0 UV-I 7 W/m 7,6 C 7,3 C 12,9 km/h (3 Bft) 100,00 %
03.11.2017 07:02 9,3 C 7,8 C 89 % 1016,6 hPa 0,0 l/m 8,6 km/h (2 Bft) W-SW 247 0 min 0,000 mm 0,0 UV-I 7 W/m 7,6 C 7,7 C 12,9 km/h (3 Bft) 100,00 %
03.11.2017 07:04 9,3 C 7,8 C 89 % 1016,6 hPa 0,0 l/m 7,6 km/h (2 Bft) SW 227 0 min 0,000 mm 0,0 UV-I 7 W/m 7,6 C 8,4 C 11,3 km/h (2 Bft) 100,00 %
03.11.2017 07:06 9,3 C 7,8 C 89 % 1016,7 hPa 0,0 l/m 6,3 km/h (2 Bft) W-SW 254 0 min 0,000 mm 0,0 UV-I 7 W/m 7,6 C 9,3 C 9,7 km/h (2 Bft) 100,00 %
03.11.2017 07:08 9,4 C 7,8 C 89 % 1016,7 hPa 0,0 l/m 6,4 km/h (2 Bft) W-SW 254 0 min 0,000 mm 0,0 UV-I 8 W/m 7,7 C 9,4 C 9,7 km/h (2 Bft) 100,00 %
03.11.2017 07:10 9,3 C 7,8 C 89 % 1016,8 hPa 0,0 l/m 5,3 km/h (1 Bft) W 275 0 min 0,000 mm 0,0 UV-I 10 W/m 7,6 C 9,3 C 9,7 km/h (2 Bft) 100,00 %
03.11.2017 07:12 9,3 C 7,8 C 89 % 1016,8 hPa 0,0 l/m 4,6 km/h (1 Bft) W 268 0 min 0,000 mm 0,0 UV-I 11 W/m 7,6 C 9,3 C 9,7 km/h (2 Bft) 100,00 %
03.11.2017 07:14 9,3 C 7,8 C 89 % 1016,8 hPa 0,0 l/m 3,4 km/h (1 Bft) W 268 0 min 0,000 mm 0,0 UV-I 11 W/m 7,6 C 9,3 C 4,8 km/h (1 Bft) 97,92 %
03.11.2017 07:16 9,3 C 7,8 C 89 % 1016,9 hPa 0,0 l/m 4,3 km/h (1 Bft) W 262 0 min 0,000 mm 0,0 UV-I 11 W/m 7,6 C 9,3 C 9,7 km/h (2 Bft) 100,00 %
03.11.2017 07:18 9,3 C 7,8 C 89 % 1016,8 hPa 0,0 l/m 4,5 km/h (1 Bft) W-NW 294 0 min 0,000 mm 0,0 UV-I 12 W/m 7,6 C 9,3 C 8,0 km/h (2 Bft) 100,00 %
03.11.2017 07:20 9,3 C 7,8 C 89 % 1016,9 hPa 0,0 l/m 4,3 km/h (1 Bft) W-NW 299 0 min 0,000 mm 0,0 UV-I 12 W/m 7,6 C 9,3 C 6,4 km/h (2 Bft) 100,00 %
03.11.2017 07:22 9,3 C 7,8 C 89 % 1016,9 hPa 0,0 l/m 2,2 km/h (1 Bft) W-NW 299 0 min 0,000 mm 0,0 UV-I 12 W/m 7,6 C 9,3 C 4,8 km/h (1 Bft) 100,00 %
03.11.2017 07:24 9,3 C 7,8 C 90 % 1016,9 hPa 0,0 l/m 1,9 km/h (1 Bft) W-NW 299 0 min 0,000 mm 0,0 UV-I 12 W/m 7,7 C 9,3 C 3,2 km/h (1 Bft) 100,00 %
03.11.2017 07:26 9,2 C 7,8 C 90 % 1017,0 hPa 0,0 l/m 2,3 km/h (1 Bft) W-NW 298 0 min 0,000 mm 0,0 UV-I 14 W/m 7,6 C 9,2 C 4,8 km/h (1 Bft) 97,37 %
03.11.2017 07:28 9,2 C 7,8 C 90 % 1017,1 hPa 0,0 l/m 3,8 km/h (1 Bft) W-NW 298 0 min 0,000 mm 0,0 UV-I 14 W/m 7,6 C 9,2 C 4,8 km/h (1 Bft) 97,87 %
03.11.2017 07:30 9,2 C 7,8 C 90 % 1017,1 hPa 0,0 l/m 4,4 km/h (1 Bft) W 279 0 min 0,000 mm 0,0 UV-I 14 W/m 7,6 C 9,2 C 6,4 km/h (2 Bft) 98,11 %
03.11.2017 07:32 9,1 C 7,8 C 90 % 1017,1 hPa 0,0 l/m 4,3 km/h (1 Bft) W 260 0 min 0,000 mm 0,0 UV-I 16 W/m 7,5 C 9,1 C 6,4 km/h (2 Bft) 100,00 %
03.11.2017 07:34 9,2 C 7,8 C 91 % 1017,2 hPa 0,0 l/m 4,7 km/h (1 Bft) W-NW 284 0 min 0,000 mm 0,0 UV-I 15 W/m 7,8 C 9,2 C 9,7 km/h (2 Bft) 97,37 %
03.11.2017 07:36 9,2 C 7,8 C 90 % 1017,2 hPa 0,0 l/m 4,4 km/h (1 Bft) W 273 0 min 0,000 mm 0,0 UV-I 14 W/m 7,6 C 9,2 C 6,4 km/h (2 Bft) 100,00 %
03.11.2017 07:38 9,3 C 7,8 C 90 % 1017,3 hPa 0,0 l/m 5,0 km/h (1 Bft) W 273 0 min 0,000 mm 0,0 UV-I 15 W/m 7,7 C 9,3 C 6,4 km/h (2 Bft) 100,00 %
03.11.2017 07:40 9,3 C 7,8 C 90 % 1017,3 hPa 0,0 l/m 4,8 km/h (1 Bft) W 271 0 min 0,000 mm 0,0 UV-I 15 W/m 7,7 C 9,3 C 6,4 km/h (2 Bft) 100,00 %
03.11.2017 07:42 9,4 C 7,8 C 90 % 1017,2 hPa 0,0 l/m 3,9 km/h (1 Bft) W 270 0 min 0,000 mm 0,0 UV-I 19 W/m 7,8 C 9,4 C 6,4 km/h (2 Bft) 100,00 %
03.11.2017 07:44 9,4 C 7,8 C 89 % 1017,2 hPa 0,0 l/m 2,8 km/h (1 Bft) W 270 0 min 0,000 mm 0,0 UV-I 25 W/m 7,7 C 9,4 C 4,8 km/h (1 Bft) 100,00 %
03.11.2017 07:46 9,5 C 7,8 C 89 % 1017,3 hPa 0,0 l/m 3,1 km/h (1 Bft) W 271 0 min 0,000 mm 0,0 UV-I 29 W/m 7,8 C 9,5 C 6,4 km/h (2 Bft) 97,87 %
03.11.2017 07:48 9,5 C 7,8 C 89 % 1017,3 hPa 0,0 l/m 3,3 km/h (1 Bft) W 271 0 min 0,000 mm 0,0 UV-I 25 W/m 7,8 C 9,5 C 4,8 km/h (1 Bft) 100,00 %
03.11.2017 07:50 9,5 C 7,8 C 89 % 1017,4 hPa 0,0 l/m 2,6 km/h (1 Bft) W 271 0 min 0,000 mm 0,0 UV-I 20 W/m 7,8 C 9,5 C 4,8 km/h (1 Bft) 100,00 %
03.11.2017 07:52 9,5 C 7,8 C 89 % 1017,4 hPa 0,0 l/m 2,8 km/h (1 Bft) W 271 0 min 0,000 mm 0,0 UV-I 23 W/m 7,8 C 9,5 C 4,8 km/h (1 Bft) 97,22 %
03.11.2017 07:54 9,5 C 7,8 C 89 % 1017,4 hPa 0,0 l/m 2,2 km/h (1 Bft) W 271 0 min 0,000 mm 0,0 UV-I 32 W/m 7,8 C 9,5 C 3,2 km/h (1 Bft) 98,21 %
03.11.2017 07:56 9,5 C 7,8 C 89 % 1017,4 hPa 0,0 l/m 2,6 km/h (1 Bft) W 271 0 min 0,000 mm 0,0 UV-I 38 W/m 7,8 C 9,5 C 4,8 km/h (1 Bft) 91,30 %
03.11.2017 07:58 9,4 C 7,8 C 89 % 1017,4 hPa 0,0 l/m 4,4 km/h (1 Bft) W 271 0 min 0,000 mm 0,0 UV-I 39 W/m 7,7 C 9,4 C 6,4 km/h (2 Bft) 96,92 %
03.11.2017 08:00 9,5 C 7,8 C 89 % 1017,4 hPa 0,0 l/m 1,8 km/h (1 Bft) W 271 0 min 0,025 mm 0,0 UV-I 37 W/m 7,8 C 9,5 C 3,2 km/h (1 Bft) 98,00 %
03.11.2017 08:02 9,5 C 7,8 C 89 % 1017,5 hPa 0,0 l/m 2,9 km/h (1 Bft) W 271 0 min 0,000 mm 0,0 UV-I 39 W/m 7,8 C 9,5 C 4,8 km/h (1 Bft) 95,74 %
03.11.2017 08:04 9,6 C 7,8 C 89 % 1017,6 hPa 0,0 l/m 3,3 km/h (1 Bft) W 271 0 min 0,000 mm 0,0 UV-I 37 W/m 7,9 C 9,6 C 4,8 km/h (1 Bft) 95,12 %
03.11.2017 08:06 9,6 C 7,8 C 89 % 1017,5 hPa 0,0 l/m 3,7 km/h (1 Bft) W 271 0 min 0,000 mm 0,0 UV-I 38 W/m 7,9 C 9,6 C 4,8 km/h (1 Bft) 97,87 %
03.11.2017 08:08 9,6 C 7,8 C 89 % 1017,5 hPa 0,0 l/m 3,7 km/h (1 Bft) W 271 0 min 0,000 mm 0,0 UV-I 45 W/m 7,9 C 9,6 C 4,8 km/h (1 Bft) 96,00 %
03.11.2017 08:10 9,6 C 7,8 C 89 % 1017,6 hPa 0,0 l/m 3,8 km/h (1 Bft) W 271 0 min 0,000 mm 0,0 UV-I 50 W/m 7,9 C 9,6 C 4,8 km/h (1 Bft) 98,00 %
03.11.2017 08:12 9,6 C 7,8 C 89 % 1017,5 hPa 0,0 l/m 2,7 km/h (1 Bft) W 271 0 min 0,000 mm 0,0 UV-I 56 W/m 7,9 C 9,6 C 3,2 km/h (1 Bft) 98,00 %
03.11.2017 08:14 9,6 C 7,8 C 89 % 1017,6 hPa 0,0 l/m 3,0 km/h (1 Bft) W 271 0 min 0,000 mm 0,0 UV-I 61 W/m 7,9 C 9,6 C 4,8 km/h (1 Bft) 97,56 %
03.11.2017 08:16 9,6 C 7,8 C 89 % 1017,6 hPa 0,0 l/m 3,9 km/h (1 Bft) W 271 0 min 0,000 mm 0,0 UV-I 60 W/m 7,9 C 9,6 C 4,8 km/h (1 Bft) 97,87 %
03.11.2017 08:18 9,6 C 7,8 C 89 % 1017,6 hPa 0,0 l/m 2,8 km/h (1 Bft) W 271 0 min 0,000 mm 0,0 UV-I 59 W/m 7,9 C 9,6 C 3,2 km/h (1 Bft) 98,11 %
03.11.2017 08:20 9,6 C 7,8 C 89 % 1017,6 hPa 0,0 l/m 4,0 km/h (1 Bft) W 271 0 min 0,000 mm 0,0 UV-I 66 W/m 7,9 C 9,6 C 9,7 km/h (2 Bft) 97,37 %
03.11.2017 08:22 9,6 C 7,8 C 89 % 1017,6 hPa 0,0 l/m 3,6 km/h (1 Bft) W 270 0 min 0,000 mm 0,0 UV-I 83 W/m 7,9 C 9,6 C 6,4 km/h (2 Bft) 96,00 %
03.11.2017 08:24 9,6 C 7,8 C 89 % 1017,6 hPa 0,0 l/m 3,4 km/h (1 Bft) W 270 0 min 0,000 mm 0,0 UV-I 91 W/m 7,9 C 9,6 C 4,8 km/h (1 Bft) 97,44 %
03.11.2017 08:26 9,7 C 7,8 C 89 % 1017,5 hPa 0,0 l/m 3,5 km/h (1 Bft) W 270 0 min 0,000 mm 0,0 UV-I 90 W/m 8,0 C 9,7 C 6,4 km/h (2 Bft) 96,43 %
03.11.2017 08:28 9,7 C 7,8 C 89 % 1017,6 hPa 0,0 l/m 3,9 km/h (1 Bft) W 270 0 min 0,000 mm 0,0 UV-I 93 W/m 8,0 C 9,7 C 6,4 km/h (2 Bft) 100,00 %
03.11.2017 08:30 9,7 C 7,8 C 89 % 1017,6 hPa 0,0 l/m 3,0 km/h (1 Bft) W 270 0 min 0,000 mm 0,0 UV-I 79 W/m 8,0 C 9,7 C 4,8 km/h (1 Bft) 100,00 %
03.11.2017 08:32 9,6 C 7,8 C 89 % 1017,6 hPa 0,0 l/m 3,4 km/h (1 Bft) W-SW 245 0 min 0,000 mm 0,0 UV-I 64 W/m 7,9 C 9,6 C 6,4 km/h (2 Bft) 98,11 %
03.11.2017 08:34 9,6 C 7,8 C 89 % 1017,6 hPa 0,0 l/m 3,3 km/h (1 Bft) W-SW 251 0 min 0,000 mm 0,0 UV-I 85 W/m 7,9 C 9,6 C 4,8 km/h (1 Bft) 100,00 %
03.11.2017 08:36 9,6 C 7,8 C 89 % 1017,6 hPa 0,0 l/m 4,3 km/h (1 Bft) W-SW 252 0 min 0,000 mm 0,0 UV-I 100 W/m 7,9 C 9,6 C 6,4 km/h (2 Bft) 97,87 %
03.11.2017 08:38 9,6 C 7,8 C 90 % 1017,6 hPa 0,0 l/m 5,0 km/h (1 Bft) W-SW 252 0 min 0,000 mm 0,0 UV-I 96 W/m 8,0 C 9,6 C 6,4 km/h (2 Bft) 96,00 %
03.11.2017 08:40 9,6 C 7,8 C 90 % 1017,6 hPa 0,0 l/m 5,1 km/h (1 Bft) W-SW 251 2 min 0,000 mm 0,0 UV-I 138 W/m 8,0 C 9,6 C 6,4 km/h (2 Bft) 100,00 %
03.11.2017 08:42 9,7 C 7,8 C 90 % 1017,7 hPa 0,0 l/m 4,9 km/h (1 Bft) W 259 2 min 0,000 mm 0,0 UV-I 152 W/m 8,1 C 9,7 C 6,4 km/h (2 Bft) 100,00 %
03.11.2017 08:44 9,7 C 7,8 C 90 % 1017,6 hPa 0,0 l/m 6,5 km/h (2 Bft) W-SW 255 0 min 0,000 mm 0,0 UV-I 138 W/m 8,1 C 9,7 C 11,3 km/h (2 Bft) 100,00 %
03.11.2017 08:46 9,8 C 7,8 C 89 % 1017,6 hPa 0,0 l/m 7,0 km/h (2 Bft) W 259 2 min 0,000 mm 0,0 UV-I 162 W/m 8,1 C 9,4 C 11,3 km/h (2 Bft) 100,00 %
03.11.2017 08:48 9,8 C 7,8 C 89 % 1017,6 hPa 0,0 l/m 5,0 km/h (1 Bft) W 277 2 min 0,000 mm 0,0 UV-I 155 W/m 8,1 C 9,8 C 8,0 km/h (2 Bft) 100,00 %
03.11.2017 08:50 9,9 C 7,8 C 89 % 1017,7 hPa 0,0 l/m 4,8 km/h (1 Bft) W 259 0 min 0,000 mm 0,0 UV-I 142 W/m 8,2 C 9,9 C 6,4 km/h (2 Bft) 100,00 %
03.11.2017 08:52 9,9 C 7,8 C 89 % 1017,7 hPa 0,0 l/m 2,6 km/h (1 Bft) W 260 0 min 0,000 mm 0,0 UV-I 128 W/m 8,2 C 9,9 C 4,8 km/h (1 Bft) 98,11 %
03.11.2017 08:54 9,9 C 7,8 C 88 % 1017,7 hPa 0,0 l/m 5,6 km/h (1 Bft) W-SW 252 2 min 0,000 mm 0,0 UV-I 155 W/m 8,0 C 9,9 C 9,7 km/h (2 Bft) 97,87 %
03.11.2017 08:56 10,1 C 7,8 C 88 % 1017,6 hPa 0,0 l/m 7,1 km/h (2 Bft) W-SW 238 2 min 0,000 mm 0,0 UV-I 221 W/m 8,2 C 9,6 C 11,3 km/h (2 Bft) 100,00 %
03.11.2017 08:58 10,1 C 7,8 C 88 % 1017,7 hPa 0,0 l/m 6,2 km/h (2 Bft) SW 226 2 min 0,000 mm 0,0 UV-I 234 W/m 8,2 C 10,1 C 9,7 km/h (2 Bft) 100,00 %
03.11.2017 09:00 10,2 C 7,8 C 88 % 1017,7 hPa 0,0 l/m 7,9 km/h (2 Bft) W-SW 250 2 min 0,051 mm 0,0 UV-I 235 W/m 8,3 C 9,1 C 14,5 km/h (3 Bft) 100,00 %
03.11.2017 09:03 10,3 C 7,8 C 87 % 1017,7 hPa 0,0 l/m 6,8 km/h (2 Bft) W-SW 247 3 min 0,000 mm 0,0 UV-I 255 W/m 8,2 C 10,0 C 11,3 km/h (2 Bft) 100,00 %
03.11.2017 09:04 10,3 C 7,8 C 87 % 1017,7 hPa 0,0 l/m 9,7 km/h (2 Bft) W 262 1 min 0,000 mm 0,0 UV-I 214 W/m 8,2 C 8,1 C 11,3 km/h (2 Bft) 100,00 %
03.11.2017 09:06 10,3 C 7,8 C 87 % 1017,7 hPa 0,0 l/m 6,3 km/h (2 Bft) W-SW 253 0 min 0,000 mm 0,2 UV-I 151 W/m 8,2 C 10,3 C 9,7 km/h (2 Bft) 100,00 %
03.11.2017 09:08 10,4 C 7,8 C 87 % 1017,7 hPa 0,0 l/m 4,0 km/h (1 Bft) W 263 2 min 0,000 mm 0,5 UV-I 233 W/m 8,3 C 10,4 C 8,0 km/h (2 Bft) 98,18 %
03.11.2017 09:10 10,4 C 7,8 C 87 % 1017,7 hPa 0,0 l/m 5,7 km/h (1 Bft) NW 309 2 min 0,000 mm 0,5 UV-I 255 W/m 8,3 C 10,4 C 9,7 km/h (2 Bft) 100,00 %
03.11.2017 09:12 10,4 C 7,8 C 86 % 1017,7 hPa 0,0 l/m 6,0 km/h (2 Bft) W 277 2 min 0,000 mm 0,5 UV-I 271 W/m 8,2 C 10,4 C 12,9 km/h (3 Bft) 98,00 %
03.11.2017 09:14 10,5 C 7,8 C 86 % 1017,7 hPa 0,0 l/m 5,2 km/h (1 Bft) SW 221 2 min 0,000 mm 0,5 UV-I 279 W/m 8,3 C 10,5 C 9,7 km/h (2 Bft) 98,00 %
03.11.2017 09:16 10,6 C 7,8 C 87 % 1017,7 hPa 0,0 l/m 4,4 km/h (1 Bft) NW 311 2 min 0,000 mm 0,5 UV-I 236 W/m 8,5 C 10,6 C 8,0 km/h (2 Bft) 100,00 %
03.11.2017 09:18 10,5 C 7,8 C 86 % 1017,7 hPa 0,0 l/m 4,8 km/h (1 Bft) W-SW 254 0 min 0,000 mm 0,5 UV-I 159 W/m 8,3 C 10,5 C 11,3 km/h (2 Bft) 100,00 %
03.11.2017 09:20 10,5 C 7,8 C 86 % 1017,7 hPa 0,0 l/m 4,9 km/h (1 Bft) W-SW 242 2 min 0,000 mm 0,6 UV-I 274 W/m 8,3 C 10,5 C 11,3 km/h (2 Bft) 100,00 %
03.11.2017 09:22 10,6 C 7,8 C 86 % 1017,8 hPa 0,0 l/m 6,8 km/h (2 Bft) W-SW 252 2 min 0,000 mm 0,6 UV-I 268 W/m 8,4 C 10,3 C 12,9 km/h (3 Bft) 97,73 %
03.11.2017 09:24 10,7 C 7,8 C 86 % 1017,7 hPa 0,0 l/m 5,6 km/h (1 Bft) W-SW 239 2 min 0,000 mm 0,6 UV-I 275 W/m 8,5 C 10,7 C 11,3 km/h (2 Bft) 100,00 %
03.11.2017 09:26 10,7 C 7,8 C 86 % 1017,8 hPa 0,0 l/m 7,6 km/h (2 Bft) W-SW 255 2 min 0,000 mm 0,6 UV-I 283 W/m 8,5 C 9,9 C 12,9 km/h (3 Bft) 100,00 %
03.11.2017 09:28 10,7 C 7,8 C 85 % 1017,8 hPa 0,0 l/m 6,2 km/h (2 Bft) W 260 2 min 0,000 mm 0,6 UV-I 304 W/m 8,3 C 10,7 C 9,7 km/h (2 Bft) 100,00 %
03.11.2017 09:30 10,8 C 7,8 C 85 % 1017,8 hPa 0,0 l/m 3,7 km/h (1 Bft) W 261 2 min 0,000 mm 0,6 UV-I 310 W/m 8,4 C 10,8 C 6,4 km/h (2 Bft) 100,00 %
03.11.2017 09:32 10,8 C 7,8 C 86 % 1017,8 hPa 0,0 l/m 2,8 km/h (1 Bft) W-SW 246 2 min 0,000 mm 0,6 UV-I 320 W/m 8,6 C 10,8 C 6,4 km/h (2 Bft) 100,00 %
03.11.2017 09:34 10,9 C 7,8 C 86 % 1017,8 hPa 0,0 l/m 5,2 km/h (1 Bft) W-SW 257 2 min 0,000 mm 0,7 UV-I 349 W/m 8,7 C 10,9 C 8,0 km/h (2 Bft) 97,56 %
03.11.2017 09:36 11,0 C 7,8 C 85 % 1017,8 hPa 0,0 l/m 3,1 km/h (1 Bft) SW 217 2 min 0,000 mm 0,7 UV-I 363 W/m 8,6 C 11,0 C 6,4 km/h (2 Bft) 100,00 %
03.11.2017 09:38 11,2 C 7,8 C 85 % 1017,8 hPa 0,0 l/m 4,4 km/h (1 Bft) SW 217 2 min 0,000 mm 0,6 UV-I 314 W/m 8,8 C 11,2 C 6,4 km/h (2 Bft) 100,00 %
03.11.2017 09:40 11,2 C 7,8 C 84 % 1017,8 hPa 0,0 l/m 6,7 km/h (2 Bft) W 265 2 min 0,000 mm 0,7 UV-I 259 W/m 8,6 C 11,0 C 11,3 km/h (2 Bft) 100,00 %
03.11.2017 09:42 11,1 C 7,8 C 84 % 1017,8 hPa 0,0 l/m 4,4 km/h (1 Bft) W-SW 252 2 min 0,000 mm 0,7 UV-I 344 W/m 8,5 C 11,1 C 6,4 km/h (2 Bft) 94,74 %
03.11.2017 09:44 11,1 C 7,8 C 85 % 1017,8 hPa 0,0 l/m 4,8 km/h (1 Bft) SW 228 2 min 0,000 mm 0,7 UV-I 394 W/m 8,7 C 11,1 C 8,0 km/h (2 Bft) 100,00 %
03.11.2017 09:46 11,2 C 7,8 C 84 % 1017,8 hPa 0,0 l/m 7,8 km/h (2 Bft) W 261 2 min 0,000 mm 0,7 UV-I 405 W/m 8,6 C 10,2 C 12,9 km/h (3 Bft) 97,62 %
03.11.2017 09:48 11,3 C 7,8 C 83 % 1017,8 hPa 0,0 l/m 5,9 km/h (2 Bft) SW 225 2 min 0,000 mm 0,7 UV-I 399 W/m 8,5 C 11,3 C 9,7 km/h (2 Bft) 97,56 %
03.11.2017 09:50 11,3 C 7,8 C 83 % 1017,8 hPa 0,0 l/m 5,5 km/h (1 Bft) W 262 2 min 0,000 mm 0,6 UV-I 322 W/m 8,5 C 11,3 C 8,0 km/h (2 Bft) 98,11 %
03.11.2017 09:52 11,2 C 7,8 C 83 % 1017,8 hPa 0,0 l/m 6,6 km/h (2 Bft) SW 225 2 min 0,000 mm 0,6 UV-I 229 W/m 8,4 C 11,1 C 14,5 km/h (3 Bft) 96,36 %
03.11.2017 09:54 11,2 C 7,8 C 84 % 1017,8 hPa 0,0 l/m 5,8 km/h (2 Bft) SW 232 2 min 0,000 mm 0,6 UV-I 212 W/m 8,6 C 11,2 C 11,3 km/h (2 Bft) 98,00 %
03.11.2017 09:56 11,2 C 7,8 C 84 % 1017,9 hPa 0,0 l/m 6,4 km/h (2 Bft) W-SW 250 2 min 0,000 mm 0,6 UV-I 223 W/m 8,6 C 11,2 C 14,5 km/h (3 Bft) 97,87 %
03.11.2017 09:58 11,1 C 7,8 C 84 % 1017,9 hPa 0,0 l/m 7,8 km/h (2 Bft) W-SW 250 2 min 0,000 mm 0,7 UV-I 246 W/m 8,5 C 10,1 C 11,3 km/h (2 Bft) 97,87 %
03.11.2017 10:00 11,1 C 7,8 C 84 % 1017,9 hPa 0,0 l/m 7,7 km/h (2 Bft) W 273 2 min 0,127 mm 0,7 UV-I 258 W/m 8,5 C 10,2 C 11,3 km/h (2 Bft) 95,65 %
03.11.2017 10:02 11,1 C 7,8 C 83 % 1017,9 hPa 0,0 l/m 6,0 km/h (2 Bft) W 278 2 min 0,000 mm 0,6 UV-I 243 W/m 8,3 C 11,1 C 11,3 km/h (2 Bft) 98,39 %
03.11.2017 10:04 11,2 C 7,8 C 84 % 1017,9 hPa 0,0 l/m 3,4 km/h (1 Bft) W 271 2 min 0,000 mm 0,6 UV-I 272 W/m 8,6 C 11,2 C 4,8 km/h (1 Bft) 98,21 %
03.11.2017 10:06 11,5 C 7,8 C 84 % 1017,9 hPa 0,0 l/m 1,7 km/h (1 Bft) W 271 2 min 0,000 mm 0,6 UV-I 371 W/m 8,9 C 11,5 C 3,2 km/h (1 Bft) 92,68 %
03.11.2017 10:08 11,8 C 7,8 C 83 % 1017,9 hPa 0,0 l/m 2,8 km/h (1 Bft) W-NW 294 2 min 0,000 mm 0,8 UV-I 508 W/m 9,0 C 11,8 C 6,4 km/h (2 Bft) 95,12 %
03.11.2017 10:10 12,1 C 7,8 C 83 % 1017,9 hPa 0,0 l/m 2,3 km/h (1 Bft) NW 317 2 min 0,000 mm 0,7 UV-I 480 W/m 9,3 C 12,1 C 6,4 km/h (2 Bft) 96,23 %
03.11.2017 10:12 12,2 C 7,8 C 81 % 1017,8 hPa 0,0 l/m 3,9 km/h (1 Bft) W-NW 297 2 min 0,000 mm 0,6 UV-I 327 W/m 9,0 C 12,2 C 9,7 km/h (2 Bft) 100,00 %
03.11.2017 10:14 11,9 C 7,8 C 80 % 1017,9 hPa 0,0 l/m 4,6 km/h (1 Bft) W-NW 303 0 min 0,000 mm 0,6 UV-I 168 W/m 8,6 C 11,9 C 8,0 km/h (2 Bft) 100,00 %
03.11.2017 10:16 11,7 C 7,8 C 81 % 1017,9 hPa 0,0 l/m 2,6 km/h (1 Bft) W 280 0 min 0,000 mm 0,6 UV-I 201 W/m 8,5 C 11,7 C 6,4 km/h (2 Bft) 100,00 %
03.11.2017 10:18 11,5 C 7,8 C 82 % 1017,9 hPa 0,0 l/m 4,9 km/h (1 Bft) W-SW 247 0 min 0,000 mm 0,7 UV-I 138 W/m 8,5 C 11,5 C 9,7 km/h (2 Bft) 100,00 %
03.11.2017 10:20 11,3 C 7,8 C 81 % 1018,0 hPa 0,0 l/m 4,4 km/h (1 Bft) W 259 0 min 0,000 mm 0,7 UV-I 138 W/m 8,2 C 11,3 C 9,7 km/h (2 Bft) 100,00 %
03.11.2017 10:22 11,2 C 7,8 C 83 % 1018,0 hPa 0,0 l/m 1,0 km/h (0 Bft) W 261 0 min 0,000 mm 0,8 UV-I 158 W/m 8,4 C 11,2 C 3,2 km/h (1 Bft) 100,00 %
03.11.2017 10:24 11,2 C 7,8 C 84 % 1018,0 hPa 0,0 l/m 0,8 km/h (0 Bft) W-NW 294 0 min 0,000 mm 0,8 UV-I 172 W/m 8,6 C 11,2 C 3,2 km/h (1 Bft) 97,87 %
03.11.2017 10:26 11,1 C 7,8 C 84 % 1018,0 hPa 0,0 l/m 1,7 km/h (1 Bft) W-NW 292 0 min 0,000 mm 0,8 UV-I 197 W/m 8,5 C 11,1 C 8,0 km/h (2 Bft) 98,18 %
03.11.2017 10:28 11,1 C 7,8 C 83 % 1018,0 hPa 0,0 l/m 2,1 km/h (1 Bft) NW 312 0 min 0,000 mm 0,8 UV-I 185 W/m 8,3 C 11,1 C 4,8 km/h (1 Bft) 97,62 %
03.11.2017 10:30 11,0 C 7,8 C 84 % 1018,0 hPa 0,0 l/m 2,0 km/h (1 Bft) NW 314 0 min 0,000 mm 0,8 UV-I 175 W/m 8,4 C 11,0 C 4,8 km/h (1 Bft) 100,00 %
03.11.2017 10:32 11,1 C 7,8 C 85 % 1018,0 hPa 0,0 l/m 0,8 km/h (0 Bft) NW 314 2 min 0,000 mm 0,9 UV-I 231 W/m 8,7 C 11,1 C 3,2 km/h (1 Bft) 100,00 %
03.11.2017 10:34 11,1 C 7,8 C 84 % 1018,0 hPa 0,0 l/m 3,6 km/h (1 Bft) NW 310 0 min 0,000 mm 0,8 UV-I 169 W/m 8,5 C 11,1 C 6,4 km/h (2 Bft) 100,00 %
03.11.2017 10:36 11,1 C 7,8 C 83 % 1018,0 hPa 0,0 l/m 3,1 km/h (1 Bft) NW 316 0 min 0,000 mm 0,8 UV-I 183 W/m 8,3 C 11,1 C 6,4 km/h (2 Bft) 98,46 %
03.11.2017 10:38 11,1 C 7,8 C 83 % 1018,1 hPa 0,0 l/m 2,4 km/h (1 Bft) NW 306 0 min 0,000 mm 0,9 UV-I 210 W/m 8,3 C 11,1 C 4,8 km/h (1 Bft) 96,00 %
03.11.2017 10:40 11,2 C 7,8 C 83 % 1018,1 hPa 0,0 l/m 1,8 km/h (1 Bft) W-NW 296 0 min 0,000 mm 0,9 UV-I 207 W/m 8,4 C 11,2 C 4,8 km/h (1 Bft) 100,00 %
03.11.2017 10:42 11,3 C 7,8 C 83 % 1018,1 hPa 0,0 l/m 2,2 km/h (1 Bft) W-NW 300 0 min 0,000 mm 0,9 UV-I 191 W/m 8,5 C 11,3 C 6,4 km/h (2 Bft) 97,87 %
03.11.2017 10:44 11,3 C 7,8 C 83 % 1018,0 hPa 0,0 l/m 1,8 km/h (1 Bft) NW 306 0 min 0,000 mm 0,9 UV-I 223 W/m 8,5 C 11,3 C 4,8 km/h (1 Bft) 100,00 %
03.11.2017 10:46 11,4 C 7,8 C 83 % 1018,0 hPa 0,0 l/m 0,6 km/h (0 Bft) NW 306 0 min 0,000 mm 0,9 UV-I 197 W/m 8,6 C 11,4 C 3,2 km/h (1 Bft) 97,56 %
03.11.2017 10:48 11,4 C 7,8 C 83 % 1018,0 hPa 0,0 l/m 0,2 km/h (0 Bft) NW 306 0 min 0,000 mm 1,0 UV-I 206 W/m 8,6 C 11,4 C 1,6 km/h (1 Bft) 98,00 %
03.11.2017 10:50 11,4 C 7,8 C 83 % 1018,0 hPa 0,0 l/m 0,7 km/h (0 Bft) NW 314 2 min 0,000 mm 1,0 UV-I 248 W/m 8,6 C 11,4 C 3,2 km/h (1 Bft) 98,00 %
03.11.2017 10:52 11,4 C 7,8 C 83 % 1018,0 hPa 0,0 l/m 1,6 km/h (1 Bft) NW 313 0 min 0,000 mm 1,0 UV-I 207 W/m 8,6 C 11,4 C 4,8 km/h (1 Bft) 96,00 %
03.11.2017 10:54 11,4 C 7,8 C 81 % 1018,0 hPa 0,0 l/m 1,5 km/h (1 Bft) NW 312 0 min 0,000 mm 0,9 UV-I 199 W/m 8,3 C 11,4 C 4,8 km/h (1 Bft) 97,87 %
03.11.2017 10:56 11,4 C 7,8 C 82 % 1018,0 hPa 0,0 l/m 1,7 km/h (1 Bft) NW 311 0 min 0,000 mm 0,9 UV-I 220 W/m 8,4 C 11,4 C 4,8 km/h (1 Bft) 95,74 %
03.11.2017 10:58 11,4 C 7,8 C 81 % 1017,9 hPa 0,0 l/m 3,9 km/h (1 Bft) NW 321 2 min 0,000 mm 0,9 UV-I 256 W/m 8,3 C 11,4 C 6,4 km/h (2 Bft) 97,73 %
03.11.2017 11:00 11,4 C 7,8 C 81 % 1018,0 hPa 0,0 l/m 3,0 km/h (1 Bft) W-NW 302 2 min 0,127 mm 0,8 UV-I 340 W/m 8,3 C 11,4 C 4,8 km/h (1 Bft) 97,22 %
03.11.2017 11:02 11,4 C 7,8 C 81 % 1018,0 hPa 0,0 l/m 3,9 km/h (1 Bft) N-NW 332 0 min 0,000 mm 0,8 UV-I 163 W/m 8,3 C 11,4 C 11,3 km/h (2 Bft) 98,18 %
03.11.2017 11:04 11,4 C 7,8 C 82 % 1017,9 hPa 0,0 l/m 1,6 km/h (1 Bft) NW 312 0 min 0,000 mm 0,9 UV-I 175 W/m 8,4 C 11,4 C 3,2 km/h (1 Bft) 100,00 %
03.11.2017 11:06 11,4 C 7,8 C 81 % 1017,9 hPa 0,0 l/m 0,9 km/h (0 Bft) NW 312 0 min 0,000 mm 0,9 UV-I 208 W/m 8,3 C 11,4 C 3,2 km/h (1 Bft) 92,31 %
03.11.2017 11:08 11,7 C 7,8 C 82 % 1017,9 hPa 0,0 l/m 1,0 km/h (0 Bft) NW 313 0 min 0,000 mm 0,9 UV-I 220 W/m 8,7 C 11,7 C 3,2 km/h (1 Bft) 97,14 %
03.11.2017 11:10 11,7 C 7,8 C 81 % 1017,9 hPa 0,0 l/m 1,3 km/h (1 Bft) NW 313 0 min 0,000 mm 0,9 UV-I 208 W/m 8,5 C 11,7 C 3,2 km/h (1 Bft) 98,46 %
03.11.2017 11:12 11,7 C 7,8 C 80 % 1017,9 hPa 0,0 l/m 1,7 km/h (1 Bft) NW 313 0 min 0,000 mm 0,9 UV-I 209 W/m 8,4 C 11,7 C 4,8 km/h (1 Bft) 95,12 %
03.11.2017 11:14 11,7 C 7,8 C 80 % 1017,9 hPa 0,0 l/m 4,3 km/h (1 Bft) W-NW 299 0 min 0,000 mm 0,9 UV-I 194 W/m 8,4 C 11,7 C 8,0 km/h (2 Bft) 98,00 %
03.11.2017 11:16 11,7 C 7,8 C 81 % 1017,9 hPa 0,0 l/m 2,0 km/h (1 Bft) W-NW 299 0 min 0,000 mm 0,9 UV-I 184 W/m 8,5 C 11,7 C 3,2 km/h (1 Bft) 96,00 %
03.11.2017 11:18 11,7 C 7,8 C 81 % 1017,9 hPa 0,0 l/m 2,5 km/h (1 Bft) W-NW 303 0 min 0,000 mm 0,9 UV-I 174 W/m 8,5 C 11,7 C 4,8 km/h (1 Bft) 100,00 %
03.11.2017 11:20 11,6 C 7,8 C 81 % 1017,9 hPa 0,0 l/m 2,8 km/h (1 Bft) W-NW 292 0 min 0,000 mm 1,0 UV-I 157 W/m 8,5 C 11,6 C 6,4 km/h (2 Bft) 95,83 %
03.11.2017 11:22 11,4 C 7,8 C 80 % 1017,8 hPa 0,0 l/m 1,8 km/h (1 Bft) W-NW 298 0 min 0,000 mm 1,0 UV-I 178 W/m 8,1 C 11,4 C 4,8 km/h (1 Bft) 97,87 %
03.11.2017 11:24 11,4 C 7,8 C 80 % 1017,8 hPa 0,0 l/m 0,7 km/h (0 Bft) W-NW 298 2 min 0,000 mm 1,2 UV-I 291 W/m 8,1 C 11,4 C 3,2 km/h (1 Bft) 98,00 %
03.11.2017 11:26 11,6 C 7,8 C 80 % 1017,8 hPa 0,0 l/m 2,4 km/h (1 Bft) NW 304 2 min 0,000 mm 1,2 UV-I 455 W/m 8,3 C 11,6 C 4,8 km/h (1 Bft) 98,00 %
03.11.2017 11:28 11,7 C 7,8 C 80 % 1017,8 hPa 0,0 l/m 1,7 km/h (1 Bft) N-NW 336 2 min 0,000 mm 1,2 UV-I 480 W/m 8,4 C 11,7 C 4,8 km/h (1 Bft) 97,37 %
03.11.2017 11:30 11,8 C 7,8 C 80 % 1017,8 hPa 0,0 l/m 3,1 km/h (1 Bft) NW 313 2 min 0,000 mm 1,1 UV-I 466 W/m 8,5 C 11,8 C 4,8 km/h (1 Bft) 94,29 %
03.11.2017 11:32 11,8 C 7,8 C 79 % 1017,8 hPa 0,0 l/m 1,8 km/h (1 Bft) NW 315 2 min 0,000 mm 1,0 UV-I 369 W/m 8,3 C 11,8 C 4,8 km/h (1 Bft) 97,06 %
03.11.2017 11:34 11,9 C 7,8 C 81 % 1017,7 hPa 0,0 l/m 2,6 km/h (1 Bft) W-NW 296 2 min 0,000 mm 1,0 UV-I 287 W/m 8,7 C 11,9 C 6,4 km/h (2 Bft) 97,37 %
03.11.2017 11:36 11,8 C 7,8 C 80 % 1017,7 hPa 0,0 l/m 2,3 km/h (1 Bft) N 350 2 min 0,000 mm 1,1 UV-I 268 W/m 8,5 C 11,8 C 6,4 km/h (2 Bft) 90,00 %
03.11.2017 11:38 11,9 C 7,8 C 80 % 1017,7 hPa 0,0 l/m 3,1 km/h (1 Bft) NW 312 2 min 0,000 mm 1,1 UV-I 291 W/m 8,6 C 11,9 C 8,0 km/h (2 Bft) 96,00 %
03.11.2017 11:40 11,9 C 7,8 C 79 % 1017,7 hPa 0,0 l/m 2,7 km/h (1 Bft) NW 312 2 min 0,000 mm 1,1 UV-I 426 W/m 8,4 C 11,9 C 6,4 km/h (2 Bft) 92,00 %
03.11.2017 11:42 12,1 C 7,8 C 80 % 1017,6 hPa 0,0 l/m 1,8 km/h (1 Bft) N-NW 328 2 min 0,000 mm 1,2 UV-I 376 W/m 8,8 C 12,1 C 6,4 km/h (2 Bft) 95,12 %
03.11.2017 11:44 12,2 C 7,8 C 80 % 1017,6 hPa 0,0 l/m 1,8 km/h (1 Bft) N 5 2 min 0,000 mm 1,2 UV-I 500 W/m 8,9 C 12,2 C 4,8 km/h (1 Bft) 92,00 %
03.11.2017 11:46 12,3 C 7,8 C 79 % 1017,6 hPa 0,0 l/m 3,3 km/h (1 Bft) NW 313 2 min 0,000 mm 1,1 UV-I 491 W/m 8,8 C 12,3 C 6,4 km/h (2 Bft) 95,24 %
03.11.2017 11:48 12,3 C 7,8 C 78 % 1017,6 hPa 0,0 l/m 2,6 km/h (1 Bft) N-NW 338 2 min 0,000 mm 1,1 UV-I 489 W/m 8,6 C 12,3 C 4,8 km/h (1 Bft) 96,00 %
03.11.2017 11:50 12,3 C 7,8 C 79 % 1017,6 hPa 0,0 l/m 2,9 km/h (1 Bft) N 9 2 min 0,000 mm 1,0 UV-I 434 W/m 8,8 C 12,3 C 6,4 km/h (2 Bft) 95,74 %
03.11.2017 11:52 12,2 C 7,8 C 79 % 1017,6 hPa 0,0 l/m 3,1 km/h (1 Bft) NW 313 2 min 0,000 mm 0,9 UV-I 365 W/m 8,7 C 12,2 C 4,8 km/h (1 Bft) 94,00 %
03.11.2017 11:54 12,2 C 7,8 C 79 % 1017,6 hPa 0,0 l/m 1,9 km/h (1 Bft) N-NW 342 2 min 0,000 mm 0,8 UV-I 346 W/m 8,7 C 12,2 C 4,8 km/h (1 Bft) 94,74 %
03.11.2017 11:56 12,0 C 7,8 C 79 % 1017,7 hPa 0,0 l/m 2,7 km/h (1 Bft) W-NW 300 2 min 0,000 mm 0,9 UV-I 276 W/m 8,5 C 12,0 C 6,4 km/h (2 Bft) 95,45 %
03.11.2017 11:58 11,8 C 7,8 C 79 % 1017,7 hPa 0,0 l/m 3,5 km/h (1 Bft) NW 324 2 min 0,000 mm 0,9 UV-I 252 W/m 8,3 C 11,8 C 6,4 km/h (2 Bft) 95,12 %
03.11.2017 12:00 11,7 C 7,8 C 79 % 1017,7 hPa 0,0 l/m 1,8 km/h (1 Bft) N-NW 340 0 min 0,153 mm 0,8 UV-I 123 W/m 8,2 C 11,7 C 4,8 km/h (1 Bft) 94,34 %
03.11.2017 12:02 11,6 C 7,8 C 80 % 1017,7 hPa 0,0 l/m 1,8 km/h (1 Bft) N 5 0 min 0,000 mm 0,8 UV-I 108 W/m 8,3 C 11,6 C 3,2 km/h (1 Bft) 96,23 %
03.11.2017 12:04 11,4 C 7,8 C 80 % 1017,7 hPa 0,0 l/m 2,6 km/h (1 Bft) NW 324 0 min 0,000 mm 0,8 UV-I 98 W/m 8,1 C 11,4 C 9,7 km/h (2 Bft) 94,34 %
03.11.2017 12:06 11,3 C 7,8 C 80 % 1017,6 hPa 0,0 l/m 3,2 km/h (1 Bft) N 349 0 min 0,000 mm 0,8 UV-I 94 W/m 8,0 C 11,3 C 6,4 km/h (2 Bft) 95,12 %
03.11.2017 12:08 11,2 C 7,8 C 80 % 1017,6 hPa 0,0 l/m 2,4 km/h (1 Bft) NW 309 0 min 0,000 mm 0,8 UV-I 96 W/m 7,9 C 11,2 C 4,8 km/h (1 Bft) 98,00 %
03.11.2017 12:10 11,2 C 7,8 C 81 % 1017,6 hPa 0,0 l/m 1,1 km/h (1 Bft) NW 309 0 min 0,000 mm 0,8 UV-I 110 W/m 8,1 C 11,2 C 3,2 km/h (1 Bft) 97,87 %
03.11.2017 12:12 11,2 C 7,8 C 81 % 1017,6 hPa 0,0 l/m 0,5 km/h (0 Bft) NW 309 0 min 0,000 mm 0,9 UV-I 118 W/m 8,1 C 11,2 C 3,2 km/h (1 Bft) 95,12 %
03.11.2017 12:14 11,2 C 7,8 C 82 % 1017,6 hPa 0,0 l/m 1,4 km/h (1 Bft) NW 311 0 min 0,000 mm 0,9 UV-I 137 W/m 8,2 C 11,2 C 3,2 km/h (1 Bft) 98,11 %
03.11.2017 12:16 11,2 C 7,8 C 81 % 1017,6 hPa 0,0 l/m 1,4 km/h (1 Bft) NW 317 0 min 0,000 mm 0,9 UV-I 151 W/m 8,1 C 11,2 C 4,8 km/h (1 Bft) 97,56 %
03.11.2017 12:18 11,2 C 7,8 C 81 % 1017,6 hPa 0,0 l/m 1,5 km/h (1 Bft) NW 317 0 min 0,000 mm 0,8 UV-I 143 W/m 8,1 C 11,2 C 3,2 km/h (1 Bft) 97,87 %
03.11.2017 12:20 11,3 C 7,8 C 81 % 1017,6 hPa 0,0 l/m 1,0 km/h (0 Bft) NW 326 0 min 0,000 mm 0,8 UV-I 142 W/m 8,2 C 11,3 C 3,2 km/h (1 Bft) 98,00 %
03.11.2017 12:22 11,3 C 7,8 C 81 % 1017,6 hPa 0,0 l/m 1,3 km/h (1 Bft) NW 326 0 min 0,000 mm 0,8 UV-I 138 W/m 8,2 C 11,3 C 3,2 km/h (1 Bft) 95,74 %
03.11.2017 12:24 11,4 C 7,8 C 81 % 1017,6 hPa 0,0 l/m 0,3 km/h (0 Bft) NW 326 0 min 0,000 mm 0,8 UV-I 129 W/m 8,3 C 11,4 C 1,6 km/h (1 Bft) 95,83 %
03.11.2017 12:26 11,4 C 7,8 C 80 % 1017,6 hPa 0,0 l/m 0,5 km/h (0 Bft) NW 326 0 min 0,000 mm 0,8 UV-I 114 W/m 8,1 C 11,4 C 3,2 km/h (1 Bft) 100,00 %
03.11.2017 12:28 11,4 C 7,8 C 81 % 1017,6 hPa 0,0 l/m 1,1 km/h (1 Bft) NW 326 0 min 0,000 mm 0,8 UV-I 101 W/m 8,3 C 11,4 C 4,8 km/h (1 Bft) 96,43 %
03.11.2017 12:30 11,4 C 7,8 C 80 % 1017,6 hPa 0,0 l/m 0,1 km/h (0 Bft) NW 326 0 min 0,000 mm 0,8 UV-I 104 W/m 8,1 C 11,4 C 1,6 km/h (1 Bft) 98,00 %
03.11.2017 12:32 11,4 C 7,8 C 80 % 1017,6 hPa 0,0 l/m 1,4 km/h (1 Bft) NW 326 0 min 0,000 mm 0,8 UV-I 104 W/m 8,1 C 11,4 C 3,2 km/h (1 Bft) 95,45 %
03.11.2017 12:34 11,4 C 7,8 C 79 % 1017,6 hPa 0,0 l/m 1,0 km/h (0 Bft) NW 326 0 min 0,000 mm 0,8 UV-I 97 W/m 7,9 C 11,4 C 3,2 km/h (1 Bft) 98,00 %
03.11.2017 12:36 11,4 C 7,8 C 79 % 1017,6 hPa 0,0 l/m 0,6 km/h (0 Bft) NW 326 0 min 0,000 mm 0,8 UV-I 84 W/m 7,9 C 11,4 C 3,2 km/h (1 Bft) 94,74 %
03.11.2017 12:38 11,3 C 7,8 C 80 % 1017,6 hPa 0,0 l/m 0,5 km/h (0 Bft) NW 326 0 min 0,000 mm 0,8 UV-I 82 W/m 8,0 C 11,3 C 1,6 km/h (1 Bft) 97,87 %
03.11.2017 12:40 11,2 C 7,8 C 81 % 1017,6 hPa 0,0 l/m 0,0 km/h (0 Bft) NW 326 0 min 0,000 mm 0,8 UV-I 88 W/m 8,1 C 11,2 C 0,0 km/h (0 Bft) 98,04 %
03.11.2017 12:42 11,1 C 7,8 C 82 % 1017,6 hPa 0,0 l/m 0,1 km/h (0 Bft) NW 326 0 min 0,000 mm 0,8 UV-I 92 W/m 8,1 C 11,1 C 1,6 km/h (1 Bft) 96,00 %
03.11.2017 12:44 10,9 C 7,8 C 83 % 1017,6 hPa 0,0 l/m 0,0 km/h (0 Bft) NW 326 0 min 0,000 mm 0,9 UV-I 100 W/m 8,1 C 10,9 C 0,0 km/h (0 Bft) 97,37 %
03.11.2017 12:46 10,9 C 7,8 C 84 % 1017,5 hPa 0,0 l/m 0,0 km/h (0 Bft) NW 326 0 min 0,000 mm 0,9 UV-I 100 W/m 8,3 C 10,9 C 0,0 km/h (0 Bft) 96,43 %
03.11.2017 12:48 10,8 C 7,8 C 84 % 1017,6 hPa 0,0 l/m 0,0 km/h (0 Bft) NW 326 0 min 0,000 mm 0,9 UV-I 102 W/m 8,2 C 10,8 C 0,0 km/h (0 Bft) 97,37 %
03.11.2017 12:50 10,8 C 7,8 C 83 % 1017,5 hPa 0,0 l/m 0,0 km/h (0 Bft) NW 326 0 min 0,000 mm 0,9 UV-I 109 W/m 8,0 C 10,8 C 0,0 km/h (0 Bft) 95,74 %
03.11.2017 12:52 10,9 C 7,8 C 82 % 1017,5 hPa 0,0 l/m 0,0 km/h (0 Bft) NW 326 0 min 0,000 mm 1,0 UV-I 125 W/m 7,9 C 10,9 C 0,0 km/h (0 Bft) 98,00 %
03.11.2017 12:54 11,1 C 7,8 C 83 % 1017,6 hPa 0,0 l/m 0,0 km/h (0 Bft) NW 326 2 min 0,000 mm 1,1 UV-I 322 W/m 8,3 C 11,1 C 1,6 km/h (1 Bft) 98,11 %
03.11.2017 12:56 11,3 C 7,8 C 82 % 1017,6 hPa 0,0 l/m 0,0 km/h (0 Bft) NW 326 2 min 0,000 mm 1,1 UV-I 279 W/m 8,3 C 11,3 C 0,0 km/h (0 Bft) 94,74 %
03.11.2017 12:58 11,5 C 7,8 C 81 % 1017,5 hPa 0,0 l/m 0,2 km/h (0 Bft) NW 326 2 min 0,000 mm 1,1 UV-I 343 W/m 8,4 C 11,5 C 1,6 km/h (1 Bft) 97,44 %
03.11.2017 13:00 11,7 C 7,8 C 81 % 1017,5 hPa 0,0 l/m 1,0 km/h (0 Bft) NW 326 2 min 0,076 mm 1,1 UV-I 390 W/m 8,5 C 11,7 C 4,8 km/h (1 Bft) 96,23 %
03.11.2017 13:02 11,8 C 7,8 C 78 % 1017,5 hPa 0,0 l/m 2,5 km/h (1 Bft) NW 326 2 min 0,000 mm 1,1 UV-I 387 W/m 8,1 C 11,8 C 4,8 km/h (1 Bft) 98,00 %
03.11.2017 13:04 11,8 C 7,8 C 78 % 1017,5 hPa 0,0 l/m 2,3 km/h (1 Bft) NW 325 2 min 0,000 mm 1,1 UV-I 307 W/m 8,1 C 11,8 C 4,8 km/h (1 Bft) 97,56 %
03.11.2017 13:06 11,7 C 7,8 C 78 % 1017,5 hPa 0,0 l/m 2,1 km/h (1 Bft) NW 325 0 min 0,000 mm 0,9 UV-I 126 W/m 8,0 C 11,7 C 4,8 km/h (1 Bft) 98,21 %
03.11.2017 13:08 11,7 C 7,8 C 77 % 1017,5 hPa 0,0 l/m 0,8 km/h (0 Bft) NW 325 0 min 0,000 mm 0,8 UV-I 96 W/m 7,8 C 11,7 C 3,2 km/h (1 Bft) 96,15 %
03.11.2017 13:10 11,6 C 7,8 C 76 % 1017,5 hPa 0,0 l/m 0,4 km/h (0 Bft) NW 325 0 min 0,000 mm 0,8 UV-I 106 W/m 7,5 C 11,6 C 1,6 km/h (1 Bft) 98,39 %
03.11.2017 13:12 11,6 C 7,8 C 77 % 1017,5 hPa 0,0 l/m 0,0 km/h (0 Bft) NW 325 0 min 0,000 mm 0,8 UV-I 119 W/m 7,7 C 11,6 C 0,0 km/h (0 Bft) 98,00 %
03.11.2017 13:14 11,5 C 7,8 C 77 % 1017,5 hPa 0,0 l/m 0,0 km/h (0 Bft) NW 325 0 min 0,000 mm 0,8 UV-I 117 W/m 7,6 C 11,5 C 0,0 km/h (0 Bft) 100,00 %
03.11.2017 13:16 11,6 C 7,8 C 76 % 1017,5 hPa 0,0 l/m 0,0 km/h (0 Bft) NW 325 0 min 0,000 mm 0,7 UV-I 114 W/m 7,5 C 11,6 C 0,0 km/h (0 Bft) 97,87 %
03.11.2017 13:18 11,6 C 7,8 C 77 % 1017,4 hPa 0,0 l/m 0,0 km/h (0 Bft) NW 325 0 min 0,000 mm 0,7 UV-I 119 W/m 7,7 C 11,6 C 0,0 km/h (0 Bft) 97,87 %
03.11.2017 13:20 11,6 C 7,8 C 77 % 1017,4 hPa 0,0 l/m 0,0 km/h (0 Bft) NW 325 0 min 0,000 mm 0,7 UV-I 131 W/m 7,7 C 11,6 C 0,0 km/h (0 Bft) 100,00 %
03.11.2017 13:22 11,6 C 7,8 C 76 % 1017,4 hPa 0,0 l/m 0,0 km/h (0 Bft) NW 325 0 min 0,000 mm 0,7 UV-I 142 W/m 7,5 C 11,6 C 0,0 km/h (0 Bft) 100,00 %
03.11.2017 13:24 11,7 C 7,8 C 77 % 1017,3 hPa 0,0 l/m 0,0 km/h (0 Bft) NW 325 0 min 0,000 mm 0,7 UV-I 157 W/m 7,8 C 11,7 C 0,0 km/h (0 Bft) 95,74 %
03.11.2017 13:26 11,8 C 7,8 C 78 % 1017,3 hPa 0,0 l/m 0,3 km/h (0 Bft) NW 325 2 min 0,000 mm 0,8 UV-I 254 W/m 8,1 C 11,8 C 3,2 km/h (1 Bft) 100,00 %
03.11.2017 13:28 11,9 C 7,8 C 77 % 1017,3 hPa 0,0 l/m 1,9 km/h (1 Bft) NW 325 2 min 0,000 mm 0,9 UV-I 345 W/m 8,0 C 11,9 C 3,2 km/h (1 Bft) 100,00 %
03.11.2017 13:30 12,0 C 7,8 C 76 % 1017,3 hPa 0,0 l/m 0,3 km/h (0 Bft) NW 325 2 min 0,000 mm 0,9 UV-I 250 W/m 7,9 C 12,0 C 1,6 km/h (1 Bft) 100,00 %
03.11.2017 13:32 12,0 C 7,8 C 74 % 1017,4 hPa 0,0 l/m 1,8 km/h (1 Bft) NW 325 2 min 0,000 mm 0,9 UV-I 290 W/m 7,5 C 12,0 C 3,2 km/h (1 Bft) 100,00 %
03.11.2017 13:34 12,1 C 7,8 C 74 % 1017,4 hPa 0,0 l/m 0,8 km/h (0 Bft) NW 325 2 min 0,000 mm 0,9 UV-I 310 W/m 7,6 C 12,1 C 1,6 km/h (1 Bft) 96,00 %
03.11.2017 13:36 12,2 C 7,8 C 73 % 1017,3 hPa 0,0 l/m 0,0 km/h (0 Bft) NW 325 2 min 0,000 mm 0,9 UV-I 335 W/m 7,5 C 12,2 C 0,0 km/h (0 Bft) 97,87 %
03.11.2017 13:38 12,3 C 7,8 C 72 % 1017,3 hPa 0,0 l/m 0,0 km/h (0 Bft) NW 325 0 min 0,000 mm 0,8 UV-I 171 W/m 7,4 C 12,3 C 0,0 km/h (0 Bft) 94,87 %
03.11.2017 13:40 12,2 C 7,8 C 75 % 1017,3 hPa 0,0 l/m 0,8 km/h (0 Bft) NW 325 0 min 0,000 mm 0,8 UV-I 143 W/m 7,9 C 12,2 C 3,2 km/h (1 Bft) 98,08 %
03.11.2017 13:42 12,0 C 7,8 C 72 % 1017,3 hPa 0,0 l/m 1,1 km/h (1 Bft) NW 325 0 min 0,000 mm 0,7 UV-I 120 W/m 7,1 C 12,0 C 1,6 km/h (1 Bft) 98,00 %
03.11.2017 13:44 12,0 C 7,8 C 74 % 1017,3 hPa 0,0 l/m 0,4 km/h (0 Bft) NW 325 0 min 0,000 mm 0,7 UV-I 113 W/m 7,5 C 12,0 C 1,6 km/h (1 Bft) 97,78 %
03.11.2017 13:46 11,9 C 7,8 C 73 % 1017,3 hPa 0,0 l/m 0,1 km/h (0 Bft) NW 325 0 min 0,000 mm 0,6 UV-I 122 W/m 7,2 C 11,9 C 1,6 km/h (1 Bft) 100,00 %
03.11.2017 13:48 11,9 C 7,8 C 73 % 1017,3 hPa 0,0 l/m 0,0 km/h (0 Bft) NW 325 0 min 0,000 mm 0,6 UV-I 124 W/m 7,2 C 11,9 C 0,0 km/h (0 Bft) 98,00 %
03.11.2017 13:50 11,9 C 7,8 C 75 % 1017,3 hPa 0,0 l/m 0,3 km/h (0 Bft) NW 325 0 min 0,000 mm 0,6 UV-I 123 W/m 7,6 C 11,9 C 1,6 km/h (1 Bft) 94,29 %
03.11.2017 13:52 11,9 C 7,8 C 74 % 1017,3 hPa 0,0 l/m 1,2 km/h (1 Bft) NW 325 0 min 0,000 mm 0,5 UV-I 127 W/m 7,4 C 11,9 C 3,2 km/h (1 Bft) 94,00 %
03.11.2017 13:54 11,9 C 7,8 C 74 % 1017,3 hPa 0,0 l/m 0,0 km/h (0 Bft) NW 325 0 min 0,000 mm 0,5 UV-I 130 W/m 7,4 C 11,9 C 1,6 km/h (1 Bft) 96,23 %
03.11.2017 13:56 11,9 C 7,8 C 75 % 1017,3 hPa 0,0 l/m 0,0 km/h (0 Bft) NW 325 0 min 0,000 mm 0,5 UV-I 130 W/m 7,6 C 11,9 C 0,0 km/h (0 Bft) 97,37 %
03.11.2017 13:58 12,0 C 7,8 C 74 % 1017,3 hPa 0,0 l/m 0,4 km/h (0 Bft) NW 325 0 min 0,000 mm 0,4 UV-I 127 W/m 7,5 C 12,0 C 1,6 km/h (1 Bft) 98,00 %
03.11.2017 14:00 12,1 C 7,8 C 74 % 1017,3 hPa 0,0 l/m 0,0 km/h (0 Bft) NW 325 0 min 0,000 mm 0,0 UV-I 132 W/m 7,6 C 12,1 C 0,0 km/h (0 Bft) 98,00 %
03.11.2017 14:02 12,1 C 7,8 C 74 % 1017,2 hPa 0,0 l/m 0,1 km/h (0 Bft) NW 325 0 min 0,076 mm 0,5 UV-I 148 W/m 7,6 C 12,1 C 3,2 km/h (1 Bft) 96,00 %
03.11.2017 14:04 12,1 C 7,8 C 74 % 1017,2 hPa 0,0 l/m 3,1 km/h (1 Bft) NW 326 0 min 0,000 mm 0,5 UV-I 160 W/m 7,6 C 12,1 C 4,8 km/h (1 Bft) 91,43 %
03.11.2017 14:06 12,1 C 7,8 C 74 % 1017,2 hPa 0,0 l/m 2,3 km/h (1 Bft) NW 326 0 min 0,000 mm 0,5 UV-I 155 W/m 7,6 C 12,1 C 3,2 km/h (1 Bft) 94,64 %
03.11.2017 14:08 11,9 C 7,8 C 73 % 1017,2 hPa 0,0 l/m 1,4 km/h (1 Bft) NW 326 0 min 0,000 mm 0,5 UV-I 149 W/m 7,2 C 11,9 C 1,6 km/h (1 Bft) 97,87 %
03.11.2017 14:10 11,9 C 7,8 C 73 % 1017,1 hPa 0,0 l/m 0,0 km/h (0 Bft) NW 326 0 min 0,000 mm 0,5 UV-I 149 W/m 7,2 C 11,9 C 0,0 km/h (0 Bft) 100,00 %
03.11.2017 14:12 12,0 C 7,8 C 75 % 1017,1 hPa 0,0 l/m 0,0 km/h (0 Bft) NW 326 0 min 0,000 mm 0,5 UV-I 146 W/m 7,7 C 12,0 C 0,0 km/h (0 Bft) 100,00 %
03.11.2017 14:14 12,0 C 7,8 C 74 % 1017,2 hPa 0,0 l/m 0,1 km/h (0 Bft) NW 326 0 min 0,000 mm 0,5 UV-I 144 W/m 7,5 C 12,0 C 1,6 km/h (1 Bft) 100,00 %
03.11.2017 14:16 12,1 C 7,8 C 75 % 1017,1 hPa 0,0 l/m 1,2 km/h (1 Bft) NW 326 0 min 0,000 mm 0,5 UV-I 140 W/m 7,8 C 12,1 C 3,2 km/h (1 Bft) 100,00 %
03.11.2017 14:18 12,1 C 7,8 C 76 % 1017,1 hPa 0,0 l/m 2,3 km/h (1 Bft) NW 326 0 min 0,000 mm 0,5 UV-I 137 W/m 8,0 C 12,1 C 3,2 km/h (1 Bft) 100,00 %
03.11.2017 14:20 12,1 C 7,8 C 75 % 1017,1 hPa 0,0 l/m 0,7 km/h (0 Bft) NW 326 0 min 0,000 mm 0,4 UV-I 137 W/m 7,8 C 12,1 C 3,2 km/h (1 Bft) 100,00 %
03.11.2017 14:22 12,1 C 7,8 C 75 % 1017,1 hPa 0,0 l/m 0,7 km/h (0 Bft) NW 326 0 min 0,000 mm 0,0 UV-I 131 W/m 7,8 C 12,1 C 1,6 km/h (1 Bft) 100,00 %
03.11.2017 14:24 12,1 C 7,8 C 75 % 1017,1 hPa 0,0 l/m 1,6 km/h (1 Bft) NW 326 0 min 0,000 mm 0,0 UV-I 126 W/m 7,8 C 12,1 C 3,2 km/h (1 Bft) 97,56 %
03.11.2017 14:26 12,1 C 7,8 C 75 % 1017,1 hPa 0,0 l/m 0,1 km/h (0 Bft) NW 326 0 min 0,000 mm 0,0 UV-I 124 W/m 7,8 C 12,1 C 1,6 km/h (1 Bft) 100,00 %
03.11.2017 14:28 12,0 C 7,8 C 75 % 1017,1 hPa 0,0 l/m 0,0 km/h (0 Bft) NW 326 0 min 0,000 mm 0,0 UV-I 122 W/m 7,7 C 12,0 C 0,0 km/h (0 Bft) 100,00 %
03.11.2017 14:30 12,1 C 7,8 C 76 % 1017,1 hPa 0,0 l/m 1,8 km/h (1 Bft) N-NW 336 0 min 0,000 mm 0,0 UV-I 121 W/m 8,0 C 12,1 C 4,8 km/h (1 Bft) 98,00 %
03.11.2017 14:32 12,1 C 7,8 C 77 % 1017,1 hPa 0,0 l/m 0,3 km/h (0 Bft) N-NW 336 0 min 0,000 mm 0,0 UV-I 120 W/m 8,2 C 12,1 C 1,6 km/h (1 Bft) 96,00 %
03.11.2017 14:34 12,1 C 7,8 C 76 % 1017,1 hPa 0,0 l/m 3,3 km/h (1 Bft) O-SO 104 0 min 0,000 mm 0,0 UV-I 112 W/m 8,0 C 12,1 C 4,8 km/h (1 Bft) 100,00 %
03.11.2017 14:36 11,9 C 7,8 C 77 % 1017,0 hPa 0,0 l/m 3,0 km/h (1 Bft) O-SO 104 0 min 0,000 mm 0,0 UV-I 106 W/m 8,0 C 11,9 C 4,8 km/h (1 Bft) 100,00 %
03.11.2017 14:38 11,9 C 7,8 C 78 % 1017,0 hPa 0,0 l/m 2,4 km/h (1 Bft) O-SO 104 0 min 0,000 mm 0,0 UV-I 111 W/m 8,2 C 11,9 C 3,2 km/h (1 Bft) 100,00 %
03.11.2017 14:40 11,9 C 7,8 C 78 % 1017,1 hPa 0,0 l/m 2,0 km/h (1 Bft) O-SO 104 0 min 0,000 mm 0,0 UV-I 113 W/m 8,2 C 11,9 C 3,2 km/h (1 Bft) 100,00 %
03.11.2017 14:42 11,9 C 7,8 C 78 % 1017,1 hPa 0,0 l/m 0,5 km/h (0 Bft) O-SO 104 0 min 0,000 mm 0,0 UV-I 108 W/m 8,2 C 11,9 C 1,6 km/h (1 Bft) 97,73 %
03.11.2017 14:44 11,9 C 7,8 C 78 % 1017,1 hPa 0,0 l/m 2,2 km/h (1 Bft) O-SO 104 0 min 0,000 mm 0,0 UV-I 107 W/m 8,2 C 11,9 C 4,8 km/h (1 Bft) 100,00 %
03.11.2017 14:46 11,9 C 7,8 C 78 % 1017,1 hPa 0,0 l/m 2,2 km/h (1 Bft) O-SO 104 0 min 0,000 mm 0,0 UV-I 104 W/m 8,2 C 11,9 C 3,2 km/h (1 Bft) 97,87 %
03.11.2017 14:48 11,8 C 7,8 C 77 % 1017,0 hPa 0,0 l/m 1,9 km/h (1 Bft) O-SO 104 0 min 0,000 mm 0,0 UV-I 98 W/m 7,9 C 11,8 C 3,2 km/h (1 Bft) 95,74 %
03.11.2017 14:50 11,8 C 7,8 C 77 % 1017,0 hPa 0,0 l/m 3,0 km/h (1 Bft) O-SO 104 0 min 0,000 mm 0,0 UV-I 96 W/m 7,9 C 11,8 C 4,8 km/h (1 Bft) 100,00 %
03.11.2017 14:52 11,8 C 7,8 C 77 % 1017,0 hPa 0,0 l/m 2,3 km/h (1 Bft) O-SO 104 0 min 0,000 mm 0,0 UV-I 97 W/m 7,9 C 11,8 C 3,2 km/h (1 Bft) 100,00 %
03.11.2017 14:54 11,8 C 7,8 C 78 % 1017,0 hPa 0,0 l/m 2,2 km/h (1 Bft) O-SO 104 0 min 0,000 mm 0,0 UV-I 95 W/m 8,1 C 11,8 C 3,2 km/h (1 Bft) 100,00 %
03.11.2017 14:56 11,8 C 7,8 C 78 % 1017,0 hPa 0,0 l/m 1,6 km/h (1 Bft) O-SO 104 0 min 0,000 mm 0,0 UV-I 95 W/m 8,1 C 11,8 C 3,2 km/h (1 Bft) 100,00 %
03.11.2017 14:58 11,8 C 7,8 C 79 % 1017,0 hPa 0,0 l/m 2,2 km/h (1 Bft) O-SO 104 0 min 0,000 mm 0,0 UV-I 95 W/m 8,3 C 11,8 C 3,2 km/h (1 Bft) 100,00 %
03.11.2017 15:00 11,8 C 7,8 C 79 % 1017,0 hPa 0,0 l/m 2,2 km/h (1 Bft) O-SO 104 0 min 0,076 mm 0,0 UV-I 95 W/m 8,3 C 11,8 C 3,2 km/h (1 Bft) 98,00 %
03.11.2017 15:02 11,8 C 7,8 C 77 % 1017,0 hPa 0,0 l/m 1,3 km/h (1 Bft) O-SO 104 0 min 0,000 mm 0,0 UV-I 95 W/m 7,9 C 11,8 C 3,2 km/h (1 Bft) 100,00 %
03.11.2017 15:04 11,8 C 7,8 C 76 % 1017,0 hPa 0,0 l/m 0,8 km/h (0 Bft) O-SO 104 0 min 0,000 mm 0,0 UV-I 92 W/m 7,7 C 11,8 C 1,6 km/h (1 Bft) 100,00 %
03.11.2017 15:06 11,8 C 7,8 C 78 % 1017,0 hPa 0,0 l/m 1,6 km/h (1 Bft) O-SO 104 0 min 0,000 mm 0,0 UV-I 86 W/m 8,1 C 11,8 C 3,2 km/h (1 Bft) 97,87 %
03.11.2017 15:08 11,8 C 7,8 C 78 % 1017,0 hPa 0,0 l/m 1,6 km/h (1 Bft) O-SO 104 0 min 0,000 mm 0,0 UV-I 83 W/m 8,1 C 11,8 C 3,2 km/h (1 Bft) 100,00 %
03.11.2017 15:10 11,8 C 7,8 C 77 % 1017,0 hPa 0,0 l/m 1,6 km/h (1 Bft) O-SO 104 0 min 0,000 mm 0,0 UV-I 84 W/m 7,9 C 11,8 C 3,2 km/h (1 Bft) 100,00 %
03.11.2017 15:12 11,8 C 7,8 C 77 % 1017,0 hPa 0,0 l/m 1,6 km/h (1 Bft) O-SO 104 0 min 0,000 mm 0,0 UV-I 88 W/m 7,9 C 11,8 C 3,2 km/h (1 Bft) 100,00 %
03.11.2017 15:14 11,8 C 7,8 C 78 % 1016,9 hPa 0,0 l/m 2,2 km/h (1 Bft) O-SO 104 0 min 0,000 mm 0,0 UV-I 92 W/m 8,1 C 11,8 C 3,2 km/h (1 Bft) 100,00 %
03.11.2017 15:16 11,8 C 7,8 C 77 % 1016,9 hPa 0,0 l/m 2,5 km/h (1 Bft) O-SO 104 2 min 0,000 mm 0,0 UV-I 126 W/m 7,9 C 11,8 C 3,2 km/h (1 Bft) 100,00 %
03.11.2017 15:18 11,8 C 7,8 C 77 % 1016,9 hPa 0,0 l/m 2,5 km/h (1 Bft) O-SO 104 2 min 0,000 mm 0,0 UV-I 118 W/m 7,9 C 11,8 C 3,2 km/h (1 Bft) 98,00 %
03.11.2017 15:20 11,8 C 7,8 C 79 % 1016,9 hPa 0,0 l/m 1,5 km/h (1 Bft) O-SO 104 2 min 0,000 mm 0,0 UV-I 125 W/m 8,3 C 11,8 C 3,2 km/h (1 Bft) 100,00 %
03.11.2017 15:22 11,8 C 7,8 C 78 % 1016,9 hPa 0,0 l/m 3,4 km/h (1 Bft) O-SO 104 2 min 0,000 mm 0,0 UV-I 167 W/m 8,1 C 11,8 C 4,8 km/h (1 Bft) 98,00 %
03.11.2017 15:24 11,9 C 7,8 C 78 % 1016,9 hPa 0,0 l/m 3,4 km/h (1 Bft) O-SO 104 2 min 0,000 mm 0,0 UV-I 175 W/m 8,2 C 11,9 C 4,8 km/h (1 Bft) 100,00 %
03.11.2017 15:26 11,9 C 7,8 C 78 % 1016,8 hPa 0,0 l/m 3,5 km/h (1 Bft) O-SO 103 2 min 0,000 mm 0,0 UV-I 173 W/m 8,2 C 11,9 C 6,4 km/h (2 Bft) 100,00 %
03.11.2017 15:28 11,9 C 8,3 C 78 % 1016,9 hPa 0,0 l/m 4,1 km/h (1 Bft) O-SO 103 2 min 0,000 mm 0,0 UV-I 163 W/m 8,2 C 11,9 C 4,8 km/h (1 Bft) 97,87 %
03.11.2017 15:30 11,9 C 7,8 C 77 % 1016,8 hPa 0,0 l/m 3,7 km/h (1 Bft) O-SO 103 2 min 0,000 mm 0,0 UV-I 145 W/m 8,0 C 11,9 C 4,8 km/h (1 Bft) 100,00 %
03.11.2017 15:32 11,9 C 7,8 C 77 % 1016,8 hPa 0,0 l/m 3,9 km/h (1 Bft) O-SO 103 2 min 0,000 mm 0,0 UV-I 128 W/m 8,0 C 11,9 C 4,8 km/h (1 Bft) 100,00 %
03.11.2017 15:34 11,9 C 7,8 C 77 % 1016,8 hPa 0,0 l/m 5,2 km/h (1 Bft) O-SO 103 2 min 0,000 mm 0,0 UV-I 116 W/m 8,0 C 11,9 C 9,7 km/h (2 Bft) 97,87 %
03.11.2017 15:36 11,9 C 7,8 C 77 % 1016,8 hPa 0,0 l/m 4,3 km/h (1 Bft) O-SO 103 2 min 0,000 mm 0,0 UV-I 111 W/m 8,0 C 11,9 C 6,4 km/h (2 Bft) 100,00 %
03.11.2017 15:38 11,8 C 7,8 C 78 % 1016,8 hPa 0,0 l/m 3,5 km/h (1 Bft) O-SO 103 2 min 0,000 mm 0,0 UV-I 105 W/m 8,1 C 11,8 C 4,8 km/h (1 Bft) 100,00 %
03.11.2017 15:40 11,7 C 8,3 C 77 % 1016,8 hPa 0,0 l/m 3,2 km/h (1 Bft) O-SO 103 2 min 0,000 mm 0,0 UV-I 99 W/m 7,8 C 11,7 C 4,8 km/h (1 Bft) 97,78 %
03.11.2017 15:42 11,7 C 7,8 C 78 % 1016,8 hPa 0,0 l/m 3,0 km/h (1 Bft) O-SO 103 2 min 0,000 mm 0,0 UV-I 93 W/m 8,0 C 11,7 C 4,8 km/h (1 Bft) 97,87 %
03.11.2017 15:44 11,6 C 7,8 C 79 % 1016,8 hPa 0,0 l/m 4,2 km/h (1 Bft) O-SO 103 2 min 0,000 mm 0,0 UV-I 89 W/m 8,1 C 11,6 C 6,4 km/h (2 Bft) 97,87 %
03.11.2017 15:46 11,5 C 7,8 C 79 % 1016,8 hPa 0,0 l/m 4,1 km/h (1 Bft) O-SO 103 2 min 0,000 mm 0,0 UV-I 85 W/m 8,0 C 11,5 C 6,4 km/h (2 Bft) 98,00 %
03.11.2017 15:48 11,4 C 8,3 C 80 % 1016,8 hPa 0,0 l/m 4,3 km/h (1 Bft) O-SO 103 2 min 0,000 mm 0,0 UV-I 81 W/m 8,1 C 11,4 C 6,4 km/h (2 Bft) 97,67 %
03.11.2017 15:50 11,4 C 7,8 C 80 % 1016,8 hPa 0,0 l/m 5,1 km/h (1 Bft) O-SO 103 2 min 0,000 mm 0,0 UV-I 78 W/m 8,1 C 11,4 C 6,4 km/h (2 Bft) 97,87 %
03.11.2017 15:52 11,3 C 7,8 C 81 % 1016,8 hPa 0,0 l/m 3,7 km/h (1 Bft) O-SO 103 2 min 0,000 mm 0,0 UV-I 72 W/m 8,2 C 11,3 C 4,8 km/h (1 Bft) 97,56 %
03.11.2017 15:54 11,2 C 8,3 C 81 % 1016,8 hPa 0,0 l/m 2,8 km/h (1 Bft) O-SO 103 2 min 0,000 mm 0,0 UV-I 69 W/m 8,1 C 11,2 C 4,8 km/h (1 Bft) 97,14 %
03.11.2017 15:56 11,2 C 7,8 C 81 % 1016,8 hPa 0,0 l/m 3,7 km/h (1 Bft) O-SO 103 2 min 0,000 mm 0,0 UV-I 66 W/m 8,1 C 11,2 C 4,8 km/h (1 Bft) 96,77 %
03.11.2017 15:59 11,1 C 7,8 C 81 % 1016,8 hPa 0,0 l/m 4,7 km/h (1 Bft) O-SO 121 3 min 0,000 mm 0,0 UV-I 62 W/m 8,0 C 11,1 C 6,4 km/h (2 Bft) 97,37 %
03.11.2017 16:00 11,1 C 7,8 C 81 % 1016,8 hPa 0,0 l/m 6,1 km/h (2 Bft) O-SO 121 1 min 0,000 mm 0,0 UV-I 59 W/m 8,0 C 11,1 C 6,4 km/h (2 Bft) 91,67 %
03.11.2017 16:02 11,1 C 8,3 C 81 % 1016,8 hPa 0,0 l/m 4,9 km/h (1 Bft) O-SO 121 2 min 0,051 mm 0,0 UV-I 55 W/m 8,0 C 11,1 C 8,0 km/h (2 Bft) 98,00 %
03.11.2017 16:04 11,1 C 7,8 C 81 % 1016,7 hPa 0,0 l/m 4,8 km/h (1 Bft) O-SO 121 2 min 0,000 mm 0,0 UV-I 50 W/m 8,0 C 11,1 C 6,4 km/h (2 Bft) 98,00 %
03.11.2017 16:06 10,9 C 8,3 C 81 % 1016,7 hPa 0,0 l/m 3,9 km/h (1 Bft) O-SO 121 2 min 0,000 mm 0,0 UV-I 47 W/m 7,8 C 10,9 C 6,4 km/h (2 Bft) 96,23 %
03.11.2017 16:08 10,9 C 8,3 C 81 % 1016,8 hPa 0,0 l/m 4,6 km/h (1 Bft) O-SO 121 2 min 0,000 mm 0,0 UV-I 44 W/m 7,8 C 10,9 C 6,4 km/h (2 Bft) 97,22 %
03.11.2017 16:10 10,8 C 8,3 C 82 % 1016,7 hPa 0,0 l/m 4,0 km/h (1 Bft) O-SO 121 2 min 0,000 mm 0,0 UV-I 40 W/m 7,9 C 10,8 C 6,4 km/h (2 Bft) 98,11 %
03.11.2017 16:12 10,8 C 8,3 C 82 % 1016,7 hPa 0,0 l/m 4,7 km/h (1 Bft) O-SO 121 2 min 0,000 mm 0,0 UV-I 38 W/m 7,9 C 10,8 C 6,4 km/h (2 Bft) 96,00 %
03.11.2017 16:14 10,8 C 8,3 C 82 % 1016,8 hPa 0,0 l/m 2,7 km/h (1 Bft) O-SO 121 2 min 0,000 mm 0,0 UV-I 35 W/m 7,9 C 10,8 C 3,2 km/h (1 Bft) 97,87 %
03.11.2017 16:16 10,7 C 8,3 C 82 % 1016,7 hPa 0,0 l/m 2,9 km/h (1 Bft) O-SO 121 2 min 0,000 mm 0,0 UV-I 32 W/m 7,8 C 10,7 C 4,8 km/h (1 Bft) 97,87 %
03.11.2017 16:18 10,7 C 7,8 C 82 % 1016,7 hPa 0,0 l/m 3,7 km/h (1 Bft) O-SO 121 2 min 0,000 mm 0,0 UV-I 31 W/m 7,8 C 10,7 C 4,8 km/h (1 Bft) 97,44 %
03.11.2017 16:20 10,7 C 7,8 C 82 % 1016,7 hPa 0,0 l/m 3,5 km/h (1 Bft) O-SO 121 2 min 0,000 mm 0,0 UV-I 28 W/m 7,8 C 10,7 C 4,8 km/h (1 Bft) 98,21 %
03.11.2017 16:22 10,6 C 8,3 C 82 % 1016,7 hPa 0,0 l/m 4,5 km/h (1 Bft) O-SO 121 2 min 0,000 mm 0,0 UV-I 26 W/m 7,7 C 10,6 C 6,4 km/h (2 Bft) 97,37 %
03.11.2017 16:24 10,5 C 7,8 C 82 % 1016,7 hPa 0,0 l/m 3,8 km/h (1 Bft) O-SO 121 2 min 0,000 mm 0,0 UV-I 24 W/m 7,6 C 10,5 C 6,4 km/h (2 Bft) 95,45 %
03.11.2017 16:26 10,4 C 8,3 C 83 % 1016,7 hPa 0,0 l/m 4,5 km/h (1 Bft) O-SO 121 2 min 0,000 mm 0,0 UV-I 21 W/m 7,6 C 10,4 C 6,4 km/h (2 Bft) 100,00 %
03.11.2017 16:28 10,3 C 7,8 C 83 % 1016,7 hPa 0,0 l/m 5,2 km/h (1 Bft) O-SO 120 2 min 0,000 mm 0,0 UV-I 20 W/m 7,5 C 10,3 C 6,4 km/h (2 Bft) 100,00 %
03.11.2017 16:30 10,3 C 7,8 C 83 % 1016,7 hPa 0,0 l/m 4,7 km/h (1 Bft) O-SO 103 2 min 0,000 mm 0,0 UV-I 18 W/m 7,5 C 10,3 C 6,4 km/h (2 Bft) 100,00 %
03.11.2017 16:32 10,3 C 8,3 C 83 % 1016,6 hPa 0,0 l/m 4,8 km/h (1 Bft) O 99 0 min 0,000 mm 0,0 UV-I 16 W/m 7,5 C 10,3 C 6,4 km/h (2 Bft) 98,00 %
03.11.2017 16:34 10,2 C 8,3 C 83 % 1016,6 hPa 0,0 l/m 4,6 km/h (1 Bft) O 88 0 min 0,000 mm 0,0 UV-I 14 W/m 7,4 C 10,2 C 6,4 km/h (2 Bft) 100,00 %
03.11.2017 16:36 10,1 C 8,3 C 84 % 1016,6 hPa 0,0 l/m 4,8 km/h (1 Bft) O 88 0 min 0,000 mm 0,0 UV-I 12 W/m 7,5 C 10,1 C 6,4 km/h (2 Bft) 100,00 %
03.11.2017 16:38 9,9 C 8,3 C 84 % 1016,6 hPa 0,0 l/m 5,2 km/h (1 Bft) O 88 0 min 0,000 mm 0,0 UV-I 12 W/m 7,3 C 9,9 C 6,4 km/h (2 Bft) 100,00 %
03.11.2017 16:40 10,0 C 8,3 C 84 % 1016,6 hPa 0,0 l/m 6,2 km/h (2 Bft) O 80 0 min 0,000 mm 0,0 UV-I 11 W/m 7,4 C 10,0 C 8,0 km/h (2 Bft) 100,00 %
03.11.2017 16:42 10,1 C 8,3 C 84 % 1016,6 hPa 0,0 l/m 6,2 km/h (2 Bft) O 80 0 min 0,000 mm 0,0 UV-I 9 W/m 7,5 C 10,1 C 8,0 km/h (2 Bft) 93,62 %
03.11.2017 16:44 10,2 C 8,3 C 83 % 1016,6 hPa 0,0 l/m 6,6 km/h (2 Bft) O 81 0 min 0,000 mm 0,0 UV-I 9 W/m 7,4 C 10,1 C 8,0 km/h (2 Bft) 97,37 %
03.11.2017 16:46 10,0 C 8,3 C 83 % 1016,6 hPa 0,0 l/m 6,0 km/h (2 Bft) O 80 0 min 0,000 mm 0,0 UV-I 8 W/m 7,2 C 10,0 C 8,0 km/h (2 Bft) 100,00 %
03.11.2017 16:48 9,9 C 8,3 C 84 % 1016,5 hPa 0,0 l/m 6,3 km/h (2 Bft) O-NO 78 0 min 0,000 mm 0,0 UV-I 7 W/m 7,3 C 9,9 C 11,3 km/h (2 Bft) 100,00 %
03.11.2017 16:50 10,1 C 8,3 C 83 % 1016,5 hPa 0,0 l/m 6,7 km/h (2 Bft) O 80 0 min 0,000 mm 0,0 UV-I 7 W/m 7,3 C 9,9 C 11,3 km/h (2 Bft) 100,00 %
03.11.2017 16:52 10,2 C 8,3 C 83 % 1016,5 hPa 0,0 l/m 6,5 km/h (2 Bft) O-NO 77 0 min 0,000 mm 0,0 UV-I 5 W/m 7,4 C 10,2 C 9,7 km/h (2 Bft) 97,73 %
03.11.2017 16:54 10,2 C 8,3 C 82 % 1016,5 hPa 0,0 l/m 7,4 km/h (2 Bft) O-NO 74 0 min 0,000 mm 0,0 UV-I 5 W/m 7,3 C 9,5 C 11,3 km/h (2 Bft) 100,00 %
03.11.2017 16:56 10,2 C 7,8 C 82 % 1016,5 hPa 0,0 l/m 6,4 km/h (2 Bft) O-NO 78 0 min 0,000 mm 0,0 UV-I 5 W/m 7,3 C 10,2 C 11,3 km/h (2 Bft) 100,00 %
03.11.2017 16:58 10,2 C 8,3 C 82 % 1016,5 hPa 0,0 l/m 6,1 km/h (2 Bft) O-NO 76 0 min 0,000 mm 0,0 UV-I 5 W/m 7,3 C 10,2 C 9,7 km/h (2 Bft) 97,87 %
03.11.2017 17:00 10,1 C 8,3 C 82 % 1016,5 hPa 0,0 l/m 5,9 km/h (2 Bft) O 90 0 min 0,000 mm 0,0 UV-I 3 W/m 7,2 C 10,1 C 11,3 km/h (2 Bft) 97,62 %
03.11.2017 17:02 10,2 C 8,3 C 82 % 1016,5 hPa 0,0 l/m 6,0 km/h (2 Bft) O-NO 72 0 min 0,025 mm 0,0 UV-I 0 W/m 7,3 C 10,2 C 9,7 km/h (2 Bft) 98,00 %
03.11.2017 17:04 10,1 C 8,3 C 82 % 1016,5 hPa 0,0 l/m 4,6 km/h (1 Bft) O-NO 71 0 min 0,000 mm 0,0 UV-I 0 W/m 7,2 C 10,1 C 6,4 km/h (2 Bft) 94,74 %
03.11.2017 17:06 9,9 C 8,3 C 83 % 1016,5 hPa 0,0 l/m 5,9 km/h (2 Bft) O 83 0 min 0,000 mm 0,0 UV-I 0 W/m 7,2 C 9,9 C 6,4 km/h (2 Bft) 96,23 %
03.11.2017 17:08 9,7 C 8,3 C 83 % 1016,5 hPa 0,0 l/m 6,3 km/h (2 Bft) O 80 0 min 0,000 mm 0,0 UV-I 0 W/m 7,0 C 9,7 C 8,0 km/h (2 Bft) 100,00 %
03.11.2017 17:10 9,7 C 8,3 C 84 % 1016,5 hPa 0,0 l/m 6,3 km/h (2 Bft) O 101 0 min 0,000 mm 0,0 UV-I 0 W/m 7,1 C 9,7 C 11,3 km/h (2 Bft) 96,23 %
03.11.2017 17:12 9,7 C 8,3 C 84 % 1016,5 hPa 0,0 l/m 5,3 km/h (1 Bft) O 94 0 min 0,000 mm 0,0 UV-I 0 W/m 7,1 C 9,7 C 6,4 km/h (2 Bft) 97,56 %
03.11.2017 17:14 9,7 C 8,3 C 84 % 1016,6 hPa 0,0 l/m 5,2 km/h (1 Bft) O 80 0 min 0,000 mm 0,0 UV-I 0 W/m 7,1 C 9,7 C 8,0 km/h (2 Bft) 96,00 %
03.11.2017 17:16 9,7 C 8,3 C 84 % 1016,5 hPa 0,0 l/m 5,1 km/h (1 Bft) O 83 0 min 0,000 mm 0,0 UV-I 0 W/m 7,1 C 9,7 C 8,0 km/h (2 Bft) 96,23 %
03.11.2017 17:18 9,7 C 8,3 C 84 % 1016,6 hPa 0,0 l/m 5,4 km/h (1 Bft) O 98 0 min 0,000 mm 0,0 UV-I 0 W/m 7,1 C 9,7 C 9,7 km/h (2 Bft) 97,56 %
03.11.2017 17:20 9,7 C 8,3 C 84 % 1016,6 hPa 0,0 l/m 7,3 km/h (2 Bft) O 93 0 min 0,000 mm 0,0 UV-I 0 W/m 7,1 C 9,0 C 11,3 km/h (2 Bft) 98,11 %
03.11.2017 17:22 9,7 C 8,3 C 84 % 1016,6 hPa 0,0 l/m 7,8 km/h (2 Bft) O 82 0 min 0,000 mm 0,0 UV-I 0 W/m 7,1 C 8,7 C 12,9 km/h (3 Bft) 97,37 %
03.11.2017 17:24 9,7 C 8,3 C 84 % 1016,6 hPa 0,0 l/m 6,5 km/h (2 Bft) O 85 0 min 0,000 mm 0,0 UV-I 0 W/m 7,1 C 9,7 C 11,3 km/h (2 Bft) 98,00 %
03.11.2017 17:26 9,7 C 8,3 C 84 % 1016,5 hPa 0,0 l/m 6,3 km/h (2 Bft) O 79 0 min 0,000 mm 0,0 UV-I 0 W/m 7,1 C 9,7 C 11,3 km/h (2 Bft) 98,00 %
03.11.2017 17:28 9,7 C 8,3 C 84 % 1016,5 hPa 0,0 l/m 6,3 km/h (2 Bft) O-SO 103 0 min 0,000 mm 0,0 UV-I 0 W/m 7,1 C 9,7 C 9,7 km/h (2 Bft) 93,62 %
03.11.2017 17:30 9,8 C 8,3 C 84 % 1016,5 hPa 0,0 l/m 6,6 km/h (2 Bft) O 88 0 min 0,000 mm 0,0 UV-I 0 W/m 7,2 C 9,7 C 12,9 km/h (3 Bft) 95,74 %
03.11.2017 17:33 9,8 C 8,3 C 84 % 1016,5 hPa 0,0 l/m 6,4 km/h (2 Bft) O-SO 117 0 min 0,000 mm 0,0 UV-I 0 W/m 7,2 C 9,8 C 11,3 km/h (2 Bft) 96,92 %
03.11.2017 17:34 9,8 C 8,3 C 84 % 1016,5 hPa 0,0 l/m 7,2 km/h (2 Bft) O 90 0 min 0,000 mm 0,0 UV-I 0 W/m 7,2 C 9,2 C 9,7 km/h (2 Bft) 96,15 %
03.11.2017 17:36 9,7 C 8,3 C 84 % 1016,5 hPa 0,0 l/m 6,0 km/h (2 Bft) O 83 0 min 0,000 mm 0,0 UV-I 0 W/m 7,1 C 9,7 C 11,3 km/h (2 Bft) 98,00 %
03.11.2017 17:38 9,7 C 8,3 C 84 % 1016,5 hPa 0,0 l/m 4,7 km/h (1 Bft) O-SO 113 0 min 0,000 mm 0,0 UV-I 0 W/m 7,1 C 9,7 C 8,0 km/h (2 Bft) 96,00 %
03.11.2017 17:40 9,8 C 8,3 C 84 % 1016,4 hPa 0,0 l/m 6,9 km/h (2 Bft) O 84 0 min 0,000 mm 0,0 UV-I 0 W/m 7,2 C 9,4 C 11,3 km/h (2 Bft) 97,62 %
03.11.2017 17:42 9,7 C 8,3 C 84 % 1016,5 hPa 0,0 l/m 5,4 km/h (1 Bft) O 84 0 min 0,000 mm 0,0 UV-I 0 W/m 7,1 C 9,7 C 11,3 km/h (2 Bft) 97,87 %
03.11.2017 17:44 9,7 C 8,3 C 84 % 1016,5 hPa 0,0 l/m 4,8 km/h (1 Bft) O 82 0 min 0,000 mm 0,0 UV-I 0 W/m 7,1 C 9,7 C 6,4 km/h (2 Bft) 98,00 %
03.11.2017 17:46 9,6 C 8,3 C 84 % 1016,5 hPa 0,0 l/m 5,2 km/h (1 Bft) O 83 0 min 0,000 mm 0,0 UV-I 0 W/m 7,0 C 9,6 C 9,7 km/h (2 Bft) 97,87 %
03.11.2017 17:49 9,3 C 8,3 C 84 % 1016,5 hPa 0,0 l/m 4,5 km/h (1 Bft) O 101 0 min 0,000 mm 0,0 UV-I 0 W/m 6,7 C 9,3 C 9,7 km/h (2 Bft) 97,26 %
03.11.2017 17:50 9,2 C 8,3 C 84 % 1016,5 hPa 0,0 l/m 4,8 km/h (1 Bft) O 100 0 min 0,000 mm 0,0 UV-I 0 W/m 6,6 C 9,2 C 6,4 km/h (2 Bft) 100,00 %
03.11.2017 17:52 9,1 C 8,3 C 85 % 1016,5 hPa 0,0 l/m 4,9 km/h (1 Bft) O 98 0 min 0,000 mm 0,0 UV-I 0 W/m 6,7 C 9,1 C 9,7 km/h (2 Bft) 94,00 %
03.11.2017 17:54 9,0 C 8,3 C 86 % 1016,4 hPa 0,0 l/m 8,0 km/h (2 Bft) O 84 0 min 0,000 mm 0,0 UV-I 0 W/m 6,8 C 7,8 C 11,3 km/h (2 Bft) 98,00 %
03.11.2017 17:56 9,1 C 8,3 C 86 % 1016,5 hPa 0,0 l/m 6,5 km/h (2 Bft) O 98 0 min 0,000 mm 0,0 UV-I 0 W/m 6,9 C 9,1 C 11,3 km/h (2 Bft) 97,87 %
03.11.2017 17:58 9,1 C 8,3 C 86 % 1016,5 hPa 0,0 l/m 9,7 km/h (2 Bft) O 91 0 min 0,000 mm 0,0 UV-I 0 W/m 6,9 C 6,8 C 12,9 km/h (3 Bft) 97,56 %
03.11.2017 18:00 9,2 C 8,3 C 86 % 1016,5 hPa 0,0 l/m 6,2 km/h (2 Bft) O 82 0 min 0,026 mm 0,0 UV-I 0 W/m 7,0 C 9,2 C 11,3 km/h (2 Bft) 98,00 %
03.11.2017 18:02 9,4 C 8,3 C 86 % 1016,4 hPa 0,0 l/m 6,7 km/h (2 Bft) O-NO 74 0 min 0,000 mm 0,0 UV-I 0 W/m 7,2 C 9,2 C 9,7 km/h (2 Bft) 100,00 %
03.11.2017 18:04 9,3 C 8,3 C 85 % 1016,5 hPa 0,0 l/m 6,9 km/h (2 Bft) O 79 0 min 0,000 mm 0,0 UV-I 0 W/m 6,9 C 8,9 C 9,7 km/h (2 Bft) 100,00 %
03.11.2017 18:06 9,2 C 8,3 C 86 % 1016,5 hPa 0,0 l/m 4,9 km/h (1 Bft) O 82 0 min 0,000 mm 0,0 UV-I 0 W/m 7,0 C 9,2 C 6,4 km/h (2 Bft) 100,00 %
03.11.2017 18:08 9,2 C 8,3 C 86 % 1016,5 hPa 0,0 l/m 5,5 km/h (1 Bft) O 86 0 min 0,000 mm 0,0 UV-I 0 W/m 7,0 C 9,2 C 11,3 km/h (2 Bft) 98,39 %
03.11.2017 18:10 9,2 C 8,3 C 86 % 1016,4 hPa 0,0 l/m 5,6 km/h (1 Bft) O 87 0 min 0,000 mm 0,0 UV-I 0 W/m 7,0 C 9,2 C 9,7 km/h (2 Bft) 97,73 %
03.11.2017 18:12 9,3 C 8,3 C 86 % 1016,5 hPa 0,0 l/m 6,8 km/h (2 Bft) O 80 0 min 0,000 mm 0,0 UV-I 0 W/m 7,1 C 9,0 C 11,3 km/h (2 Bft) 100,00 %
03.11.2017 18:15 9,4 C 8,3 C 85 % 1016,5 hPa 0,0 l/m 7,2 km/h (2 Bft) O-NO 76 0 min 0,000 mm 0,0 UV-I 0 W/m 7,0 C 8,8 C 12,9 km/h (3 Bft) 97,37 %
03.11.2017 18:16 9,4 C 8,3 C 85 % 1016,5 hPa 0,0 l/m 5,7 km/h (1 Bft) O 89 0 min 0,000 mm 0,0 UV-I 0 W/m 7,0 C 9,4 C 9,7 km/h (2 Bft) 100,00 %
03.11.2017 18:20 9,4 C 8,3 C 85 % 1016,6 hPa 0,0 l/m 8,9 km/h (2 Bft) O 97 0 min 0,000 mm 0,0 UV-I 0 W/m 7,0 C 7,6 C 14,5 km/h (3 Bft) 97,30 %
03.11.2017 18:22 9,4 C 8,3 C 85 % 1016,5 hPa 0,0 l/m 6,5 km/h (2 Bft) O 95 0 min 0,000 mm 0,0 UV-I 0 W/m 7,0 C 9,4 C 9,7 km/h (2 Bft) 97,44 %
03.11.2017 18:24 9,4 C 8,3 C 85 % 1016,5 hPa 0,0 l/m 8,3 km/h (2 Bft) O-NO 71 0 min 0,000 mm 0,0 UV-I 0 W/m 7,0 C 8,0 C 12,9 km/h (3 Bft) 98,11 %
03.11.2017 18:26 9,3 C 8,3 C 85 % 1016,5 hPa 0,0 l/m 6,9 km/h (2 Bft) O 80 0 min 0,000 mm 0,0 UV-I 0 W/m 6,9 C 8,9 C 12,9 km/h (3 Bft) 97,87 %
03.11.2017 18:28 9,2 C 8,3 C 85 % 1016,4 hPa 0,0 l/m 6,1 km/h (2 Bft) O 90 0 min 0,000 mm 0,0 UV-I 0 W/m 6,8 C 9,2 C 11,3 km/h (2 Bft) 97,37 %
03.11.2017 18:30 9,1 C 8,3 C 86 % 1016,5 hPa 0,0 l/m 5,2 km/h (1 Bft) O-NO 73 0 min 0,000 mm 0,0 UV-I 0 W/m 6,9 C 9,1 C 8,0 km/h (2 Bft) 96,43 %
03.11.2017 18:32 9,1 C 8,3 C 86 % 1016,4 hPa 0,0 l/m 7,1 km/h (2 Bft) O-NO 74 0 min 0,000 mm 0,0 UV-I 0 W/m 6,9 C 8,6 C 12,9 km/h (3 Bft) 95,12 %
03.11.2017 18:34 9,1 C 8,3 C 86 % 1016,4 hPa 0,0 l/m 6,1 km/h (2 Bft) O-NO 69 0 min 0,000 mm 0,0 UV-I 0 W/m 6,9 C 9,1 C 9,7 km/h (2 Bft) 97,56 %
03.11.2017 18:36 9,1 C 8,3 C 86 % 1016,4 hPa 0,0 l/m 7,6 km/h (2 Bft) O-NO 74 0 min 0,000 mm 0,0 UV-I 0 W/m 6,9 C 8,2 C 12,9 km/h (3 Bft) 98,11 %
03.11.2017 18:38 9,1 C 8,3 C 86 % 1016,4 hPa 0,0 l/m 7,0 km/h (2 Bft) O-NO 74 0 min 0,000 mm 0,0 UV-I 0 W/m 6,9 C 8,7 C 11,3 km/h (2 Bft) 98,11 %
03.11.2017 18:40 9,1 C 8,3 C 86 % 1016,4 hPa 0,0 l/m 7,6 km/h (2 Bft) O-NO 65 0 min 0,000 mm 0,0 UV-I 0 W/m 6,9 C 8,2 C 14,5 km/h (3 Bft) 97,37 %
03.11.2017 18:42 9,0 C 8,3 C 86 % 1016,3 hPa 0,0 l/m 7,9 km/h (2 Bft) O-NO 64 0 min 0,000 mm 0,0 UV-I 0 W/m 6,8 C 7,9 C 14,5 km/h (3 Bft) 97,56 %
03.11.2017 18:44 9,0 C 8,3 C 86 % 1016,3 hPa 0,0 l/m 7,7 km/h (2 Bft) O 87 0 min 0,000 mm 0,0 UV-I 0 W/m 6,8 C 8,0 C 11,3 km/h (2 Bft) 98,11 %
03.11.2017 18:46 9,0 C 8,3 C 86 % 1016,3 hPa 0,0 l/m 6,9 km/h (2 Bft) O-NO 74 0 min 0,000 mm 0,0 UV-I 0 W/m 6,8 C 8,6 C 11,3 km/h (2 Bft) 94,34 %
03.11.2017 18:48 8,8 C 8,3 C 86 % 1016,3 hPa 0,0 l/m 6,0 km/h (2 Bft) O 83 0 min 0,000 mm 0,0 UV-I 0 W/m 6,6 C 8,8 C 8,0 km/h (2 Bft) 100,00 %
03.11.2017 18:50 8,7 C 8,3 C 87 % 1016,3 hPa 0,0 l/m 5,2 km/h (1 Bft) O 90 0 min 0,000 mm 0,0 UV-I 0 W/m 6,7 C 8,7 C 6,4 km/h (2 Bft) 100,00 %
03.11.2017 18:52 8,7 C 8,3 C 87 % 1016,3 hPa 0,0 l/m 4,8 km/h (1 Bft) O-NO 71 0 min 0,000 mm 0,0 UV-I 0 W/m 6,7 C 8,7 C 8,0 km/h (2 Bft) 97,87 %
03.11.2017 18:54 8,6 C 8,3 C 87 % 1016,3 hPa 0,0 l/m 6,2 km/h (2 Bft) O 87 0 min 0,000 mm 0,0 UV-I 0 W/m 6,6 C 8,6 C 9,7 km/h (2 Bft) 100,00 %
03.11.2017 18:56 8,5 C 8,3 C 88 % 1016,2 hPa 0,0 l/m 5,6 km/h (1 Bft) O-NO 74 0 min 0,000 mm 0,0 UV-I 0 W/m 6,6 C 8,5 C 8,0 km/h (2 Bft) 96,00 %
03.11.2017 18:58 8,5 C 8,3 C 88 % 1016,3 hPa 0,0 l/m 6,5 km/h (2 Bft) O-NO 78 0 min 0,000 mm 0,0 UV-I 0 W/m 6,6 C 8,4 C 8,0 km/h (2 Bft) 100,00 %
03.11.2017 19:00 8,6 C 8,3 C 88 % 1016,3 hPa 0,0 l/m 6,0 km/h (2 Bft) O-NO 67 0 min 0,000 mm 0,0 UV-I 0 W/m 6,7 C 8,6 C 11,3 km/h (2 Bft) 100,00 %
03.11.2017 19:02 8,6 C 8,3 C 87 % 1016,4 hPa 0,0 l/m 6,1 km/h (2 Bft) O 92 0 min 0,025 mm 0,0 UV-I 0 W/m 6,6 C 8,6 C 8,0 km/h (2 Bft) 100,00 %
03.11.2017 19:04 8,6 C 8,3 C 88 % 1016,3 hPa 0,0 l/m 4,1 km/h (1 Bft) O-NO 76 0 min 0,000 mm 0,0 UV-I 0 W/m 6,7 C 8,6 C 6,4 km/h (2 Bft) 100,00 %
03.11.2017 19:06 8,4 C 8,3 C 87 % 1016,4 hPa 0,0 l/m 3,0 km/h (1 Bft) O 79 0 min 0,000 mm 0,0 UV-I 0 W/m 6,4 C 8,4 C 4,8 km/h (1 Bft) 98,11 %
03.11.2017 19:08 8,3 C 8,3 C 88 % 1016,3 hPa 0,0 l/m 4,5 km/h (1 Bft) O 79 0 min 0,000 mm 0,0 UV-I 0 W/m 6,4 C 8,3 C 6,4 km/h (2 Bft) 95,74 %
03.11.2017 19:10 8,2 C 8,3 C 88 % 1016,3 hPa 0,0 l/m 5,6 km/h (1 Bft) O 98 0 min 0,000 mm 0,0 UV-I 0 W/m 6,3 C 8,2 C 9,7 km/h (2 Bft) 100,00 %
03.11.2017 19:12 8,2 C 8,3 C 88 % 1016,3 hPa 0,0 l/m 6,6 km/h (2 Bft) O 88 0 min 0,000 mm 0,0 UV-I 0 W/m 6,3 C 8,1 C 9,7 km/h (2 Bft) 98,00 %
03.11.2017 19:14 8,1 C 8,3 C 89 % 1016,3 hPa 0,0 l/m 7,9 km/h (2 Bft) O 81 0 min 0,000 mm 0,0 UV-I 0 W/m 6,4 C 6,9 C 12,9 km/h (3 Bft) 98,11 %
03.11.2017 19:16 8,3 C 8,3 C 89 % 1016,3 hPa 0,0 l/m 8,8 km/h (2 Bft) O 88 0 min 0,000 mm 0,0 UV-I 0 W/m 6,6 C 6,5 C 12,9 km/h (3 Bft) 97,37 %
03.11.2017 19:18 8,4 C 8,3 C 88 % 1016,3 hPa 0,0 l/m 7,0 km/h (2 Bft) O 81 0 min 0,000 mm 0,0 UV-I 0 W/m 6,5 C 7,9 C 12,9 km/h (3 Bft) 100,00 %
03.11.2017 19:20 8,4 C 8,3 C 88 % 1016,3 hPa 0,0 l/m 5,3 km/h (1 Bft) O 98 0 min 0,000 mm 0,0 UV-I 0 W/m 6,5 C 8,4 C 8,0 km/h (2 Bft) 100,00 %
03.11.2017 19:22 8,3 C 8,3 C 88 % 1016,3 hPa 0,0 l/m 7,5 km/h (2 Bft) O 88 0 min 0,000 mm 0,0 UV-I 0 W/m 6,4 C 7,4 C 12,9 km/h (3 Bft) 100,00 %
03.11.2017 19:24 8,2 C 8,3 C 88 % 1016,3 hPa 0,0 l/m 5,5 km/h (1 Bft) O 84 0 min 0,000 mm 0,0 UV-I 0 W/m 6,3 C 8,2 C 8,0 km/h (2 Bft) 97,87 %
03.11.2017 19:26 8,3 C 8,3 C 89 % 1016,2 hPa 0,0 l/m 8,7 km/h (2 Bft) O 84 0 min 0,000 mm 0,0 UV-I 0 W/m 6,6 C 6,6 C 12,9 km/h (3 Bft) 100,00 %
03.11.2017 19:28 8,5 C 8,3 C 88 % 1016,2 hPa 0,0 l/m 7,7 km/h (2 Bft) O-NO 65 0 min 0,000 mm 0,0 UV-I 0 W/m 6,6 C 7,5 C 11,3 km/h (2 Bft) 100,00 %
03.11.2017 19:30 8,5 C 8,3 C 88 % 1016,2 hPa 0,0 l/m 7,2 km/h (2 Bft) O 81 0 min 0,000 mm 0,0 UV-I 0 W/m 6,6 C 7,9 C 11,3 km/h (2 Bft) 100,00 %
03.11.2017 19:32 8,5 C 8,3 C 87 % 1016,2 hPa 0,0 l/m 6,0 km/h (2 Bft) O-NO 68 0 min 0,000 mm 0,0 UV-I 0 W/m 6,5 C 8,5 C 9,7 km/h (2 Bft) 100,00 %
03.11.2017 19:34 8,1 C 8,3 C 86 % 1016,1 hPa 0,0 l/m 4,9 km/h (1 Bft) O-NO 67 0 min 0,000 mm 0,0 UV-I 0 W/m 5,9 C 8,1 C 6,4 km/h (2 Bft) 100,00 %
03.11.2017 19:36 7,7 C 8,3 C 88 % 1016,1 hPa 0,0 l/m 4,9 km/h (1 Bft) O-NO 67 0 min 0,000 mm 0,0 UV-I 0 W/m 5,8 C 7,7 C 6,4 km/h (2 Bft) 100,00 %
03.11.2017 19:38 7,6 C 8,3 C 90 % 1016,0 hPa 0,0 l/m 4,4 km/h (1 Bft) O-NO 67 0 min 0,000 mm 0,0 UV-I 0 W/m 6,1 C 7,6 C 6,4 km/h (2 Bft) 98,00 %
03.11.2017 19:40 7,5 C 8,3 C 90 % 1016,1 hPa 0,0 l/m 4,2 km/h (1 Bft) O-NO 67 0 min 0,000 mm 0,0 UV-I 0 W/m 6,0 C 7,5 C 6,4 km/h (2 Bft) 100,00 %
03.11.2017 19:42 7,5 C 8,3 C 90 % 1016,1 hPa 0,0 l/m 4,4 km/h (1 Bft) O-NO 67 0 min 0,000 mm 0,0 UV-I 0 W/m 6,0 C 7,5 C 6,4 km/h (2 Bft) 98,28 %
03.11.2017 19:44 7,5 C 8,3 C 90 % 1016,1 hPa 0,0 l/m 3,8 km/h (1 Bft) O-NO 67 0 min 0,000 mm 0,0 UV-I 0 W/m 6,0 C 7,5 C 4,8 km/h (1 Bft) 100,00 %
03.11.2017 19:46 7,5 C 8,3 C 90 % 1016,1 hPa 0,0 l/m 3,9 km/h (1 Bft) O-NO 67 0 min 0,000 mm 0,0 UV-I 0 W/m 6,0 C 7,5 C 4,8 km/h (1 Bft) 97,14 %
03.11.2017 19:48 7,5 C 8,3 C 90 % 1016,1 hPa 0,0 l/m 4,2 km/h (1 Bft) O-NO 67 0 min 0,000 mm 0,0 UV-I 0 W/m 6,0 C 7,5 C 4,8 km/h (1 Bft) 98,21 %
03.11.2017 19:50 7,5 C 8,3 C 90 % 1016,1 hPa 0,0 l/m 3,8 km/h (1 Bft) O-NO 67 0 min 0,000 mm 0,0 UV-I 0 W/m 6,0 C 7,5 C 6,4 km/h (2 Bft) 100,00 %
03.11.2017 19:52 7,4 C 8,3 C 90 % 1016,1 hPa 0,0 l/m 4,0 km/h (1 Bft) O-NO 67 0 min 0,000 mm 0,0 UV-I 0 W/m 5,9 C 7,4 C 6,4 km/h (2 Bft) 100,00 %
03.11.2017 19:54 7,3 C 8,3 C 90 % 1016,2 hPa 0,0 l/m 4,8 km/h (1 Bft) O-NO 67 0 min 0,000 mm 0,0 UV-I 0 W/m 5,8 C 7,3 C 6,4 km/h (2 Bft) 100,00 %
03.11.2017 19:56 7,4 C 8,3 C 90 % 1016,2 hPa 0,0 l/m 5,4 km/h (1 Bft) O-NO 67 0 min 0,000 mm 0,0 UV-I 0 W/m 5,9 C 7,4 C 8,0 km/h (2 Bft) 98,00 %
03.11.2017 19:58 7,4 C 8,3 C 90 % 1016,2 hPa 0,0 l/m 5,2 km/h (1 Bft) O-NO 61 0 min 0,000 mm 0,0 UV-I 0 W/m 5,9 C 7,4 C 6,4 km/h (2 Bft) 100,00 %
03.11.2017 20:00 7,4 C 8,3 C 90 % 1016,2 hPa 0,0 l/m 5,9 km/h (2 Bft) O-NO 67 0 min 0,000 mm 0,0 UV-I 0 W/m 5,9 C 7,4 C 8,0 km/h (2 Bft) 100,00 %
03.11.2017 20:02 7,4 C 8,3 C 90 % 1016,2 hPa 0,0 l/m 4,7 km/h (1 Bft) O-NO 66 0 min 0,000 mm 0,0 UV-I 0 W/m 5,9 C 7,4 C 6,4 km/h (2 Bft) 100,00 %
03.11.2017 20:04 7,3 C 8,3 C 91 % 1016,1 hPa 0,0 l/m 3,9 km/h (1 Bft) O-NO 66 0 min 0,000 mm 0,0 UV-I 0 W/m 5,9 C 7,3 C 6,4 km/h (2 Bft) 100,00 %
03.11.2017 20:06 7,2 C 8,3 C 91 % 1016,2 hPa 0,0 l/m 4,4 km/h (1 Bft) O-NO 68 0 min 0,000 mm 0,0 UV-I 0 W/m 5,8 C 7,2 C 6,4 km/h (2 Bft) 100,00 %
03.11.2017 20:08 7,2 C 8,3 C 91 % 1016,2 hPa 0,0 l/m 4,4 km/h (1 Bft) O-NO 68 0 min 0,000 mm 0,0 UV-I 0 W/m 5,8 C 7,2 C 6,4 km/h (2 Bft) 100,00 %
03.11.2017 20:10 7,1 C 8,3 C 91 % 1016,1 hPa 0,0 l/m 5,7 km/h (1 Bft) O-NO 69 0 min 0,000 mm 0,0 UV-I 0 W/m 5,7 C 7,1 C 8,0 km/h (2 Bft) 98,00 %
03.11.2017 20:12 7,1 C 8,3 C 91 % 1016,1 hPa 0,0 l/m 5,3 km/h (1 Bft) O-NO 69 0 min 0,000 mm 0,0 UV-I 0 W/m 5,7 C 7,1 C 8,0 km/h (2 Bft) 100,00 %
03.11.2017 20:14 7,1 C 8,3 C 91 % 1016,2 hPa 0,0 l/m 4,8 km/h (1 Bft) O-NO 69 0 min 0,000 mm 0,0 UV-I 0 W/m 5,7 C 7,1 C 6,4 km/h (2 Bft) 100,00 %
03.11.2017 20:16 7,1 C 8,3 C 91 % 1016,2 hPa 0,0 l/m 5,7 km/h (1 Bft) O-NO 69 0 min 0,000 mm 0,0 UV-I 0 W/m 5,7 C 7,1 C 8,0 km/h (2 Bft) 100,00 %
03.11.2017 20:18 7,1 C 8,3 C 91 % 1016,2 hPa 0,0 l/m 5,3 km/h (1 Bft) O-NO 69 0 min 0,000 mm 0,0 UV-I 0 W/m 5,7 C 7,1 C 6,4 km/h (2 Bft) 100,00 %
03.11.2017 20:20 7,0 C 8,3 C 91 % 1016,2 hPa 0,0 l/m 5,4 km/h (1 Bft) O-NO 69 0 min 0,000 mm 0,0 UV-I 0 W/m 5,6 C 7,0 C 6,4 km/h (2 Bft) 94,55 %
03.11.2017 20:22 7,1 C 8,3 C 91 % 1016,2 hPa 0,0 l/m 4,9 km/h (1 Bft) O-NO 69 0 min 0,000 mm 0,0 UV-I 0 W/m 5,7 C 7,1 C 6,4 km/h (2 Bft) 98,00 %
03.11.2017 20:24 7,1 C 8,3 C 92 % 1016,2 hPa 0,0 l/m 5,3 km/h (1 Bft) O-NO 69 0 min 0,000 mm 0,0 UV-I 0 W/m 5,9 C 7,1 C 6,4 km/h (2 Bft) 97,37 %
03.11.2017 20:26 7,1 C 8,3 C 91 % 1016,2 hPa 0,0 l/m 5,7 km/h (1 Bft) O-NO 69 0 min 0,000 mm 0,0 UV-I 0 W/m 5,7 C 7,1 C 8,0 km/h (2 Bft) 97,87 %
03.11.2017 20:28 7,0 C 8,3 C 91 % 1016,2 hPa 0,0 l/m 5,7 km/h (1 Bft) O-NO 69 0 min 0,000 mm 0,0 UV-I 0 W/m 5,6 C 7,0 C 6,4 km/h (2 Bft) 96,23 %
03.11.2017 20:30 6,9 C 8,3 C 91 % 1016,2 hPa 0,0 l/m 5,0 km/h (1 Bft) O-NO 69 0 min 0,000 mm 0,0 UV-I 0 W/m 5,5 C 6,9 C 6,4 km/h (2 Bft) 97,56 %
03.11.2017 20:35 7,1 C 8,3 C 92 % 1016,2 hPa 0,0 l/m 4,8 km/h (1 Bft) O-NO 67 0 min 0,000 mm 0,0 UV-I 0 W/m 5,9 C 7,1 C 6,4 km/h (2 Bft) 100,00 %
03.11.2017 20:44 7,0 C 8,3 C 92 % 1016,2 hPa 0,0 l/m 3,8 km/h (1 Bft) O-NO 69 0 min 0,000 mm 0,0 UV-I 0 W/m 5,8 C 7,0 C 4,8 km/h (1 Bft) 97,47 %
03.11.2017 20:46 6,9 C 8,3 C 92 % 1016,3 hPa 0,0 l/m 2,3 km/h (1 Bft) O-NO 69 0 min 0,000 mm 0,0 UV-I 0 W/m 5,7 C 6,9 C 3,2 km/h (1 Bft) 94,87 %
03.11.2017 20:48 6,8 C 8,3 C 91 % 1016,2 hPa 0,0 l/m 2,5 km/h (1 Bft) O-NO 69 0 min 0,000 mm 0,0 UV-I 0 W/m 5,4 C 6,8 C 3,2 km/h (1 Bft) 92,45 %
03.11.2017 20:50 6,7 C 8,3 C 92 % 1016,2 hPa 0,0 l/m 2,9 km/h (1 Bft) O-NO 69 0 min 0,000 mm 0,0 UV-I 0 W/m 5,5 C 6,7 C 4,8 km/h (1 Bft) 95,74 %
03.11.2017 20:52 6,7 C 8,3 C 92 % 1016,3 hPa 0,0 l/m 3,1 km/h (1 Bft) O-NO 69 0 min 0,000 mm 0,0 UV-I 0 W/m 5,5 C 6,7 C 4,8 km/h (1 Bft) 95,74 %
03.11.2017 20:54 6,6 C 8,3 C 92 % 1016,2 hPa 0,0 l/m 2,9 km/h (1 Bft) O-NO 69 0 min 0,000 mm 0,0 UV-I 0 W/m 5,4 C 6,6 C 4,8 km/h (1 Bft) 95,45 %
03.11.2017 20:56 6,5 C 8,3 C 92 % 1016,2 hPa 0,0 l/m 2,5 km/h (1 Bft) O-NO 69 0 min 0,000 mm 0,0 UV-I 0 W/m 5,3 C 6,5 C 4,8 km/h (1 Bft) 95,74 %
03.11.2017 20:58 6,4 C 8,3 C 92 % 1016,2 hPa 0,0 l/m 1,8 km/h (1 Bft) O-NO 69 0 min 0,000 mm 0,0 UV-I 0 W/m 5,2 C 6,4 C 3,2 km/h (1 Bft) 97,87 %
03.11.2017 21:00 6,4 C 8,3 C 93 % 1016,3 hPa 0,0 l/m 1,9 km/h (1 Bft) O-NO 69 0 min 0,000 mm 0,0 UV-I 0 W/m 5,4 C 6,4 C 3,2 km/h (1 Bft) 96,00 %
03.11.2017 21:02 6,4 C 8,3 C 93 % 1016,2 hPa 0,0 l/m 2,4 km/h (1 Bft) O-NO 69 0 min 0,000 mm 0,0 UV-I 0 W/m 5,4 C 6,4 C 4,8 km/h (1 Bft) 97,37 %
03.11.2017 21:04 6,4 C 8,3 C 93 % 1016,2 hPa 0,0 l/m 1,7 km/h (1 Bft) O-NO 69 0 min 0,000 mm 0,0 UV-I 0 W/m 5,4 C 6,4 C 3,2 km/h (1 Bft) 95,74 %
03.11.2017 21:06 6,3 C 8,3 C 93 % 1016,2 hPa 0,0 l/m 1,5 km/h (1 Bft) O-NO 69 0 min 0,000 mm 0,0 UV-I 0 W/m 5,3 C 6,3 C 3,2 km/h (1 Bft) 100,00 %
03.11.2017 21:08 6,2 C 8,3 C 92 % 1016,2 hPa 0,0 l/m 2,0 km/h (1 Bft) O-NO 69 0 min 0,000 mm 0,0 UV-I 0 W/m 5,0 C 6,2 C 3,2 km/h (1 Bft) 96,00 %
03.11.2017 21:10 6,1 C 8,3 C 93 % 1016,2 hPa 0,0 l/m 3,0 km/h (1 Bft) O-NO 69 0 min 0,000 mm 0,0 UV-I 0 W/m 5,1 C 6,1 C 3,2 km/h (1 Bft) 96,00 %
03.11.2017 21:12 6,1 C 8,3 C 93 % 1016,2 hPa 0,0 l/m 3,9 km/h (1 Bft) O-NO 69 0 min 0,000 mm 0,0 UV-I 0 W/m 5,1 C 6,1 C 4,8 km/h (1 Bft) 98,11 %
03.11.2017 21:14 6,1 C 8,3 C 93 % 1016,2 hPa 0,0 l/m 4,3 km/h (1 Bft) O-NO 69 0 min 0,000 mm 0,0 UV-I 0 W/m 5,1 C 6,1 C 6,4 km/h (2 Bft) 95,12 %
03.11.2017 21:16 6,1 C 8,3 C 93 % 1016,2 hPa 0,0 l/m 5,0 km/h (1 Bft) O-NO 69 0 min 0,000 mm 0,0 UV-I 0 W/m 5,1 C 6,1 C 8,0 km/h (2 Bft) 98,00 %
03.11.2017 21:18 6,1 C 8,3 C 94 % 1016,2 hPa 0,0 l/m 4,9 km/h (1 Bft) O-NO 67 0 min 0,000 mm 0,0 UV-I 0 W/m 5,2 C 6,1 C 6,4 km/h (2 Bft) 98,00 %
03.11.2017 21:20 6,1 C 8,3 C 94 % 1016,1 hPa 0,0 l/m 3,3 km/h (1 Bft) O-NO 67 0 min 0,000 mm 0,0 UV-I 0 W/m 5,2 C 6,1 C 4,8 km/h (1 Bft) 97,50 %
03.11.2017 21:22 6,1 C 8,3 C 94 % 1016,2 hPa 0,0 l/m 3,3 km/h (1 Bft) O-NO 67 0 min 0,000 mm 0,0 UV-I 0 W/m 5,2 C 6,1 C 4,8 km/h (1 Bft) 96,00 %
03.11.2017 21:24 6,0 C 8,3 C 94 % 1016,2 hPa 0,0 l/m 5,5 km/h (1 Bft) O-NO 59 0 min 0,000 mm 0,0 UV-I 0 W/m 5,1 C 6,0 C 6,4 km/h (2 Bft) 96,00 %
03.11.2017 21:26 6,0 C 8,3 C 94 % 1016,1 hPa 0,0 l/m 4,7 km/h (1 Bft) O-NO 59 0 min 0,000 mm 0,0 UV-I 0 W/m 5,1 C 6,0 C 6,4 km/h (2 Bft) 100,00 %
03.11.2017 21:28 5,9 C 8,3 C 94 % 1016,1 hPa 0,0 l/m 5,6 km/h (1 Bft) O-NO 71 0 min 0,000 mm 0,0 UV-I 0 W/m 5,0 C 5,9 C 6,4 km/h (2 Bft) 97,06 %
03.11.2017 21:30 5,9 C 8,3 C 94 % 1016,2 hPa 0,0 l/m 5,4 km/h (1 Bft) O-NO 71 0 min 0,000 mm 0,0 UV-I 0 W/m 5,0 C 5,9 C 8,0 km/h (2 Bft) 97,56 %
03.11.2017 21:33 5,9 C 8,3 C 94 % 1016,1 hPa 0,0 l/m 5,2 km/h (1 Bft) O-NO 71 0 min 0,000 mm 0,0 UV-I 0 W/m 5,0 C 5,9 C 6,4 km/h (2 Bft) 95,89 %
03.11.2017 21:34 5,9 C 8,3 C 94 % 1016,1 hPa 0,0 l/m 5,1 km/h (1 Bft) O-NO 71 0 min 0,000 mm 0,0 UV-I 0 W/m 5,0 C 5,9 C 6,4 km/h (2 Bft) 95,83 %
03.11.2017 21:36 5,9 C 8,3 C 94 % 1016,1 hPa 0,0 l/m 5,2 km/h (1 Bft) NO 46 0 min 0,000 mm 0,0 UV-I 0 W/m 5,0 C 5,9 C 8,0 km/h (2 Bft) 100,00 %
03.11.2017 21:38 5,9 C 8,3 C 94 % 1016,1 hPa 0,0 l/m 5,9 km/h (2 Bft) O-NO 58 0 min 0,000 mm 0,0 UV-I 0 W/m 5,0 C 5,9 C 8,0 km/h (2 Bft) 100,00 %
03.11.2017 21:40 5,9 C 8,3 C 94 % 1016,1 hPa 0,0 l/m 5,6 km/h (1 Bft) O-NO 63 0 min 0,000 mm 0,0 UV-I 0 W/m 5,0 C 5,9 C 8,0 km/h (2 Bft) 100,00 %
03.11.2017 21:42 5,9 C 8,3 C 93 % 1016,2 hPa 0,0 l/m 6,3 km/h (2 Bft) O-NO 74 0 min 0,000 mm 0,0 UV-I 0 W/m 4,9 C 5,9 C 9,7 km/h (2 Bft) 97,73 %
03.11.2017 21:44 5,8 C 8,3 C 93 % 1016,2 hPa 0,0 l/m 5,8 km/h (2 Bft) O-NO 71 0 min 0,000 mm 0,0 UV-I 0 W/m 4,8 C 5,8 C 6,4 km/h (2 Bft) 97,56 %
03.11.2017 21:46 5,7 C 8,3 C 93 % 1016,2 hPa 0,0 l/m 4,2 km/h (1 Bft) O-NO 68 0 min 0,000 mm 0,0 UV-I 0 W/m 4,7 C 5,7 C 6,4 km/h (2 Bft) 97,87 %
03.11.2017 21:48 5,7 C 8,3 C 93 % 1016,2 hPa 0,0 l/m 3,6 km/h (1 Bft) O-NO 68 0 min 0,000 mm 0,0 UV-I 0 W/m 4,7 C 5,7 C 4,8 km/h (1 Bft) 96,00 %
03.11.2017 21:50 5,7 C 8,3 C 93 % 1016,2 hPa 0,0 l/m 3,5 km/h (1 Bft) O-NO 68 0 min 0,000 mm 0,0 UV-I 0 W/m 4,7 C 5,7 C 4,8 km/h (1 Bft) 100,00 %
03.11.2017 21:52 5,7 C 8,3 C 94 % 1016,2 hPa 0,0 l/m 4,4 km/h (1 Bft) O-NO 68 0 min 0,000 mm 0,0 UV-I 0 W/m 4,8 C 5,7 C 6,4 km/h (2 Bft) 100,00 %
03.11.2017 21:54 5,7 C 8,3 C 94 % 1016,2 hPa 0,0 l/m 3,8 km/h (1 Bft) O-NO 68 0 min 0,000 mm 0,0 UV-I 0 W/m 4,8 C 5,7 C 4,8 km/h (1 Bft) 97,56 %
03.11.2017 21:56 5,7 C 8,3 C 94 % 1016,2 hPa 0,0 l/m 3,9 km/h (1 Bft) O-NO 68 0 min 0,000 mm 0,0 UV-I 0 W/m 4,8 C 5,7 C 6,4 km/h (2 Bft) 100,00 %
03.11.2017 21:58 5,6 C 8,3 C 93 % 1016,2 hPa 0,0 l/m 3,3 km/h (1 Bft) O-NO 68 0 min 0,000 mm 0,0 UV-I 0 W/m 4,6 C 5,6 C 4,8 km/h (1 Bft) 100,00 %
03.11.2017 22:00 5,5 C 8,3 C 94 % 1016,2 hPa 0,0 l/m 5,0 km/h (1 Bft) O-NO 69 0 min 0,000 mm 0,0 UV-I 0 W/m 4,6 C 5,5 C 6,4 km/h (2 Bft) 98,00 %
03.11.2017 22:02 5,6 C 8,3 C 94 % 1016,1 hPa 0,0 l/m 5,1 km/h (1 Bft) O-NO 69 0 min 0,000 mm 0,0 UV-I 0 W/m 4,7 C 5,6 C 6,4 km/h (2 Bft) 100,00 %
03.11.2017 22:04 5,7 C 8,3 C 94 % 1016,1 hPa 0,0 l/m 4,9 km/h (1 Bft) O-NO 69 0 min 0,000 mm 0,0 UV-I 0 W/m 4,8 C 5,7 C 6,4 km/h (2 Bft) 100,00 %
03.11.2017 22:06 5,7 C 8,3 C 94 % 1016,1 hPa 0,0 l/m 5,5 km/h (1 Bft) O-NO 65 0 min 0,000 mm 0,0 UV-I 0 W/m 4,8 C 5,7 C 8,0 km/h (2 Bft) 98,00 %
03.11.2017 22:08 5,7 C 8,3 C 94 % 1016,0 hPa 0,0 l/m 5,6 km/h (1 Bft) O-NO 65 0 min 0,000 mm 0,0 UV-I 0 W/m 4,8 C 5,7 C 8,0 km/h (2 Bft) 100,00 %
03.11.2017 22:10 5,7 C 8,3 C 94 % 1016,0 hPa 0,0 l/m 4,5 km/h (1 Bft) O-NO 65 0 min 0,000 mm 0,0 UV-I 0 W/m 4,8 C 5,7 C 6,4 km/h (2 Bft) 100,00 %
03.11.2017 22:12 5,7 C 8,3 C 94 % 1016,0 hPa 0,0 l/m 4,2 km/h (1 Bft) O-NO 65 0 min 0,000 mm 0,0 UV-I 0 W/m 4,8 C 5,7 C 6,4 km/h (2 Bft) 100,00 %
03.11.2017 22:14 5,7 C 8,3 C 94 % 1016,0 hPa 0,0 l/m 3,0 km/h (1 Bft) O-NO 65 0 min 0,000 mm 0,0 UV-I 0 W/m 4,8 C 5,7 C 6,4 km/h (2 Bft) 97,87 %
03.11.2017 22:16 5,6 C 8,3 C 94 % 1015,9 hPa 0,0 l/m 3,7 km/h (1 Bft) O-NO 65 0 min 0,000 mm 0,0 UV-I 0 W/m 4,7 C 5,6 C 4,8 km/h (1 Bft) 96,00 %
03.11.2017 22:18 5,6 C 8,3 C 94 % 1015,9 hPa 0,0 l/m 5,4 km/h (1 Bft) O-NO 65 0 min 0,000 mm 0,0 UV-I 0 W/m 4,7 C 5,6 C 6,4 km/h (2 Bft) 100,00 %
03.11.2017 22:20 5,6 C 8,3 C 94 % 1015,8 hPa 0,0 l/m 4,0 km/h (1 Bft) O-NO 65 0 min 0,000 mm 0,0 UV-I 0 W/m 4,7 C 5,6 C 6,4 km/h (2 Bft) 100,00 %
03.11.2017 22:22 5,6 C 8,3 C 94 % 1015,8 hPa 0,0 l/m 3,3 km/h (1 Bft) O-NO 65 0 min 0,000 mm 0,0 UV-I 0 W/m 4,7 C 5,6 C 4,8 km/h (1 Bft) 97,44 %
03.11.2017 22:24 5,4 C 8,3 C 93 % 1015,8 hPa 0,0 l/m 3,8 km/h (1 Bft) O-NO 65 0 min 0,000 mm 0,0 UV-I 0 W/m 4,4 C 5,4 C 4,8 km/h (1 Bft) 100,00 %
03.11.2017 22:26 5,3 C 8,3 C 94 % 1015,7 hPa 0,0 l/m 3,4 km/h (1 Bft) O-NO 65 0 min 0,000 mm 0,0 UV-I 0 W/m 4,4 C 5,3 C 6,4 km/h (2 Bft) 94,34 %
03.11.2017 22:28 5,3 C 8,3 C 94 % 1015,7 hPa 0,0 l/m 3,8 km/h (1 Bft) O-NO 65 0 min 0,000 mm 0,0 UV-I 0 W/m 4,4 C 5,3 C 6,4 km/h (2 Bft) 97,37 %
03.11.2017 22:30 5,3 C 8,3 C 94 % 1015,8 hPa 0,0 l/m 4,2 km/h (1 Bft) O-NO 69 0 min 0,000 mm 0,0 UV-I 0 W/m 4,4 C 5,3 C 8,0 km/h (2 Bft) 98,00 %
03.11.2017 22:32 5,4 C 8,3 C 94 % 1015,8 hPa 0,0 l/m 4,9 km/h (1 Bft) O-NO 71 0 min 0,000 mm 0,0 UV-I 0 W/m 4,5 C 5,4 C 8,0 km/h (2 Bft) 95,74 %
03.11.2017 22:34 5,3 C 8,3 C 94 % 1015,7 hPa 0,0 l/m 3,5 km/h (1 Bft) O-NO 71 0 min 0,000 mm 0,0 UV-I 0 W/m 4,4 C 5,3 C 4,8 km/h (1 Bft) 96,00 %
03.11.2017 22:36 5,2 C 8,3 C 94 % 1015,7 hPa 0,0 l/m 2,7 km/h (1 Bft) O-NO 71 0 min 0,000 mm 0,0 UV-I 0 W/m 4,3 C 5,2 C 4,8 km/h (1 Bft) 98,00 %
03.11.2017 22:38 5,3 C 8,3 C 94 % 1015,7 hPa 0,0 l/m 3,4 km/h (1 Bft) O-NO 71 0 min 0,000 mm 0,0 UV-I 0 W/m 4,4 C 5,3 C 6,4 km/h (2 Bft) 97,87 %
03.11.2017 22:40 5,3 C 8,3 C 94 % 1015,7 hPa 0,0 l/m 4,1 km/h (1 Bft) O-NO 71 0 min 0,000 mm 0,0 UV-I 0 W/m 4,4 C 5,3 C 4,8 km/h (1 Bft) 97,56 %
03.11.2017 22:42 5,4 C 8,3 C 94 % 1015,7 hPa 0,0 l/m 4,8 km/h (1 Bft) O-NO 71 0 min 0,000 mm 0,0 UV-I 0 W/m 4,5 C 5,4 C 6,4 km/h (2 Bft) 98,00 %
03.11.2017 22:44 5,4 C 8,3 C 94 % 1015,7 hPa 0,0 l/m 5,4 km/h (1 Bft) O-NO 71 0 min 0,000 mm 0,0 UV-I 0 W/m 4,5 C 5,4 C 6,4 km/h (2 Bft) 95,24 %
03.11.2017 22:46 5,4 C 8,3 C 94 % 1015,6 hPa 0,0 l/m 4,6 km/h (1 Bft) O-NO 71 0 min 0,000 mm 0,0 UV-I 0 W/m 4,5 C 5,4 C 6,4 km/h (2 Bft) 98,11 %
03.11.2017 22:48 5,3 C 8,3 C 94 % 1015,6 hPa 0,0 l/m 4,1 km/h (1 Bft) O-NO 71 0 min 0,000 mm 0,0 UV-I 0 W/m 4,4 C 5,3 C 6,4 km/h (2 Bft) 97,87 %
03.11.2017 22:50 5,3 C 8,3 C 94 % 1015,6 hPa 0,0 l/m 3,8 km/h (1 Bft) O-NO 71 0 min 0,000 mm 0,0 UV-I 0 W/m 4,4 C 5,3 C 4,8 km/h (1 Bft) 95,74 %
03.11.2017 22:52 5,3 C 8,3 C 94 % 1015,6 hPa 0,0 l/m 3,6 km/h (1 Bft) O-NO 71 0 min 0,000 mm 0,0 UV-I 0 W/m 4,4 C 5,3 C 4,8 km/h (1 Bft) 100,00 %
03.11.2017 22:54 5,3 C 8,3 C 94 % 1015,6 hPa 0,0 l/m 4,8 km/h (1 Bft) O-NO 71 0 min 0,000 mm 0,0 UV-I 0 W/m 4,4 C 5,3 C 8,0 km/h (2 Bft) 96,00 %
03.11.2017 22:56 5,2 C 8,3 C 94 % 1015,5 hPa 0,0 l/m 4,9 km/h (1 Bft) O-NO 71 0 min 0,000 mm 0,0 UV-I 0 W/m 4,3 C 5,2 C 8,0 km/h (2 Bft) 95,12 %
03.11.2017 22:58 5,2 C 8,3 C 94 % 1015,5 hPa 0,0 l/m 5,0 km/h (1 Bft) O-NO 71 0 min 0,000 mm 0,0 UV-I 0 W/m 4,3 C 5,2 C 8,0 km/h (2 Bft) 96,23 %
03.11.2017 23:00 5,2 C 8,3 C 94 % 1015,5 hPa 0,0 l/m 4,8 km/h (1 Bft) O-NO 72 0 min 0,000 mm 0,0 UV-I 0 W/m 4,3 C 5,2 C 8,0 km/h (2 Bft) 96,00 %
03.11.2017 23:02 5,3 C 8,3 C 94 % 1015,5 hPa 0,0 l/m 3,5 km/h (1 Bft) O-NO 72 0 min 0,000 mm 0,0 UV-I 0 W/m 4,4 C 5,3 C 6,4 km/h (2 Bft) 94,00 %
03.11.2017 23:04 5,3 C 8,3 C 94 % 1015,5 hPa 0,0 l/m 3,9 km/h (1 Bft) O-NO 72 0 min 0,000 mm 0,0 UV-I 0 W/m 4,4 C 5,3 C 6,4 km/h (2 Bft) 100,00 %
03.11.2017 23:06 5,2 C 8,3 C 94 % 1015,5 hPa 0,0 l/m 3,8 km/h (1 Bft) O-NO 72 0 min 0,000 mm 0,0 UV-I 0 W/m 4,3 C 5,2 C 4,8 km/h (1 Bft) 95,74 %
03.11.2017 23:08 5,1 C 8,3 C 93 % 1015,4 hPa 0,0 l/m 5,1 km/h (1 Bft) O-NO 60 0 min 0,000 mm 0,0 UV-I 0 W/m 4,1 C 5,1 C 8,0 km/h (2 Bft) 100,00 %
03.11.2017 23:10 5,0 C 8,3 C 94 % 1015,4 hPa 0,0 l/m 5,2 km/h (1 Bft) O-NO 60 0 min 0,000 mm 0,0 UV-I 0 W/m 4,1 C 5,0 C 8,0 km/h (2 Bft) 100,00 %
03.11.2017 23:12 4,9 C 8,3 C 94 % 1015,4 hPa 0,0 l/m 5,2 km/h (1 Bft) O-NO 63 0 min 0,000 mm 0,0 UV-I 0 W/m 4,0 C 4,9 C 8,0 km/h (2 Bft) 98,00 %
03.11.2017 23:14 4,9 C 8,3 C 94 % 1015,4 hPa 0,0 l/m 4,8 km/h (1 Bft) O-NO 63 0 min 0,000 mm 0,0 UV-I 0 W/m 4,0 C 4,9 C 6,4 km/h (2 Bft) 100,00 %
03.11.2017 23:16 4,9 C 8,3 C 94 % 1015,4 hPa 0,0 l/m 4,8 km/h (1 Bft) O-NO 63 0 min 0,000 mm 0,0 UV-I 0 W/m 4,0 C 4,9 C 6,4 km/h (2 Bft) 97,87 %
03.11.2017 23:18 4,8 C 8,3 C 94 % 1015,4 hPa 0,0 l/m 5,1 km/h (1 Bft) O-NO 67 0 min 0,000 mm 0,0 UV-I 0 W/m 3,9 C 4,8 C 6,4 km/h (2 Bft) 100,00 %
03.11.2017 23:20 4,9 C 8,3 C 94 % 1015,4 hPa 0,0 l/m 5,8 km/h (2 Bft) O-NO 75 0 min 0,000 mm 0,0 UV-I 0 W/m 4,0 C 4,9 C 8,0 km/h (2 Bft) 100,00 %
03.11.2017 23:22 4,9 C 8,3 C 94 % 1015,4 hPa 0,0 l/m 5,0 km/h (1 Bft) O-NO 75 0 min 0,000 mm 0,0 UV-I 0 W/m 4,0 C 4,9 C 11,3 km/h (2 Bft) 97,44 %
03.11.2017 23:24 4,9 C 8,3 C 94 % 1015,5 hPa 0,0 l/m 4,1 km/h (1 Bft) O-NO 76 0 min 0,000 mm 0,0 UV-I 0 W/m 4,0 C 4,9 C 12,9 km/h (3 Bft) 100,00 %
03.11.2017 23:26 5,0 C 8,3 C 94 % 1015,4 hPa 0,0 l/m 5,7 km/h (1 Bft) O-NO 76 0 min 0,000 mm 0,0 UV-I 0 W/m 4,1 C 5,0 C 8,0 km/h (2 Bft) 98,15 %
03.11.2017 23:28 5,1 C 8,3 C 94 % 1015,4 hPa 0,0 l/m 5,0 km/h (1 Bft) O-NO 76 0 min 0,000 mm 0,0 UV-I 0 W/m 4,2 C 5,1 C 8,0 km/h (2 Bft) 100,00 %
03.11.2017 23:30 5,1 C 8,3 C 94 % 1015,4 hPa 0,0 l/m 5,2 km/h (1 Bft) O-NO 76 0 min 0,000 mm 0,0 UV-I 0 W/m 4,2 C 5,1 C 8,0 km/h (2 Bft) 100,00 %
03.11.2017 23:32 5,1 C 8,3 C 94 % 1015,4 hPa 0,0 l/m 5,5 km/h (1 Bft) O-NO 76 0 min 0,000 mm 0,0 UV-I 0 W/m 4,2 C 5,1 C 8,0 km/h (2 Bft) 95,74 %
03.11.2017 23:34 5,1 C 8,3 C 94 % 1015,3 hPa 0,0 l/m 6,0 km/h (2 Bft) O-NO 68 0 min 0,000 mm 0,0 UV-I 0 W/m 4,2 C 5,1 C 8,0 km/h (2 Bft) 100,00 %
03.11.2017 23:36 5,1 C 8,3 C 94 % 1015,3 hPa 0,0 l/m 6,1 km/h (2 Bft) O-NO 65 0 min 0,000 mm 0,0 UV-I 0 W/m 4,2 C 5,1 C 9,7 km/h (2 Bft) 100,00 %
03.11.2017 23:38 5,1 C 8,3 C 94 % 1015,3 hPa 0,0 l/m 6,9 km/h (2 Bft) O-NO 65 0 min 0,000 mm 0,0 UV-I 0 W/m 4,2 C 4,7 C 9,7 km/h (2 Bft) 100,00 %
03.11.2017 23:40 5,1 C 8,3 C 94 % 1015,2 hPa 0,0 l/m 6,2 km/h (2 Bft) O-NO 59 0 min 0,000 mm 0,0 UV-I 0 W/m 4,2 C 5,1 C 9,7 km/h (2 Bft) 100,00 %
03.11.2017 23:42 4,9 C 8,3 C 93 % 1015,2 hPa 0,0 l/m 4,8 km/h (1 Bft) O-NO 59 0 min 0,000 mm 0,0 UV-I 0 W/m 3,9 C 4,9 C 6,4 km/h (2 Bft) 100,00 %
03.11.2017 23:44 4,8 C 8,3 C 94 % 1015,2 hPa 0,0 l/m 4,3 km/h (1 Bft) O-NO 59 0 min 0,000 mm 0,0 UV-I 0 W/m 3,9 C 4,8 C 8,0 km/h (2 Bft) 100,00 %
03.11.2017 23:46 4,7 C 8,3 C 93 % 1015,2 hPa 0,0 l/m 4,2 km/h (1 Bft) O-NO 59 0 min 0,000 mm 0,0 UV-I 0 W/m 3,7 C 4,7 C 6,4 km/h (2 Bft) 100,00 %
03.11.2017 23:48 4,7 C 8,3 C 94 % 1015,2 hPa 0,0 l/m 3,3 km/h (1 Bft) O-NO 59 0 min 0,000 mm 0,0 UV-I 0 W/m 3,8 C 4,7 C 4,8 km/h (1 Bft) 100,00 %
03.11.2017 23:50 4,7 C 8,3 C 94 % 1015,1 hPa 0,0 l/m 4,4 km/h (1 Bft) O-NO 60 0 min 0,000 mm 0,0 UV-I 0 W/m 3,8 C 4,7 C 8,0 km/h (2 Bft) 100,00 %
03.11.2017 23:52 4,7 C 8,3 C 94 % 1015,1 hPa 0,0 l/m 5,4 km/h (1 Bft) O-NO 59 0 min 0,000 mm 0,0 UV-I 0 W/m 3,8 C 4,7 C 8,0 km/h (2 Bft) 97,56 %
03.11.2017 23:54 4,7 C 8,3 C 94 % 1015,1 hPa 0,0 l/m 5,4 km/h (1 Bft) O-NO 67 0 min 0,000 mm 0,0 UV-I 0 W/m 3,8 C 4,7 C 8,0 km/h (2 Bft) 100,00 %
03.11.2017 23:56 4,6 C 8,3 C 94 % 1015,1 hPa 0,0 l/m 7,1 km/h (2 Bft) O-NO 61 0 min 0,000 mm 0,0 UV-I 0 W/m 3,7 C 4,0 C 9,7 km/h (2 Bft) 97,56 %
03.11.2017 23:58 4,6 C 8,3 C 94 % 1015,0 hPa 0,0 l/m 7,1 km/h (2 Bft) O-NO 72 0 min 0,000 mm 0,0 UV-I 0 W/m 3,7 C 4,0 C 11,3 km/h (2 Bft) 100,00 %
_ Min-Zeit 23:56 00:00 13:38 23:58 - 12:40 - - - - - - 23:46 23:56 12:40 11:36
Minimum _ 4,6 C 7,8 C 72 % 1015,0 hPa - 0,0 km/h (0 Bft) - - - - - - 3,7 C 4,0 C 0,0 km/h (0 Bft) 90,00 %
_ Max-Zeit 11:46 15:28 21:18 10:38 00:00 00:38 - - 09:03 12:00 11:24 10:08 10:10 11:46 00:38 00:10
Maximum _ 12,3 C 8,3 C 94 % 1018,1 hPa 0,0 l/m 16,8 km/h
SW (3 Bft)
- - 3 min 0,153 mm 1,2 UV-I 508 W/m 9,3 C 12,3 C 24,1 km/h
W-SW (4 Bft)
100,00 %
Durchschnitt _ 9,7 C 8,0 C 85 % 1016,5 hPa #0,0 l/m 5,4 km/h (1 Bft) W-SW - #3:48 h #0,965 mm 0,8 UV-I 145 W/m 7,3 C 9,1 C 8,5 km/h (2 Bft) 98,06 %